     2              OBSERVATION DATA    GPS                 RINEX VERSION / TYPE
ASRINEXO V2.7.2 UX SOPAC 02-MAR- 0 15:34                    PGM / RUN BY / DATE
                                                            COMMENT
Original Marker Name: 0302                                  COMMENT
Campaign Name: HPGN 1991                                    COMMENT
4-Character Station Name: 0302                              COMMENT
6-Character Antenna Code: ASHL12                            COMMENT
Vertical Measurement Point: BAS                             COMMENT
Vertical Offset to Rinex Ref. Point: 0.0000                 COMMENT
Radial Measurement Point: RRP                               COMMENT
Radial Offset to Rinex Ref. Point: 0.0000                   COMMENT
Antenna Height from Field Measurement: 1.5460 m             COMMENT
Additional Antenna Identification Info.:                    COMMENT
Original Ashtech L1/L2                                      COMMENT
Original XYZ: 6378137.0000 0.0000 0.0000                    COMMENT
New XYZ position is based on association with SCEC monument COMMENT
E1O4X4I1+0011. Position of that monument is believed to be  COMMENT
valid to within 1 m horizontally; vertical accuracy         COMMENT
should be no worse than 3-times this value.                 COMMENT
                                                            COMMENT
Revised Rinex header created by UCSD GPS archive for        COMMENT
GSAC on 17-Mar-2000 (2000:077) 23:09:13 GMT                 COMMENT
For assistance contact dagnew@ucsd.edu or hjohnson@ucsd.edu COMMENT
                                                            COMMENT
ORLAND SOUTH BASE                                           MARKER NAME
JDD CALIF DEPT TRANSPORTATION                               OBSERVER / AGENCY
579 ASHTECH L-XII 6A                                        REC # / TYPE / VERS
615 ASHTECH GEODETIC L                                      ANT # / TYPE
 -2615457.6482 -4154507.6076  4058294.2138                  APPROX POSITION XYZ
        1.5460        0.0000        0.0000                  ANTENNA: DELTA H/E/N
     1     2     0                                          WAVELENGTH FACT L1/2
     3    C1    L1    L2                                    # / TYPES OF OBSERV
     0                                                      INTERVAL
  1991     7    25     0    31   45.000000                  TIME OF FIRST OBS
  1991     7    25     5    32   30.000000                  TIME OF LAST OBS
                                                            END OF HEADER
 91  7 25  0 31 45.0000000  0  2 20 23
  31094473.137           0.761 3         0.259 2
  33121385.833           0.645 2         0.245 1
 91  7 25  0 32  0.0000000  0  2 20 23
  31104472.723       52577.567 3     40969.153 2
  33111361.084      -52649.778 2    -41026.301 1
 91  7 25  0 32 15.0000000  0  2 20 23
  29915354.037      105372.939 3     82108.327 2
  31902198.573     -105157.875 2    -81941.948 1
 91  7 25  0 32 30.0000000  0  2 20 23
  29925440.856      158392.422 3    123422.155 2
  31892243.066     -157461.505 2   -122698.273 1
 91  7 25  0 32 45.0000000  0  2 20 23
  31134744.558      211652.341 3    164923.333 2
  33081505.646     -209543.586 2   -163281.962 1
 91  7 25  0 33  0.0000000  0  2 20 23
  31144935.118      265193.310 3    206643.496 1
  33071641.579     -261419.022 2   -203704.628 1
 91  7 25  0 33 15.0000000  0  3 03 20 23
  28681087.188           0.169 4         0.375 3
  30555589.299      319013.552 3    248581.289 1
  32462218.970     -313074.944 2   -243955.823 1
 91  7 25  0 33 30.0000000  0  3 03 20 23
  28678815.973      -11946.416 4     -9308.641 3
  30565883.880      373099.493 3    290726.105 1
  32452440.042     -364496.090 2   -284024.009 1
 91  7 25  0 33 45.0000000  0  3 03 20 23
  28976386.962      -23617.922 4    -18403.319 3
  30876021.278      427453.043 3    333079.461 1
  32742490.739     -415687.017 2   -323912.844 1
 91  7 25  0 34  0.0000000  0  3 03 20 23
  28974216.173      -35016.227 4    -27285.106 3
  30886415.971      482080.402 3    375646.180 1
  32732788.854     -466655.063 2   -363628.049 1
 91  7 25  0 34 15.0000000  0  4 03 20 23 16
  28972105.621      -46108.668 4    -35928.564 3
  30896870.641      537009.401 3    418447.914 2
  32723134.346     -517364.746 2   -403141.858 1
  30354461.841           0.711 3         0.317 1
 91  7 25  0 34 30.0000000  0  4 03 20 23 16
  28970044.262      -56927.899 4    -44359.121 2
  30907368.779      592206.730 3    461458.761 1
  32713541.281     -567848.483 2   -442479.660 1
  30361254.547       35693.698 3     27813.024 2
 91  7 25  0 34 45.0000000  0  5 03 20 23 16 17
  20873639.881       31577.123 5     24605.702 3
  22823544.295        3438.667 3      2678.307 2
  24609561.761        1909.067 2      1487.281 1
  22273720.427      -81716.386 3    -63675.134 2
  21269638.737           0.019 4         0.099 2
 91  7 25  0 35  0.0000000  0  4 03 20 16 17
  20871681.635       21285.045 4     16585.911 3
  22834148.845       59151.930 3     46091.173 2
  22280630.032      -45406.680 3    -35381.870 2
  21266072.104      -18727.260 4    -14592.572 2
 91  7 25  0 35 15.0000000  0  4 03 20 16 17
  20869770.767       11251.503 4      8767.577 3
  22844802.569      115117.076 3     89700.301 2
  22287597.817       -8794.475 3     -6852.887 2
  21262565.431      -37184.560 4    -28974.879 2
 91  7 25  0 35 30.0000000  0  4 03 20 16 17
  20867912.039        1472.774 4      1147.782 2
  22855495.574      171329.898 3    133502.441 1
  22294622.559       28116.126 3     21908.606 2
  21259099.224      -55375.784 4    -43149.842 2
 91  7 25  0 35 45.0000000  0  4 03 20 16 17
  20866097.705       -8052.039 4     -6274.137 2
  22866240.127      227788.924 3    177496.400 1
  22301706.056       65323.586 4     50901.418 2
  21255691.790      -73302.294 4    -57118.539 2
 91  7 25  0 36  0.0000000  0  4 03 20 16 17
  20864333.122      -17327.664 4    -13501.894 2
  22877032.668      284489.023 3    221678.243 1
  22308835.412      102822.978 3     80121.703 2
  21252328.418      -90968.523 4    -70884.415 2
 91  7 25  0 36 15.0000000  0  4 03 20 16 17
  20862614.118      -26358.495 4    -20538.913 2
  22887862.657      341425.158 3    266043.982 1
  22316029.526      140609.440 4    109565.691 2
  21249015.721     -108379.249 4    -84451.194 2
 91  7 25  0 36 30.0000000  0  5 03 20 23 16 17
  20860940.363      -35146.320 4    -27386.563 3
  22898743.025      398594.776 3    310591.679 1
  24543710.537       13171.15912     10263.035 1
  22323276.113      178680.433 4    139231.372 2
  21245750.977     -125536.615 4    -97820.566 2
 91  7 25  0 36 45.0000000  0  5 03 20 23 16 17
  20859315.189      -43697.016 4    -34049.442 2
  22909661.469      455991.563 3    355316.368 2
  24534444.262      -35466.777 2    -27636.439 1
  22330571.875      217029.651 3    169113.847 2
  21242529.998     -142446.653 4   -110997.196 2
 91  7 25  0 37  0.0000000  0  5 03 20 23 16 17
  20857730.186      -52013.297 4    -40529.666 2
  22920635.370      513612.383 3    400215.635 1
  24525231.036      -83916.675 2    -65389.406 1
  22337919.481      255653.980 3    199210.713 2
  21239363.290     -159112.193 4   -123983.327 2
 91  7 25  0 37 15.0000000  0  5 03 20 23 16 17
  20856192.560      -60099.149 4    -46830.322 2
  22931631.764      571452.571 3    445285.827 2
  24516041.193     -132182.720 2   -102999.158 1
  22345321.654      294549.047 3    229518.535 2
  21236237.362     -175537.542 4   -136782.277 2
 91  7 25  0 37 30.0000000  0  5 03 20 23 16 17
  20854696.588      -67959.990 4    -52955.647 2
  22942683.615      629506.026 3    490522.225 1
  24506891.538     -180270.200 2   -140470.097 1
  22352773.595      333708.988 3    260032.757 2
  21233156.387     -191728.342 4   -149398.462 2
 91  7 25  0 37 45.0000000  0  5 03 20 23 16 17
  20853245.306      -75597.983 4    -58907.331 3
  22953774.433      687770.505 3    535923.040 1
  24497775.143     -228181.053 2   -177803.119 1
  22360274.100      373131.126 3    290751.287 2
  21230115.896     -207686.404 4   -161833.308 2
 91  7 25  0 38  0.0000000  0  5 03 20 23 16 17
  20851832.972      -83017.303 4    -64688.619 2
  22964899.435      746240.689 3    581484.152 1
  24488689.634     -275919.570 2   -215001.720 1
  22367827.078      412810.196 3    321670.012 2
  21227123.672     -223416.827 4   -174090.757 2
 91  7 25  0 38 15.0000000  0  5 03 20 23 16 17
  20850461.123      -90224.232 4    -70304.406 3
  22976060.402      804910.030 3    627200.465 1
  24479644.593     -323491.874 2   -252070.842 1
  22375426.822      452739.805 4    352783.970 2
  21224173.713     -238926.050 4   -186175.852 2
 91  7 25  0 38 30.0000000  0  5 03 20 23 16 17
  20849130.352      -97221.802 4    -75757.059 2
  22987273.842      863774.496 3    673068.811 1
  24470621.435     -370901.156 2   -289012.911 1
  22383070.925      492916.270 3    384090.294 2
  21221260.032     -254217.340 4   -198091.115 2
 91  7 25  0 38 45.0000000  0  5 03 20 23 16 17
  20847834.046     -104014.142 4    -81049.786 3
  22998499.568      922829.838 3    719085.874 1
  24461620.176     -418151.030 2   -325830.748 1
  22390762.701      533335.547 4    415585.831 2
  21218396.713     -269294.549 4   -209839.564 2
 91  7 25  0 39  0.0000000  0  5 03 20 23 16 17
  20846583.615     -110605.748 4    -86186.097 2
  23009776.858      982071.043 3    765247.762 1
  24452668.075     -465245.850 2   -362527.814 1
  22398500.948      573992.432 4    447266.493 2
  21215567.876     -284162.616 4   -221425.059 2
 91  7 25  0 39 15.0000000  0  5 03 20 23 16 17
  20845369.150     -116996.619 4    -91166.000 2
  23021081.441     1041497.384 3    811553.921 1
  24443737.245     -512185.935 2   -399104.261 1
  22406282.349      614886.280 3    479131.787 2
  21212774.410     -298821.764 4   -232847.742 2
 91  7 25  0 39 30.0000000  0  5 03 20 23 16 17
  20844193.372     -123157.775 4    -95966.907 2
  23032434.570     1101137.428 3    858026.620 1
  24434834.615     -558942.077 2   -435537.405 1
  22414112.628      656045.593 3    511203.972 2
  21210031.603     -313243.143 4   -244085.159 2
 91  7 25  0 39 45.0000000  0  5 03 20 23 16 17
  20843058.654     -129127.061 4   -100618.300 2
  23043814.398     1160952.875 3    904635.979 1
  24425967.654     -605552.121 2   -471856.697 1
  22421992.082      697432.126 3    543453.203 2
  21207325.981     -327464.732 4   -255166.897 2
 91  7 25  0 40  0.0010000  0  5 03 20 23 16 17
  20841959.014     -134910.448 4   -105124.818 2
  23055231.398     1220941.312 3    951380.119 1
  24417119.280     -652024.787 2   -508068.946 1
  22429906.894      739042.348 4    575876.727 2
  21204655.421     -341493.552 4   -266098.416 2
 91  7 25  0 40 15.0010000  0  5 03 20 23 16 17
  20840892.055     -140510.621 4   -109488.595 2
  23066676.873     1281090.528 3    998249.547 1
  24408307.478     -698357.149 2   -544171.858 1
  22437864.891      780866.692 3    608467.102 2
  21202025.341     -355331.473 4   -276881.188 2
 91  7 25  0 40 30.0010000  0  5 03 20 23 16 17
  20839863.766     -145928.966 4   -113710.674 2
  23078151.421     1341403.007 3   1045246.205 1
  24399518.467     -744553.163 2   -580168.564 1
  22445865.746      822906.510 3    641225.383 2
  21199423.147     -368980.219 4   -287516.549 2
 91  7 25  0 40 45.0010000  0  5 03 20 23 16 17
  20838864.253     -151170.229 4   -117794.776 2
  23089664.359     1401873.646 3   1092366.126 1
  24390742.944     -790617.397 2   -616062.538 1
  22453906.492      865156.859 3    674147.716 2
  21196862.014     -382444.492 4   -298008.167 2
 91  7 25  0 41  0.0010000  0  5 03 20 23 16 17
  20837896.516     -156238.072 4   -121743.745 3
  23101201.867     1462498.210 3   1139605.956 1
  24382003.683     -836553.601 2   -651856.769 1
  22461986.798      907613.120 3    707230.498 2
  21194337.159     -395728.595 4   -308359.390 2
 91  7 25  0 41 15.0010000  0  5 03 20 23 16 17
  20836968.671     -161134.248 4   -125558.944 2
  23112762.166     1523274.317 3   1186963.866 1
  24373286.025     -882363.428 2   -687552.538 1
  22470103.976      950273.479 4    740472.310 2
  21191840.487     -408834.444 4   -318571.707 2
 91  7 25  0 41 30.0010000  0  5 03 20 23 16 17
  20836069.286     -165861.270 4   -129242.333 2
  23124357.242     1584198.863 3   1234437.481 1
  24364597.737     -928049.383 2   -723151.741 1
  22478260.417      993134.919 3    773870.825 1
  21189378.296     -421764.891 4   -328647.355 2
 91  7 25  0 41 45.0010000  0  5 03 20 23 16 17
  20835200.196     -170420.220 4   -132794.757 2
  23135977.202     1645270.144 3   1282025.404 1
  24355929.847     -973612.452 2   -758655.232 1
  22486453.155     1036195.832 3    807424.760 2
  21186952.977     -434521.264 4   -338587.361 2
 91  7 25  0 42  0.0010000  0  5 03 20 23 16 17
  20834362.568     -174812.940 4   -136217.649 2
  23147630.126     1706485.910 3   1329725.927 1
  24347273.928    -1019054.179 2   -794064.157 1
  22494686.953     1079454.012 3    841132.412 2
  21184559.139     -447105.258 4   -348393.052 2
 91  7 25  0 42 15.0010000  0  5 03 20 23 16 17
  20833560.626     -179040.955 4   -139512.201 2
  23159308.841     1767843.900 3   1377537.255 1
  24338652.508    -1064376.314 2   -829379.889 1
  22502954.936     1122907.036 3    874991.886 2
  21182194.966     -459518.874 4   -358065.965 2
 91  7 25  0 42 30.0010000  0  5 03 20 23 16 17
  20832779.362     -183134.105 4   -142701.660 2
  23171001.046     1829313.793 3   1425435.807 1
  24330046.061    -1109608.433 2   -864625.471 1
  22511252.881     1166525.015 3    908979.900 2
  21179861.383     -471792.058 4   -367629.460 2
 91  7 25  0 42 45.0010000  0  5 03 20 23 16 17
  20832032.580     -187068.535 5   -145767.446 2
  23182722.933     1890918.629 3   1473439.471 1
  24321457.308    -1154726.993 2   -899782.602 1
  22519591.904     1210331.155 3    943114.512 2
  21177555.075     -483901.285 4   -377065.201 2
 91  7 25  0 43  0.0010000  0  5 03 20 23 16 17
  20831315.184     -190844.112 5   -148709.444 2
  23194476.004     1952658.186 3   1521548.143 1
  24312891.328    -1199731.345 2   -934850.734 1
  22527964.815     1254324.775 3    977395.228 2
  21175281.766     -495846.512 4   -386373.144 2
 91  7 25  0 43 15.0010000  0  5 03 20 23 16 17
  20830625.359     -194461.702 4   -151528.340 2
  23206246.158     2014531.233 3   1569760.805 1
  24304355.048    -1244622.270 2   -969830.504 1
  22536370.096     1298504.687 3   1011821.123 2
  21173039.308     -507628.951 4   -395554.236 2
 91  7 25  0 43 30.0010000  0  5 03 20 23 16 17
  20829967.015     -197922.783 4   -154225.277 2
  23218046.274     2076535.525 3   1618075.721 1
  24295832.850    -1289401.592 2  -1004723.323 1
  22544811.360     1342868.904 3   1046390.632 2
  21170828.645     -519250.242 4   -404609.763 2
 91  7 25  0 43 45.0010000  0  5 03 20 23 16 17
  20829338.650     -201226.501 4   -156799.595 2
  23229871.903     2138671.424 3   1666493.209 1
  24287334.036    -1334067.941 2  -1039528.509 1
  22553289.775     1387417.909 3   1081104.113 2
  21168644.052     -530709.639 4   -413539.135 2
 91  7 25  0 44  0.0010000  0  5 03 20 23 16 17
  20828740.265     -204375.470 4   -159253.333 2
  23241722.695     2200935.612 3   1715010.701 1
  24278850.193    -1378623.955 2  -1074247.401 1
  22561800.298     1432148.516 3   1115959.094 2
  21166500.834     -542009.952 4   -422344.553 2
 91  7 25  0 44 15.0010000  0  5 03 20 23 16 17
  20828169.451     -207368.745 4   -161585.746 2
  23253595.073     2263328.275 3   1763628.292 1
  24270393.661    -1423068.915 2  -1108879.674 1
  22570346.769     1477060.842 3   1150955.698 2
  21164379.201     -553150.697 4   -431025.634 2
 91  7 25  0 44 30.0010000  0  5 03 20 23 16 17
  20827628.634     -210207.183 4   -163797.503 2
  23265488.740     2325848.072 3   1812344.945 1
  24261960.198    -1467403.327 2  -1143425.753 1
  22578930.723     1522153.891 3   1186093.122 2
  21162285.454     -564132.925 4   -439583.185 2
 91  7 25  0 44 45.0010000  0  5 03 20 23 16 17
  20827119.890     -212892.509 4   -165889.968 2
  23277412.090     2388493.058 3   1861159.130 1
  24253534.831    -1511628.750 2  -1177886.964 1
  22587543.767     1567425.303 3   1221369.502 2
  21160226.189     -574958.252 4   -448018.488 2
 91  7 25  0 45  0.0010000  0  5 03 20 23 16 17
  20826637.810     -215424.434 5   -167862.885 2
  23289351.319     2451262.777 3   1910070.528 1
  24245145.133    -1555745.036 2  -1212263.148 1
  22596191.275     1612874.972 3   1256784.811 2
  21158198.980     -585626.801 4   -456331.619 2
 91  7 25  0 45 15.0010000  0  5 03 20 23 16 17
  20826183.040     -217803.782 5   -169716.920 2
  23301321.139     2514155.658 3   1959077.877 1
  24236769.534    -1599752.942 2  -1246554.851 1
  22604875.672     1658501.386 3   1292337.822 2
  21156197.562     -596139.509 4   -464523.323 2
 91  7 25  0 45 30.0010000  0  5 03 20 23 16 17
  20825760.623     -220030.488 5   -171452.001 2
  23313316.733     2577171.331 3   2008180.896 1
  24228417.913    -1643652.297 2  -1280761.997 1
  22613590.939     1704304.394 3   1328028.444 2
  21154226.141     -606496.620 4   -472593.777 2
 91  7 25  0 45 45.0010000  0  5 03 20 23 16 17
  20825365.201     -222105.869 5   -173069.183 2
  23325330.911     2640307.856 3   2057378.086 1
  24220082.188    -1687444.156 2  -1314885.332 1
  22622341.874     1750282.100 3   1363855.193 2
  21152282.885     -616699.622 4   -480544.141 2
 91  7 25  0 46  0.0010000  0  5 03 20 23 16 17
  20824999.444     -224029.579 5   -174568.174 2
  23337372.067     2703564.891 3   2106669.180 1
  24211771.347    -1731128.459 2  -1348924.910 1
  22631124.901     1796434.068 3   1399817.755 2
  21150374.703     -626748.710 4   -488374.589 2
 91  7 25  0 46 15.0010000  0  5 03 20 23 16 17
  20824662.480     -225804.492 5   -175951.212 2
  23349428.824     2766939.257 3   2156051.719 1
  24203476.386    -1774707.757 2  -1382882.634 1
  22639937.295     1842757.219 3   1435913.677 2
  21148487.201     -636646.463 4   -496087.093 2
 91  7 25  0 46 30.0010000  0  5 03 20 23 16 17
  20824352.198     -227429.828 4   -177217.699 2
  23361509.558     2830431.037 3   2205525.764 1
  24195195.822    -1818181.372 2  -1416758.049 1
  22648787.173     1889251.539 3   1472142.995 2
  21146631.789     -646392.606 4   -503681.467 2
 91  7 25  0 46 45.0010000  0  5 03 20 23 16 17
  20824070.988     -228905.591 5   -178367.628 2
  23373610.690     2894039.688 3   2255090.870 1
  24186957.225    -1861549.025 2  -1450550.886 1
  22657664.029     1935916.529 3   1508505.306 2
  21144808.154     -655987.299 4   -511157.843 2
 91  7 25  0 47  0.0010000  0  5 03 20 23 16 17
  20823815.569     -230233.259 4   -179402.172 2
  23385741.785     2957763.254 3   2304745.542 1
  24178716.516    -1904812.333 2  -1484262.424 1
  22666576.850     1982750.458 3   1544999.235 2
  21143012.701     -665432.101 4   -518517.410 2
 91  7 25  0 47 15.0010000  0  5 03 20 23 16 17
  20823595.225     -231411.160 4   -180320.012 2
  23397883.088     3021602.739 3   2354490.507 1
  24170505.508    -1947969.519 2  -1517891.239 1
  22675522.966     2029754.292 3   1581625.575 2
  21141242.725     -674725.599 4   -525759.074 2
 91  7 25  0 47 30.0010000  0  5 03 20 23 16 17
  20823400.952     -232440.482 4   -181122.068 2
  23410056.761     3085556.125 2   2404324.237 1
  24162314.882    -1991021.877 2  -1551438.349 1
  22684498.747     2076926.338 3   1618382.990 1
  21139503.933     -683869.528 4   -532884.198 2
 91  7 25  0 47 45.0010000  0  5 03 20 23 16 17
  20823228.282     -233323.068 4   -181809.795 2
  23422244.814     3149621.252 2   2454245.013 1
  24154136.838    -2033971.022 2  -1584905.040 1
  22693508.417     2124264.245 3   1655269.637 2
  21137793.306     -692865.797 4   -539894.264 2
 91  7 25  0 48  0.0010000  0  5 03 20 23 16 17
  20823089.780     -234059.736 4   -182383.811 2
  23434461.362     3213796.841 2   2504251.874 1
  24145979.786    -2076817.385 2  -1618291.655 1
  22702547.752     2171766.915 3   1692284.679 2
  21136106.376     -701715.225 4   -546789.898 2
 91  7 25  0 48 15.0010000  0  5 03 20 23 16 17
  20822980.646     -234650.209 5   -182843.919 2
  23446690.492     3278082.360 2   2554344.373 1
  24137853.603    -2119561.021 2  -1651598.241 1
  22711618.270     2219433.776 3   1729427.684 2
  21134449.129     -710417.880 4   -553571.166 2
 91  7 25  0 48 30.0010000  0  5 03 20 23 16 17
  20822892.208     -235095.732 4   -183191.073 2
  23458944.209     3342476.140 3   2604521.242 1
  24129739.427    -2162202.959 2  -1684825.569 1
  22720716.081     2267263.218 3   1766697.350 2
  21132822.454     -718975.218 4   -560239.208 2
 91  7 25  0 48 45.0010000  0  5 03 20 23 16 17
  20822833.750     -235396.625 4   -183425.533 2
  23471218.919     3406977.236 3   2654781.750 1
  24121643.241    -2204743.298 2  -1717973.717 1
  22729854.655     2315254.522 3   1804093.123 1
  21131219.460     -727387.641 4   -566794.322 2
 91  7 25  0 49  0.0010000  0  5 03 20 23 16 17
  20822805.865     -235555.105 5   -183549.023 2
  23483513.994     3471582.848 3   2705123.690 1
  24113564.733    -2247184.261 2  -1751044.467 1
  22739013.001     2363404.979 3   1841612.933 2
  21129647.649     -735657.618 4   -573238.442 2
 91  7 25  0 49 15.0010000  0  5 03 20 23 16 17
  20822802.566     -235572.291 5   -183562.408 2
  23495830.375     3536291.313 3   2755545.781 1
  24105509.904    -2289527.210 2  -1784038.822 1
  22748208.236     2411712.682 3   1879255.284 1
  21128098.017     -743786.511 4   -579572.624 2
 91  7 25  0 49 30.0010000  0  5 03 20 23 16 17
  20822828.061     -235446.229 5   -183464.165 2
  23508159.634     3601104.030 3   2806049.106 1
  24097465.266    -2331769.946 2  -1816955.095 1
  22757429.262     2460179.192 3   1917021.385 1
  21126581.070     -751772.654 4   -585795.562 2
 91  7 25  0 49 45.0010000  0  5 03 20 23 16 17
  20822875.718     -235179.863 5   -183256.610 2
  23520517.983     3666017.567 3   2856631.032 1
  24089447.328    -2373915.376 2  -1849795.514 1
  22766684.457     2508801.276 3   1954908.688 1
  21125089.600     -759619.287 4   -591909.807 3
 91  7 25  0 50  0.0010000  0  5 03 20 23 16 17
  20822955.169     -234772.838 4   -182939.445 2
  23532886.820     3731031.322 2   2907290.986 1
  24081450.067    -2415963.098 2  -1882559.887 1
  22775962.127     2557578.286 3   1992916.719 2
  21123625.125     -767326.419 4   -597915.348 2
 91  7 25  0 50 15.0010000  0  5 03 20 23 16 17
  20823057.392     -234226.070 4   -182513.389 2
  23545276.945     3796144.151 2   2958028.190 1
  24073471.985    -2457914.035 2  -1915248.756 1
  22785276.390     2606509.320 3   2031044.769 1
  21122178.013     -774894.933 4   -603812.873 2
 91  7 25  0 50 30.0010000  0  5 03 20 23 16 17
  20823188.408     -233541.886 4   -181980.247 2
  23557684.155     3861353.108 2   3008840.244 1
  24065500.498    -2499770.073 2  -1947863.681 1
  22794616.409     2655591.498 3   2069290.582 1
  21120766.902     -782327.113 4   -609604.171 2
 91  7 25  0 50 45.0010000  0  5 03 20 23 16 17
  20823343.994     -232721.395 5   -181340.897 2
  23570118.639     3926656.628 2   3059726.019 1
  24057550.005    -2541532.248 2  -1980405.483 1
  22803985.536     2704823.333 3   2107653.034 2
  21119381.860     -789624.385 4   -615290.341 2
 91  7 25  0 51  0.0010000  0  5 03 20 23 16 17
  20823526.873     -231763.609 4   -180594.563 2
  23582558.533     3992054.571 3   3110685.342 1
  24049629.490    -2583199.993 2  -2012873.704 1
  22813379.826     2754204.696 3   2146131.993 1
  21118015.404     -796786.427 4   -620871.140 2
 91  7 25  0 51 15.0010000  0  5 03 20 23 16 17
  20823735.525     -230671.456 4   -179743.539 2
  23595023.014     4057543.742 3   3161715.759 1
  24041718.556    -2624775.843 2  -2045270.341 1
  22822805.892     2803732.105 3   2184724.755 1
  21116678.333     -803816.310 4   -626348.955 2
 91  7 25  0 51 30.0010000  0  5 03 20 23 16 17
  20823966.060     -229445.362 4   -178788.129 2
  23607501.263     4123123.301 3   3212816.605 1
  24033823.834    -2666260.294 2  -2077595.703 1
  22832256.861     2853404.905 3   2223430.808 1
  21115366.740     -810714.469 4   -631724.121 2
 91  7 25  0 51 45.0010000  0  5 03 20 23 16 17
  20824226.888     -228086.430 4   -177729.220 2
  23619994.520     4188791.531 3   3263986.570 1
  24025938.988    -2707654.473 2  -2109850.731 1
  22841739.291     2903221.943 3   2262249.264 1
  21114078.233     -817482.245 4   -636997.698 3
 91  7 25  0 52  0.0010000  0  5 03 20 23 16 17
  20824511.396     -226596.354 4   -176568.120 2
  23632510.549     4254546.160 3   3315223.855 1
  24018082.935    -2748959.870 2  -2142036.614 1
  22851245.420     2953180.594 3   2301178.040 2
  21112811.609     -824121.532 4   -642171.157 3
 91  7 25  0 52 15.0010000  0  5 03 20 23 16 17
  20824818.381     -224974.859 4   -175304.609 2
  23645043.069     4320386.660 2   3366528.018 1
  24010238.852    -2790175.999 2  -2174152.891 1
  22860776.118     3003280.285 3   2340216.724 1
  21111577.355     -830632.294 4   -647244.463 2
 91  7 25  0 52 30.0010000  0  5 03 20 23 16 17
  20825149.045     -223225.017 4   -173941.104 2
  23657586.390     4386309.720 2   3417896.524 1
  24002407.980    -2831306.000 2  -2206202.114 1
  22870338.296     3053517.641 3   2379362.684 2
  21110362.907     -837017.806 4   -652220.172 2
 91  7 25  0 52 45.0010000  0  5 03 20 23 16 17
  20825508.205     -221347.768 4   -172478.303 2
  23670147.406     4452313.675 2   3469328.130 1
  23994601.381    -2872350.695 2  -2238184.850 1
  22879922.654     3103891.368 3   2418614.928 2
  21109167.934     -843279.629 4   -657099.494 2
 91  7 25  0 53  0.0010000  0  5 03 20 23 16 17
  20825892.232     -219344.708 4   -170917.464 2
  23682718.595     4518396.383 2   3520821.001 1
  23986805.583    -2913311.803 2  -2270102.454 1
  22889536.101     3154399.408 3   2457971.815 1
  21107997.530     -849419.505 4   -661883.795 3
 91  7 25  0 53 15.0010000  0  5 03 20 23 16 17
  20826293.360     -217215.820 4   -169258.594 2
  23695304.774     4584557.143 2   3572374.815 1
  23979023.868    -2954189.298 2  -2301954.910 1
  22899171.727     3205040.914 3   2497432.706 1
  21106856.530     -855437.405 4   -666573.054 2
 91  7 25  0 53 30.0010000  0  5 03 20 23 16 17
  20826724.765     -214962.845 4   -167503.023 2
  23707915.854     4650794.066 3   3623987.885 1
  23971266.129    -2994984.440 2  -2333743.194 1
  22908835.850     3255814.156 3   2536996.238 1
  21105731.113     -861334.985 4   -671168.560 2
 91  7 25  0 53 45.0010000  0  5 03 20 23 16 17
  20827179.849     -212586.805 4   -165651.556 2
  23720530.826     4717105.218 3   3675658.779 1
  23963514.411    -3035698.544 2  -2365468.297 1
  22918523.635     3306717.188 3   2576660.922 1
  21104630.266     -867113.901 4   -675671.597 2
 91  7 25  0 54  0.0010000  0  5 03 20 23 16 17
  20827651.424     -210089.899 4   -163705.895 2
  23733165.272     4783487.688 3   3727385.299 1
  23955787.856    -3076333.583 2  -2397131.815 1
  22928230.615     3357747.576 3   2616424.819 2
  21103556.415     -872776.650 4   -680084.114 2
 91  7 25  0 54 15.0010000  0  5 03 20 23 16 17
  20828147.865     -207474.583 5   -161667.987 2
  23745811.113     4849938.701 3   3779165.236 1
  23948066.100    -3116891.942 2  -2428735.610 1
  22937964.277     3408902.035 3   2656285.415 1
  21102499.944     -878325.393 4   -684407.806 2
 91  7 25  0 54 30.0010000  0  5 03 20 23 16 17
  20828670.708     -204743.418 5   -159539.804 2
  23758465.959     4916455.197 3   3830996.143 1
  23940357.832    -3157376.282 2  -2460281.697 1
  22947721.322     3460177.714 3   2696240.451 1
  21101462.668     -883763.281 4   -688645.109 2
 91  7 25  0 54 45.0010000  0  5 03 20 23 16 17
  20829210.635     -201895.372 5   -157320.537 2
  23771143.280     4983037.477 2   3882878.332 1
  23932667.556    -3197785.502 2  -2491769.280 1
  22957504.158     3511574.778 3   2736290.093 1
  21100449.369     -889089.566 4   -692795.448 2
 91  7 25  0 55  0.0010000  0  5 03 20 23 16 17
  20829773.649     -198930.092 5   -155009.921 2
  23783820.305     5049685.412 2   3934811.660 1
  23924994.975    -3238119.195 2  -2523198.033 1
  22967308.860     3563093.398 3   2776434.449 1
  21099463.048     -894304.057 4   -696858.678 2
 91  7 25  0 55 15.0010000  0  5 03 20 23 16 17
  20830360.343     -195848.847 5   -152608.949 2
  23796516.822     5116396.920 2   3986794.551 1
  23917330.473    -3278378.629 2  -2554568.859 1
  22977134.257     3614731.688 3   2816672.044 1
  21098486.324     -899408.311 4   -700836.004 3
 91  7 25  0 55 30.0010000  0  5 03 20 23 16 17
  20830972.811     -192651.938 5   -150117.850 2
  23809222.011     5183171.454 2   4038826.546 1
  23909681.868    -3318563.837 2  -2585881.933 1
  22986986.039     3666489.001 3   2857002.375 1
  21097538.376     -904402.535 4   -704727.598 2
 91  7 25  0 55 45.0010000  0  5 03 20 23 16 17
  20831600.286     -189341.655 5   -147538.398 2
  23821943.709     5250006.037 2   4090905.345 1
  23902057.554    -3358677.063 2  -2617138.814 1
  22996853.701     3718362.468 3   2897423.229 2
  21096608.715     -909289.573 4   -708535.659 2
 91  7 25  0 56  0.0010000  0  5 03 20 23 16 17
  20832252.627     -185919.031 4   -144871.416 2
  23834666.907     5316898.706 2   4143029.400 1
  23894432.332    -3398719.326 2  -2648340.437 1
  23006746.858     3770350.214 3   2937933.145 1
  21095697.954     -914070.610 4   -712261.134 2
 91  7 25  0 56 15.0010000  0  5 03 20 23 16 17
  20832922.960     -182384.464 4   -142117.202 2
  23847414.675     5383848.925 3   4195198.353 1
  23886819.395    -3438690.853 2  -2679486.959 1
  23016662.804     3822451.734 3   2978531.689 1
  21094806.370     -918746.053 4   -715904.324 2
 91  7 25  0 56 30.0010000  0  5 03 20 23 16 17
  20833616.990     -178738.594 4   -139276.270 2
  23860162.757     5450855.306 3   4247410.983 1
  23879237.642    -3478592.398 2  -2710578.935 1
  23026598.819     3874665.411 3   3019217.638 1
  21093937.872     -923317.027 4   -719466.111 3
 91  7 25  0 56 45.0010000  0  5 03 20 23 16 17
  20834331.088     -174981.669 4   -136348.784 2
  23872924.310     5517917.090 2   4299666.862 1
  23871651.108    -3518424.149 2  -2741616.510 1
  23036554.918     3926990.721 3   3059990.566 1
  21093085.255     -927783.852 4   -722946.743 3
 91  7 25  0 57  0.0010000  0  5 03 20 23 16 17
  20835067.975     -171115.493 4   -133336.167 2
  23885700.575     5585031.921 2   4351964.024 1
  23864084.344    -3558187.895 2  -2772601.176 1
  23046533.215     3979425.213 3   3100848.584 1
  21092254.240     -932148.777 4   -726347.974 2
 91  7 25  0 57 15.0010000  0  5 03 20 23 16 17
  20835822.558     -167139.602 4   -130238.067 2
  23898479.823     5652199.560 2   4404302.300 1
  23856532.867    -3597883.144 2  -2803532.464 1
  23056529.205     4031969.034 3   3141791.801 1
  21091449.593     -936411.395 4   -729669.485 2
 91  7 25  0 57 30.0010000  0  5 03 20 23 16 17
  20836601.727     -163056.533 4   -127056.449 2
  23911269.873     5719417.032 2   4456679.419 1
  23848998.177    -3637512.070 2  -2834412.026 1
  23066552.453     4084618.799 3   3182817.543 1
  21090650.042     -940574.519 4   -732913.470 3
 91  7 25  0 57 45.0010000  0  5 03 20 23 16 17
  20837396.777     -158870.613 4   -123794.690 2
  23924065.908     5786679.445 2   4509091.563 1
  23841464.098    -3677079.091 2  -2865243.342 1
  23076591.913     4137369.998 3   3223922.333 1
  21089879.580     -944642.792 4   -736083.546 2
 91  7 25  0 58  0.0010000  0  5 03 20 23 16 17
  20838214.302     -154577.838 5   -120449.669 2
  23936877.247     5853990.216 2   4561541.361 1
  23833943.805    -3716580.192 2  -2896023.300 1
  23086647.548     4190225.961 3   3265108.761 1
  21089125.905     -948612.493 4   -739176.812 2
 91  7 25  0 58 15.0010000  0  5 03 20 23 16 17
  20839054.024     -150177.818 5   -117021.081 2
  23949693.978     5921349.247 2   4614028.792 1
  23826442.392    -3756014.784 2  -2926751.442 1
  23096726.271     4243186.549 3   3306376.702 1
  21088386.312     -952483.382 4   -742193.071 2
 91  7 25  0 58 30.0010000  0  5 03 20 23 16 17
  20839910.830     -145668.918 5   -113507.638 2
  23962522.087     5988757.190 2   4666554.332 1
  23818950.892    -3795381.597 2  -2957426.766 1
  23106822.077     4296252.732 3   3347726.947 1
  21087669.213     -956254.211 4   -745131.366 3
 91  7 25  0 58 45.0010000  0  5 03 20 23 16 17
  20840787.424     -141055.200 4   -109912.535 2
  23975363.405     6056210.018 3   4719114.902 1
  23811468.971    -3834684.055 2  -2988051.978 1
  23116941.266     4349420.643 3   3389156.444 1
  21086970.995     -959928.577 4   -747994.500 3
 91  7 25  0 59  0.0010000  0  5 03 20 23 16 17
  20841687.698     -136334.732 4   -106234.238 2
  23988207.411     6123708.887 3   4771711.319 1
  23804002.930    -3873920.387 2  -3018625.643 1
  23127076.963     4402691.210 3   3430665.935 1
  21086290.157     -963505.355 4   -750781.594 2
 91  7 25  0 59 15.0010000  0  5 03 20 23 16 17
  20842600.275     -131511.122 4   -102475.583 2
  24001053.215     6191249.481 3   4824340.243 1
  23796550.693    -3913094.203 2  -3049150.553 1
  23137239.028     4456060.256 3   3472252.166 1
  21085628.218     -966988.382 4   -753495.631 2
 91  7 25  0 59 30.0010000  0  5 03 20 23 16 17
  20843542.517     -126588.125 4    -98639.468 2
  24013913.414     6258827.511 2   4876998.344 1
  23789103.551    -3952209.391 2  -3079629.844 1
  23147409.486     4509523.513 3   3513911.793 1
  21084978.878     -970381.262 4   -756139.417 2
 91  7 25  0 59 45.0010000  0  5 03 20 23 16 17
  20844496.747     -121563.780 4    -94724.399 2
  24026782.008     6326444.468 2   4929686.815 1
  23781679.181    -3991263.542 2  -3110061.547 1
  23157602.734     4563082.771 3   3555646.240 1
  21084353.201     -973682.417 4   -758711.734 2
 91  7 25  1  0  0.0010000  0  5 03 20 23 16 17
  20845471.377     -116434.371 4    -90727.443 2
  24039661.385     6394103.354 2   4982407.915 1
  23774253.921    -4030253.076 2  -3140442.895 1
  23167814.549     4616741.093 3   3597457.857 1
  21083742.530     -976888.518 4   -761209.989 2
 91  7 25  1  0 15.0010000  0  5 03 20 23 16 17
  20846472.687     -111197.801 4    -86646.998 2
  24052539.576     6461805.650 2   5035162.852 1
  23766846.950    -4069175.837 2  -3170772.231 1
  23178040.778     4670499.656 3   3639347.616 2
  21083150.130     -979997.611 4   -763632.645 2
 91  7 25  1  0 30.0010000  0  5 03 20 23 16 17
  20847483.893     -105859.728 4    -82487.466 2
  24065427.958     6529545.365 2   5087946.921 1
  23759454.968    -4108037.413 2  -3201053.858 1
  23188286.481     4724352.406 3   3681310.743 1
  21082579.037     -983015.577 4   -765984.302 3
 91  7 25  1  0 45.0010000  0  5 03 20 23 16 17
  20848522.669     -100425.285 4    -78252.833 2
  24078330.125     6597316.743 2   5140755.648 1
  23752068.378    -4146842.914 2  -3231291.811 1
  23198555.568     4778293.640 3   3723342.840 1
  21082019.618     -985948.210 4   -768269.452 3
 91  7 25  1  1  0.0010000  0  5 03 20 23 16 17
  20849568.635      -94914.551 4    -73958.751 2
  24091223.899     6665099.087 2   5193572.928 1
  23744692.589    -4185612.363 2  -3261501.678 1
  23208828.267     4832303.007 3   3765427.994 1
  21081475.206     -988815.519 4   -770503.707 3
 91  7 25  1  1 15.0010000  0  5 03 20 23 16 17
  20850635.611      -89315.998 4    -69596.239 2
  24104129.958     6732903.467 2   5246407.368 1
  23737322.787    -4224334.100 2  -3291674.342 1
  23219123.738     4886391.211 3   3807574.602 1
  21080940.374     -991605.814 4   -772677.958 3
 91  7 25  1  1 30.0010000  0  5 03 20 23 16 17
  20851719.357      -83616.899 4    -65155.393 2
  24117039.315     6800742.036 2   5299268.491 1
  23729960.487    -4262995.127 2  -3321799.721 1
  23229434.496     4940570.570 3   3849792.271 1
  21080428.629     -994306.742 4   -774782.567 2
 91  7 25  1  1 45.0010000  0  5 03 20 23 16 17
  20852821.687      -77817.507 4    -60636.352 2
  24129950.487     6868613.762 2   5352155.414 1
  23722616.179    -4301595.966 2  -3351878.190 1
  23239762.652     4994840.562 3   3892080.526 1
  21079929.762     -996919.047 4   -776818.116 3
 91  7 25  1  2  0.0010000  0  5 03 20 23 16 17
  20853945.307      -71916.058 4    -56037.837 2
  24142876.334     6936519.845 2   5405069.099 1
  23715285.657    -4340134.782 2  -3381908.330 1
  23250106.984     5049202.361 3   3934440.327 1
  21079451.592     -999440.982 4   -778783.243 3
 91  7 25  1  2 15.0010000  0  5 03 20 23 16 17
  20855086.621      -65914.093 4    -51360.981 2
  24155806.091     7004458.280 2   5458008.014 1
  23707962.324    -4378613.071 2  -3411891.363 1
  23260470.214     5103653.828 3   3976869.988 1
  21078988.114    -1001874.422 4   -780679.423 3
 91  7 25  1  2 30.0010000  0  5 03 20 23 16 17
  20856249.521      -59812.826 4    -46606.744 2
  24168735.533     7072427.380 2   5510970.835 1
  23700648.589    -4417031.706 2  -3441827.836 1
  23270846.620     5158193.346 3   4019368.271 1
  21078542.034    -1004220.763 4   -782507.734 2
 91  7 25  1  2 45.0010000  0  5 03 20 23 16 17
  20857427.411      -53615.209 4    -41777.432 2
  24181676.981     7140423.627 2   5563954.776 1
  23693358.237    -4455393.960 2  -3471720.404 1
  23281239.236     5212817.238 3   4061932.306 2
  21078110.333    -1006483.446 4   -784270.834 3
 91  7 25  1  3  0.0010000  0  5 03 20 23 16 17
  20858626.572      -47320.660 4    -36872.577 2
  24194628.306     7208447.226 2   5616960.036 1
  23686058.287    -4493698.903 2  -3501568.284 1
  23291650.124     5267525.576 3   4104562.137 1
  21077696.309    -1008661.731 4   -785968.186 3
 91  7 25  1  3 15.0010000  0  5 03 20 23 16 17
  20859842.224      -40927.202 4    -31890.659 2
  24207570.940     7276499.285 2   5669987.443 1
  23678781.424    -4531944.623 2  -3531370.038 1
  23302078.409     5322319.528 3   4147258.675 1
  21077299.683    -1010753.897 4   -787598.436 2
 91  7 25  1  3 30.0010000  0  5 03 20 23 16 17
  20861077.682      -34435.944 4    -26832.537 2
  24220520.485     7344578.100 2   5723035.831 1
  23671517.457    -4570132.082 2  -3561126.423 1
  23312522.870     5377198.001 3   4190021.055 1
  21076915.656    -1012761.488 4   -789162.779 3
 91  7 25  1  3 45.0010000  0  5 03 20 23 16 17
  20862332.615      -27833.527 4    -21687.786 2
  24233478.720     7412696.585 2   5776115.015 1
  23664268.165    -4608248.071 2  -3590827.069 1
  23322988.935     5432173.758 3   4232859.275 1
  21076552.011    -1014671.226 4   -790650.876 2
 91  7 25  1  4  0.0010000  0  5 03 20 23 16 17
  20863612.728      -21109.029 4    -16447.917 2
  24246458.820     7480864.948 2   5829233.146 1
  23657031.176    -4646281.655 2  -3620463.513 1
  23333463.986     5487256.965 3   4275781.231 1
  21076210.248    -1016472.748 4   -792054.636 2
 91  7 25  1  4 15.0010000  0  5 03 20 23 16 17
  20864906.626      -14313.401 4    -11152.621 2
  24259436.547     7549031.871 2   5882350.076 1
  23649793.890    -4684283.540 2  -3650075.301 1
  23343955.214     5542396.250 3   4318746.850 1
  21075875.972    -1018216.928 4   -793413.726 2
 91  7 25  1  4 30.0010000  0  5 03 20 23 16 17
  20866214.014       -7433.946 4     -5792.007 2
  24272404.956     7617209.491 2   5935475.318 1
  23642569.186    -4722241.017 2  -3679652.433 1
  23354462.636     5597603.772 3   4361765.683 1
  21075559.094    -1019891.350 4   -794718.459 3
 91  7 25  1  4 45.0010000  0  5 03 20 23 16 17
  20867543.599        -457.122 4      -355.512 2
  24285385.684     7685410.737 2   5988619.091 1
  23635356.191    -4760140.399 2  -3709184.306 1
  23364987.752     5652892.888 3   4404848.071 1
  21075254.500    -1021482.502 4   -795958.299 3
 91  7 25  1  5  0.0010000  0  5 03 20 23 16 17
  20868890.267        6618.803 4      5158.207 2
  24298369.082     7753636.606 2   6041781.887 1
  23628162.060    -4797980.127 2  -3738669.687 1
  23375526.061     5708264.270 3   4447994.532 1
  21074970.899    -1022989.164 4   -797132.304 2
 91  7 25  1  5 15.0010000  0  5 03 20 23 16 17
  20870255.816       13790.742 4     10746.733 2
  24311359.094     7821883.693 2   6094961.342 1
  23620966.445    -4835762.930 2  -3768110.747 1
  23386072.467     5763714.666 3   4491202.597 1
  21074697.192    -1024414.423 4   -798242.884 3
 91  7 25  1  5 30.0010000  0  5 03 20 23 16 17
  20871636.058       21057.709 4     16409.310 2
  24324349.699     7890150.391 2   6148155.982 1
  23613796.307    -4873489.823 2  -3797508.256 1
  23396638.347     5819242.468 3   4534470.997 1
  21074442.664    -1025759.570 4   -799291.038 2
 91  7 25  1  5 45.0010000  0  5 03 20 23 16 17
  20873040.888       28420.812 4     22146.798 2
  24337346.011     7958437.286 2   6201366.415 1
  23606626.467    -4911159.753 2  -3826861.347 1
  23407219.513     5874848.213 3   4577800.100 2
  21074203.124    -1027023.626 4   -800276.005 3
 91  7 25  1  6  0.0010000  0  5 03 20 23 16 17
  20874456.816       35879.475 4     27958.748 2
  24350337.506     8026743.230 2   6254591.653 1
  23599465.037    -4948773.148 2  -3856170.391 1
  23417815.687     5930531.073 3   4621189.295 1
  21073977.685    -1028207.443 4   -801198.440 3
 91  7 25  1  6 15.0010000  0  5 03 20 23 16 17
  20875895.814       43432.519 4     33844.237 2
  24363338.616     8095065.986 2   6307830.032 1
  23592318.876    -4986331.542 2  -3885436.595 1
  23428425.942     5986288.918 3   4664636.937 1
  21073768.125    -1029313.051 4   -802059.939 3
 91  7 25  1  6 30.0010000  0  5 03 20 23 16 17
  20877351.616       51084.276 4     39806.647 2
  24376355.903     8163410.143 2   6361085.074 1
  23585180.515    -5023829.859 2  -3914655.955 1
  23439049.687     6042126.062 3   4708146.346 2
  21073570.571    -1030335.556 4   -802856.679 3
 91  7 25  1  6 45.0010000  0  5 03 20 23 16 17
  20878826.595       58832.640 4     45844.350 2
  24389359.700     8231772.713 2   6414354.488 1
  23578052.660    -5061270.525 2  -3943830.403 1
  23449692.017     6098039.308 3   4751715.087 2
  21073392.492    -1031277.570 4   -803590.709 3
 91  7 25  1  7  0.0010000  0  5 03 20 23 16 17
  20880318.362       66677.559 4     51957.275 2
  24402365.295     8300152.828 2   6467637.560 1
  23570944.279    -5098653.694 2  -3972960.057 1
  23460347.242     6154027.882 3   4795342.484 1
  21073229.699    -1032139.662 4   -804262.453 3
 91  7 25  1  7 15.0010000  0  5 03 20 23 16 17
  20881830.511       74618.725 4     58145.192 2
  24415387.677     8368550.038 2   6520933.946
  23563839.789    -5135978.985 2  -4002044.623 1
  23471015.659     6210091.854 3   4839028.640 1
  21073076.207    -1032921.949 4   -804872.009 3
 91  7 25  1  7 30.0010000  0  5 03 20 23 16 17
  20883359.150       82657.283 4     64409.006 2
  24428410.356     8436964.735 2   6574243.910 1
  23556747.305    -5173245.645 2  -4031083.473 1
  23481699.363     6266231.529 3   4882773.822 1
  21072944.301    -1033623.791 4   -805418.888 3
 91  7 25  1  7 45.0010000  0  5 03 20 23 16 17
  20884911.469       90817.626 4     70767.733 2
  24441436.647     8505420.760 2   6627586.271 1
  23549670.998    -5210429.060 2  -4060057.475 1
  23492405.840     6322470.729 3   4926596.531 1
  21072833.684    -1034220.699 4   -805883.995 3
 91  7 25  1  8  0.0010000  0  5 03 20 23 16 17
  20886485.984       99083.237 4     77208.463 2
  24454464.124     8573901.009 2   6680947.335 1
  23542608.493    -5247545.931 2  -4088979.579 1
  23503121.320     6378792.377 3   4970483.514 1
  21072735.352    -1034729.377 4   -806280.356 2
 91  7 25  1  8 15.0010000  0  5 03 20 23 16 17
  20888075.786      107443.742 4     83723.152 2
  24467497.901     8642394.646 2   6734318.848 1
  23535552.881    -5284606.537 2  -4117857.882 1
  23513849.993     6435185.852 3   5014426.440 1
  21072654.103    -1035160.478 4   -806616.260 3
 91  7 25  1  8 30.0010000  0  5 03 20 23 16 17
  20889684.173      115898.701 4     90311.434 2
  24480532.586     8710900.624 2   6787699.967 1
  23528515.854    -5321611.174 3  -4146692.590 1
  23524595.768     6491650.016 3   5058424.448 1
  21072587.548    -1035515.079 4   -806892.558 3
 91  7 25  1  8 45.0010000  0  5 03 20 23 16 17
  20891311.144      124448.703 4     96973.782 2
  24493572.052     8779418.895 2   6841090.676 1
  23521485.109    -5358559.235 3  -4175483.201 1
  23535352.012     6548184.748 2   5102477.398 1
  21072534.482    -1035792.699 4   -807108.871 3
 91  7 25  1  9  0.0010000  0  5 03 20 23 16 17
  20892960.608      133096.257 5    103712.126 2
  24506614.519     8847951.553 2   6894492.589 1
  23514464.276    -5395448.076 3  -4204227.674 1
  23546123.264     6604791.990 2   5146586.894 1
  21072496.406    -1035990.702 4   -807263.150 3
 91  7 25  1  9 15.0010000  0  5 03 20 23 16 17
  20894623.859      141842.921 4    110527.707 2
  24519658.801     8916499.765 2   6947906.652 1
  23507456.635    -5432275.845 3  -4232924.536 1
  23556912.192     6661473.164 2   5190754.018 1
  21072472.429    -1036107.701 4   -807354.290 3
 91  7 25  1  9 30.0010000  0  5 03 20 23 16 17
  20896301.488      150684.910 4    117417.575 2
  24532702.472     8985058.734 2   7001329.070 1
  23500459.464    -5469047.053 3  -4261577.318 1
  23567710.108     6718223.446 2   5234974.980 1
  21072469.131    -1036148.356 4   -807385.980 3
 91  7 25  1  9 45.0010000  0  5 03 20 23 16 17
  20898005.205      159622.890 4    124382.237 2
  24545753.036     9053628.854 2   7054760.157 1
  23493475.206    -5505760.575 3  -4290185.162 1
  23578522.734     6775043.405 3   5279250.234 1
  21072473.023    -1036111.779 4   -807357.444 3
 91  7 25  1 10  0.0010000  0  5 03 20 23 16 17
  20899725.726      168654.976 4    131420.228 2
  24558804.490     9122207.669 2   7108198.022 1
  23486493.339    -5542418.117 3  -4318749.394 1
  23589348.535     6831930.622 3   5323577.884 1
  21072492.218    -1036000.083 4   -807270.400 3
 91  7 25  1 10 15.0010000  0  5 03 20 23 16 17
  20901463.018      177784.366 4    138534.041 2
  24571852.367     9190797.926 2   7161644.796 1
  23479538.747    -5579016.408 3  -4347267.449 1
  23600185.138     6888887.971 3   5367960.204 1
  21072528.497    -1035810.291 4   -807122.496 3
 91  7 25  1 10 30.0010000  0  5 03 20 23 16 17
  20903216.799      187009.419 4    145722.402 2
  24584902.931     9259397.633 2   7215098.958 1
  23472580.577    -5615556.965 3  -4375740.549 1
  23611038.510     6945913.226 2   5412395.414 1
  21072580.952    -1035544.286 4   -806915.211 3
 91  7 25  1 10 45.0010000  0  5 03 20 23 16 17
  20904988.276      196328.902 4    152984.347 2
  24597969.375     9328004.646 2   7268558.838 1
  23465639.771    -5652041.164 3  -4404169.711 1
  23621903.888     7003004.091 3   5456881.754 1
  21072644.820    -1035203.801 4   -806649.883 3
 91  7 25  1 11  0.0010000  0  5 03 20 23 16 17
  20906781.635      205742.370 4    160319.511 2
  24611023.848     9396617.776 2   7322023.423 1
  23458700.779    -5688469.386 3  -4432555.241 1
  23632777.974     7060159.760 2   5501418.588 1
  21072723.957    -1034789.470 4   -806327.020 2
 91  7 25  1 11 15.0010000  0  5 03 20 23 16 17
  20908592.391      215249.825 4    167727.912 2
  24624075.302     9465236.867 2   7375492.613 1
  23451785.467    -5724841.607 3  -4460897.165 1
  23643669.736     7117380.067 3   5546005.824 1
  21072818.991    -1034301.098 4   -805946.453 3
 91  7 25  1 11 30.0010000  0  5 03 20 23 16 17
  20910417.824      224850.670 4    175209.089 2
  24637142.060     9533860.743 2   7428965.625 1
  23444869.562    -5761158.068 2  -4489195.595 1
  23654567.781     7174664.162 3   5590642.776 1
  21072925.123    -1033739.641 4   -805508.927 3
 91  7 25  1 11 45.0010000  0  5 03 20 23 16 17
  20912262.748      234545.980 4    182763.877 2
  24650190.530     9602489.825 2   7482442.660 1
  23437972.538    -5797417.910 3  -4517449.916 1
  23665481.130     7232011.988 3   5635329.334 1
  21073044.430    -1033104.345 4   -805013.893 2
 91  7 25  1 12  0.0010000  0  5 03 20 23 16 17
  20914127.757      244336.910 4    190393.176 2
  24663261.773     9671124.715 2   7535924.257 1
  23431083.890    -5833619.955 3  -4545659.245 1
  23676406.764     7289424.394 3   5680066.245 1
  21073176.650    -1032394.210 4   -804460.533 2
 91  7 25  1 12 15.0010000  0  5 03 20 23 16 17
  20916011.351      254221.822 5    198095.696 2
  24676317.747     9739763.268 2   7589408.675 1
  23424207.858    -5869765.706 3  -4573824.664 1
  23687344.700     7346899.220 2   5724851.759 1
  21073326.844    -1031611.240 4   -803850.416 3
 91  7 25  1 12 30.0010000  0  5 03 20 23 16 17
  20917906.637      264199.685 4    205870.657 2
  24689380.892     9808403.959 2   7642894.730 1
  23417339.313    -5905855.959 3  -4601946.844 1
  23698292.513     7404435.099 3   5769684.885 1
  21073492.918    -1030756.639 4   -803184.485 3
 91  7 25  1 12 45.0010000  0  5 03 20 23 16 17
  20919824.399      274273.822 4    213720.630 2
  24702446.760     9877049.262 2   7696384.432 1
  23410483.960    -5941887.641 3  -4630023.400 1
  23709252.925     7462034.702 2   5814567.639 1
  21073668.310    -1029827.384 4   -802460.385 3
 91  7 25  1 13  0.0010000  0  5 03 20 23 16 17
  20921757.464      284443.533 4    221645.081 2
  24715508.109     9945698.226 2   7749876.920 1
  23403636.407    -5977861.288 3  -4658054.727 1
  23720221.730     7519696.705 3   5859499.030 1
  21073858.378    -1028824.077 4   -801678.576 3
 91  7 25  1 13 15.0010000  0  5 03 20 23 16 17
  20923711.208      294712.160 4    229646.615 2
  24728569.771    10014353.831 2   7803374.645 1
  23396797.842    -6013773.338 3  -4686038.067 1
  23731207.026     7577424.023 2   5904481.301 1
  21074065.529    -1027743.683 4   -800836.691 3
 91  7 25  1 13 30.0010000  0  5 03 20 23 16 17
  20925682.943      305079.351 4    237724.952 2
  24741638.920    10083015.016 2   7856876.686 1
  23389982.345    -6049624.237 3  -4713973.768 1
  23742210.610     7635215.732 2   5949513.742 1
  21074286.781    -1026586.962 4   -799935.343 2
 91  7 25  1 13 45.0010000  0  5 03 20 23 16 17
  20927676.264      315545.491 4    245880.396 2
  24754704.474    10151681.570 2   7910382.978 1
  23383162.381    -6085413.613 3  -4741861.513 2
  23753218.085     7693071.882 3   5994596.439 1
  21074520.020    -1025353.825 4   -798974.444 3
 91  7 25  1 14  0.0010000  0  5 03 20 23 16 17
  20929684.888      326107.926 4    254110.871 2
  24767767.637    10220350.566 2   7963891.128 1
  23376369.081    -6121143.919 3  -4769703.246 1
  23764238.456     7750989.809 2   6039727.290 1
  21074770.344    -1024046.869 4   -797956.023 2
 91  7 25  1 14 15.0020000  0  5 03 20 23 16 17
  20931714.474      336768.886 4    262418.103 2
  24780839.180    10289027.333 2   8017405.280 1
  23369581.176    -6156816.101 3  -4797499.673 1
  23775272.913     7808973.768 2   6084909.545 1
  21075030.565    -1022664.998 4   -796879.233 3
 91  7 25  1 14 30.0020000  0  5 03 20 23 16 17
  20933762.362      347524.803 4    270799.329 2
  24793913.738    10357699.667 2   8070915.946 1
  23362802.273    -6192427.685 3  -4825248.899 1
  23786317.574     7867013.284 2   6130135.095 1
  21075309.663    -1021210.880 5   -795746.144 3
 91  7 25  1 14 45.0020000  0  5 03 20 23 16 17
  20935827.630      358377.095 4    279255.668 2
  24806983.776    10426372.821 2   8124427.385 1
  23356033.560    -6227979.734 3  -4852951.711 1
  23797372.427     7925112.539 2   6175407.223 1
  21075599.267    -1019683.377 4   -794555.868 3
 91  7 25  1 15  0.0020000  0  5 03 20 23 16 17
  20937911.186      369326.219 4    287787.449 2
  24820052.628    10495046.789 2   8177939.328 1
  23349283.135    -6263471.877 3  -4880607.827 1
  23808441.362     7983271.590 2   6220725.934 1
  21075903.564    -1018082.238 4   -793308.211 3
 91  7 25  1 15 15.0020000  0  5 03 20 23 16 17
  20940014.531      380372.622 4    296395.031 2
  24833113.697    10563720.914 2   8231451.525 1
  23342537.492    -6298904.097 3  -4908217.310 1
  23819518.987     8041490.212 2   6266091.020 1
  21076219.239    -1016407.760 4   -792003.412 3
 91  7 25  1 15 30.0020000  0  5 03 20 23 16 17
  20942132.865      391513.591 4    305076.310 2
  24846184.050    10632392.198 2   8284961.831 1
  23335810.154    -6334278.750 3  -4935781.899 1
  23830616.400     8099765.314 3   6311500.154 1
  21076553.201    -1014662.622 4   -790643.555 3
 91  7 25  1 15 45.0020000  0  5 03 20 23 16 17
  20944273.675      402749.566 4    313831.620 2
  24859256.793    10701060.831 2   8338469.721 1
  23329091.803    -6369595.044 3  -4963301.009 1
  23841708.125     8158097.175 2   6356953.528 1
  21076900.373    -1012846.475 4   -789228.364 3
 91  7 25  1 16  0.0020000  0  5 03 20 23 16 17
  20946426.491      414081.567 4    322661.749 2
  24872331.352    10769726.783 2   8391975.897 1
  23322377.954    -6404852.606 3  -4990774.361 1
  23852818.138     8216485.669 2   6402450.988 1
  21077259.516    -1010959.075 4   -787757.644 3
 91  7 25  1 16 15.0020000  0  5 03 20 23 16 17
  20948600.893      425512.282 4    331568.798 2
  24885392.107    10838392.745 2   8445481.769 1
  23315682.689    -6440047.849 3  -5018199.191 1
  23863944.030     8274933.495 2   6447994.698 1
  21077634.556    -1008997.337 4   -786229.012 3
 91  7 25  1 16 30.0020000  0  5 03 20 23 16 17
  20950795.066      437040.665 4    340551.950 2
  24898451.361    10907056.906 2   8498986.461 1
  23308997.319    -6475182.285 3  -5045576.582 1
  23875076.222     8333438.912 2   6493583.319 1
  21078022.492    -1006962.953 4   -784643.765 3
 91  7 25  1 16 45.0020000  0  5 03 20 23 16 17
  20953006.340      448667.174 4    349611.579 2
  24911512.727    10975719.368 2   8552489.583 1
  23302319.434    -6510255.287 3  -5072906.146 1
  23886220.106     8392001.977 2   6539216.857 1
  21078419.711    -1004855.480 4   -783001.562 3
 91  7 25  1 17  0.0020000  0  5 03 20 23 16 17
  20955243.685      460393.468 4    358748.949 2
  24924576.483    11044381.111 2   8605992.140 1
  23295662.246    -6545265.128 3  -5100186.477 1
  23897371.493     8450623.858 2   6584896.187 1
  21078835.532    -1002673.323 5   -781301.163 3
 91  7 25  1 17 15.0020000  0  5 03 20 23 16 17
  20957490.627      472216.984 4    367962.075 2
  24937654.322    11113039.101 2   8659492.114 1
  23289010.153    -6580214.507 3  -5127419.691 2
  23908542.668     8509301.184 2   6630618.793 1
  21079263.028    -1000419.543 4   -779544.957 2
 91  7 25  1 17 30.0020000  0  5 03 20 23 16 17
  20959756.468      484141.486 4    377253.896 2
  24950716.578    11181696.170 2   8712990.962 1
  23282371.549    -6615099.617 3  -5154602.821 1
  23919718.329     8568036.970 2   6676386.884 1
  21079710.015     -998090.788 4   -777730.329 3
 91  7 25  1 17 45.0020000  0  5 03 20 23 16 17
  20962046.582      496166.991 4    386624.424 2
  24963777.944    11250352.456 2   8766489.267 1
  23275745.231    -6649919.746 3  -5181735.331 1
  23930901.475     8626831.607 2   6722200.829 1
  21080165.413     -995686.528 4   -775856.861 2
 91  7 25  1 18  0.0020000  0  5 03 20 23 16 17
  20964355.281      508289.740 4    396070.720 2
  24976838.402    11319003.274 2   8819983.193 1
  23269130.010    -6684678.938 3  -5208820.356 1
  23942102.334     8685680.317 2   6768056.940 1
  21080636.971     -993211.195 4   -773928.027 3
 91  7 25  1 18 15.0020000  0  5 03 20 23 16 17
  20966677.765      520509.950 4    405592.960 2
  24989902.159    11387648.424 2   8873472.701 1
  23262528.889    -6719377.112 3  -5235857.827 1
  23953313.069     8744582.914 2   6813955.008 1
  21081119.940     -990664.433 4   -771943.526 3
 91  7 25  1 18 30.0020000  0  5 03 20 23 16 17
  20969026.041      532836.626 4    415198.164 2
  25002964.100    11456296.243 2   8926964.336 1
  23255938.553    -6754005.339 3  -5262840.794 1
  23964533.106     8803547.800 2   6859901.653 1
  21081621.791     -988038.054 4   -769896.981 3
 91  7 25  1 18 45.0020000  0  5 03 20 23 16 17
  20971390.807      545267.405 4    424884.489 2
  25016039.863    11524944.014 2   8980455.937 1
  23249361.095    -6788565.606 3  -5289770.802 1
  23975764.519     8862572.243 2   6905894.689 1
  21082133.239     -985334.580 4   -767790.365 3
 91  7 25  1 19  0.0020000  0  5 03 20 23 16 17
  20973775.955      557794.488 4    434645.855 2
  25029101.211    11593583.548 2   9033941.048 1
  23242798.644    -6823065.602 3  -5316653.831 1
  23987010.033     8921648.080 2   6951927.788 1
  21082662.976     -982561.526 4   -765629.535 3
 91  7 25  1 19 15.0020000  0  5 03 20 23 16 17
  20976176.687      570420.200 4    444484.069 2
  25042154.777    11662216.469 2   9087421.009 1
  23236238.287    -6857503.118 3  -5343488.178 2
  23998258.845     8980777.111 2   6998002.278 1
  21083208.592     -979717.089 4   -763413.073 3
 91  7 25  1 19 30.0020000  0  5 03 20 23 16 17
  20978599.614      583144.562 4    454399.166 2
  25055207.138    11730842.317 2   9140895.504 1
  23229703.110    -6891878.137 3  -5370273.865 1
  24009518.458     9039958.942 2   7044117.975 1
  21083760.211     -976801.514 4   -761141.183 3
 91  7 25  1 19 45.0020000  0  5 03 20 23 16 17
  20981038.125      595967.178 4    464390.819 2
  25068264.595    11799460.144 2   9194363.719 1
  23223174.530    -6926191.024 3  -5397011.112 1
  24020792.747     9099192.417 2   7090273.897 1
  21084327.430     -973815.221 4   -758814.188 3
 91  7 25  1 20  0.0020000  0  5 03 20 23 16 17
  20983497.925      608889.162 4    474459.896 2
  25081320.866    11868070.434 2   9247826.059 1
  23216654.047    -6960440.572 3  -5423699.002 1
  24032085.027     9158478.252 2   7136470.629 1
  21084908.714     -970757.467 4   -756431.516 3
 91  7 25  1 20 15.0020000  0  5 03 20 23 16 17
  20985979.311      621911.642 4    484607.283 2
  25094383.715    11936673.885 2   9301283.092 1
  23210154.242    -6994625.518 3  -5450336.559 1
  24043369.525     9217817.223 2   7182708.746 1
  21085504.115     -967627.107 4   -753992.257 3
 91  7 25  1 20 30.0020000  0  5 03 20 23 16 17
  20988471.185      635037.531 4    494835.249 2
  25107430.091    12005273.028 2   9354736.753 1
  23203654.751    -7028742.683 3  -5476921.277 1
  24054670.198     9277211.538 2   7228989.992 1
  21086116.287     -964421.387 4   -751494.282 3
 91  7 25  1 20 45.0020000  0  5 03 20 23 16 17
  20990999.338      648296.457 4    505166.885 2
  25120497.145    12073896.573 2   9408209.444 1
  23197183.425    -7062762.936 3  -5503430.509 1
  24065986.159     9336690.159 2   7275336.934 1
  21086744.948     -961111.328 4   -748915.009 3
 91  7 25  1 21  0.0020000  0  5 03 20 23 16 17
  20993546.668      661692.933 4    515605.702 2
  25133562.088    12142548.886 2   9461704.569 1
  23190729.201    -7096681.432 3  -5529860.441 1
  24077324.019     9396257.484 2   7321752.978 1
  21087395.196     -957692.530 4   -746251.000 3
 91  7 25  1 21 15.0020000  0  5 03 20 23 16 17
  20996125.793      675236.570 4    526159.188 2
  25146637.240    12211239.140 2   9515229.198 1
  23184293.840    -7130488.323 3  -5556203.414 1
  24088685.856     9455922.542 2   7368245.212 1
  21088067.936     -954155.238 4   -743494.650 3
 91  7 25  1 21 30.0020000  0  5 03 20 23 16 17
  20998720.780      688886.292 4    536795.338 2
  25159703.108    12279925.595 2   9568750.880 1
  23177872.892    -7164224.688 3  -5582491.396 1
  24100043.190     9515643.863 2   7414781.282 1
  21088754.760     -950540.996 4   -740678.345 3
 91  7 25  1 21 45.0020000  0  5 03 20 23 16 17
  21001340.372      702642.107 4    547514.155 2
  25172765.050    12348607.522 2   9622269.092 1
  23171469.326    -7197890.710 3  -5608724.579 1
  24111423.001     9575420.853 2   7461360.685 1
  21089456.572     -946850.036 4   -737802.263 3
 91  7 25  1 22  0.0020000  0  5 03 20 23 16 17
  21003975.843      716511.586 4    558321.549 2
  25185836.310    12417292.329 2   9675789.539 1
  23165076.246    -7231478.360 3  -5634896.697 1
  24122806.720     9635260.722 2   7507989.104 1
  21090179.674     -943074.829 4   -734860.535 3
 91  7 25  1 22 15.0020000  0  5 03 20 23 16 17
  21006635.309      730465.275 4    569194.553 2
  25198909.053    12485949.748 2   9729289.047 1
  23158699.658    -7265017.482 3  -5661031.012 1
  24134196.146     9695133.214 2   7554642.953 1
  21090905.167     -939245.201 4   -731876.391 3
 91  7 25  1 22 30.0020000  0  5 03 20 23 16 17
  21009309.764      744520.857 4    580146.964 2
  25211969.511    12554597.068 2   9782780.273 1
  23152324.587    -7298490.247 3  -5687113.595 1
  24145602.655     9755055.631 2   7601335.739 1
  21091648.948     -935343.535 4   -728836.125 3
 91  7 25  1 22 45.0020000  0  5 03 20 23 16 17
  21012002.490      758683.808 4    591183.029 2
  25225034.769    12623239.294 2   9836267.558 1
  23145969.584    -7331890.829 3  -5713139.967 1
  24157013.056     9815033.351 2   7648071.631 1
  21092406.532     -931364.760 4   -725735.765 3
 91  7 25  1 23  0.0020000  0  5 03 20 23 16 17
  21014720.413      772954.458 4    602303.023 2
  25238095.838    12691875.967 2   9889750.447 1
  23139629.571    -7365219.178 3  -5739110.025 1
  24168435.741     9875065.846 2   7694850.094 1
  21093176.400     -927308.938 4   -722575.370 3
 91  7 25  1 23 15.0020000  0  5 03 20 23 16 17
  21017455.124      787331.856 4    613506.192 2
  25251147.903    12760506.186 2   9943228.294 1
  23133297.044    -7398475.862 3  -5765024.246 1
  24179873.713     9935151.564 2   7741670.123 1
  21093960.962     -923176.664 4   -719355.406 3
 91  7 25  1 23 30.0020000  0  5 03 20 23 16 17
  21020209.310      801815.475 4    624792.145 2
  25264209.251    12829128.683 2   9996700.231 1
  23126985.824    -7431661.535 3  -5790883.156 1
  24191316.798     9995289.527 2   7788530.837 1
  21094762.904     -918969.136 4   -716076.806 3
 91  7 25  1 23 45.0020000  0  5 03 20 23 16 17
  21022987.786      816405.852 4    636161.276 2
  25277271.210    12897743.468 2  10050166.546 1
  23120681.182    -7464775.903 3  -5816686.461 1
  24202775.170    10055479.921 2   7835432.389 1
  21095578.632     -914686.007 4   -712739.286 3
 91  7 25  1 24  0.0020000  0  5 03 20 23 16 17
  21025782.752      831100.510 4    647611.663 2
  25290323.868    12966347.716 2  10103624.175 1
  23114390.937    -7497820.910 3  -5842435.738 2
  24214238.340    10115720.023 2   7882372.706 1
  21096409.053     -910329.631 4   -709344.696 3
 91  7 25  1 24 15.0020000  0  5 03 20 23 16 17
  21028597.210      845899.125 4    659143.051 2
  25303378.638    13034940.282 2  10157073.168 1
  23108115.979    -7530797.009 3  -5868131.346 1
  24225704.791    10176008.933 2   7929351.007 1
  21097251.183     -905900.712 4   -705893.587 3
 91  7 25  1 24 30.0020000  0  5 03 20 23 16 17
  21031433.848      860803.189 4    670756.617 2
  25316438.486    13103522.086 2  10210513.773 1
  23101855.713    -7563702.673 3  -5893772.060 1
  24237193.142    10236347.211 2   7976367.819 1
  21098108.286     -901397.912 4   -702384.902 3
 91  7 25  1 24 45.0020000  0  5 03 20 23 16 17
  21034295.666      875812.692 4    682452.345 2
  25329483.658    13172093.111 2  10263945.512 1
  23095611.344    -7596537.683 3  -5919357.692 1
  24248679.695    10296735.052 2   8023423.239 1
  21098974.689     -896821.353 4   -698818.738 3
 91  7 25  1 25  0.0020000  0  4 03 23 16 17
  21037167.675      890925.403 4    694228.478 2
  23089375.055    -7629304.309 3  -5944890.054 1
  24260179.127    10357169.580 2   8070515.014 1
  21099861.474     -892173.368 4   -695196.913 3
 91  7 25  1 25 15.0020000  0  4 03 23 16 17
  21040062.475      906141.705 4    706085.352 2
  23083150.772    -7662002.385 3  -5970368.999 1
  24271690.861    10417650.124 2   8117642.733 1
  21100761.748     -887454.226 4   -691519.651 3
 91  7 25  1 25 30.0020000  0  4 03 23 16 17
  21042977.342      921454.558 4    718017.445 2
  23076937.570    -7694638.780 3  -5995799.885 1
  24283207.394    10478169.702 2   8164800.810 1
  21101671.009     -882671.099 4   -687792.533 3
 91  7 25  1 25 45.0020000  0  4 03 23 16 17
  21045910.514      936870.932 4    730030.212 2
  23070746.547    -7727206.112 3  -6021176.956 1
  24294727.818    10538735.111 2   8211994.562 1
  21102595.574     -877816.929 4   -684010.046 3
 91  7 25  1 26  0.0020000  0  5 03 20 23 16 17
  21048867.977      952392.240 4    742124.744 2
  25394675.036         -55.27312       -66.142 1
  23064555.838    -7759703.112 3  -6046499.204 1
  24306262.325    10599346.752 2   8259224.379 1
  21103530.627     -872890.664 4   -680171.395 3
 91  7 25  1 26 15.0020000  0  5 03 20 23 16 17
  21051839.819      968018.622 4    754301.140 2
  25407716.596       68422.771 2     53293.620 1
  23058390.013    -7792129.674 3  -6071766.591 2
  24317811.228    10660004.170 2   8306489.841 1
  21104481.280     -867892.101 4   -676276.397 3
 91  7 25  1 26 30.0020000  0  5 03 20 23 16 17
  21054834.433      983751.966 4    766560.902 2
  25420735.087      136887.867 2    106642.803 1
  23052232.267    -7824483.933 3  -6096977.623 1
  24329358.037    10720709.144 2   8353792.372 1
  21105446.905     -862819.824 4   -672323.964 3
 91  7 25  1 26 45.0020000  0  5 03 20 23 16 17
  21057848.557      999592.530 4    778904.206 2
  25433755.671      205339.828 2    159981.783 1
  23046088.621    -7856765.324 3  -6122131.882 1
  24340918.039    10781461.236 2   8401131.668 1
  21106426.019     -857673.906 4   -668314.139 3
 91  7 25  1 27  0.0020000  0  5 03 20 23 16 17
  21060883.952     1015540.841 4    791331.467 2
  25446787.651      273778.375 2    213310.396
  23039955.777    -7888973.396 3  -6147229.000 1
  24352489.121    10842260.719 2   8448507.846 1
  21107417.732     -852453.897 4   -664246.588 3
 91  7 25  1 27 15.0020000  0  5 03 20 23 16 17
  21063936.432     1031597.715 4    803843.327 2
  25459807.939      342203.754 2    266628.995
  23033847.206    -7921107.505 3  -6172268.502 2
  24364067.410    10903107.636 2   8495920.973 1
  21108425.936     -847159.268 4   -660120.894 3
 91  7 25  1 27 30.0020000  0  4 03 23 16 17
  21067012.015     1047760.352 4    816437.589 2
  23027735.930    -7953169.752 3  -6197252.000 1
  24375655.280    10963999.171 2   8543368.877 1
  21109446.442     -841792.484 4   -655938.971 3
 91  7 25  1 27 45.0020000  0  4 03 23 16 17
  21070108.260     1064029.556 4    829114.904 2
  23021654.041    -7985159.664 3  -6222179.134 1
  24387249.763    11024935.396 2   8590851.614 1
  21110480.124     -836353.294 4   -651700.631 3
 91  7 25  1 28  0.0020000  0  4 03 23 16 17
  21073227.311     1080407.345 4    841876.830 2
  23015583.250    -8017075.467 3  -6247048.532 1
  24398852.919    11085917.763 2   8638370.321 1
  21111531.796     -830840.079 4   -647404.615 3
 91  7 25  1 28 15.0020000  0  4 03 23 16 17
  21076365.245     1096892.889 4    854722.713 2
  23009517.851    -8048917.547 3  -6271860.461 1
  24410470.488    11146945.349 2   8685924.257 1
  21112595.456     -825253.708 4   -643051.581 2
 91  7 25  1 28 30.0020000  0  4 03 23 16 17
  21079519.354     1113485.784 4    867652.242 2
  23003479.726    -8080686.323 3  -6296615.302 1
  24422090.745    11208017.298 2   8733512.721 1
  21113673.513     -819594.757 4   -638641.998 3
 91  7 25  1 28 45.0020000  0  4 03 23 16 17
  21082698.347     1130187.177 4    880666.343 2
  22997448.198    -8112380.392 3  -6321311.909 1
  24433727.475    11269134.063 2   8781136.115 1
  21114763.855     -813862.120 4   -634174.995 3
 91  7 25  1 29  0.0020000  0  4 03 23 16 17
  21085896.239     1146996.809 4    893764.759 2
  22991429.269    -8144000.356 3  -6345950.767 2
  24445361.832    11330294.706 2   8828793.726 1
  21115873.078     -808056.527 4   -629651.155 3
 91  7 25  1 29 15.0020000  0  4 03 23 16 17
  21089112.716     1163915.860 4    906948.446 2
  22985425.923    -8175544.708 3  -6370530.701 1
  24457006.066    11391500.175 2   8876486.266 1
  21116989.508     -802176.899 4   -625069.609 3
 91  7 25  1 29 30.0020000  0  4 03 23 16 17
  21092359.172     1180945.387 4    920218.221 2
  22979441.458    -8207012.381 3  -6395050.915 2
  24468665.900    11452750.952 2   8924214.122 1
  21118123.319     -796222.367 4   -620429.697 3
 91  7 25  1 29 45.0020000  0  4 03 23 16 17
  21095622.397     1198084.096 4    933573.072 2
  22973462.106    -8238404.793 3  -6419512.453 1
  24480323.326    11514045.548 2   8971976.145 1
  21119267.634     -790194.494 4   -615732.644 3
 91  7 25  1 30  0.0020000  0  4 03 23 16 17
  21098901.834     1215335.513 4    947015.728 2
  22967503.729    -8269718.232 3  -6443912.468 2
  24492001.745    11575387.007 2   9019774.599 1
  21120429.034     -784089.995 4   -610975.877 3
 91  7 25  1 30 15.0020000  0  4 03 23 16 17
  21102203.747     1232699.757 4    960546.311 2
  22961560.639    -8300952.634 3  -6468250.911 2
  24503684.351    11636774.629 2   9067609.058 1
  21121606.609     -777908.760 4   -606159.324 3
 91  7 25  1 30 30.0020000  0  4 03 23 16 17
  21105533.249     1250172.762 4    974161.655 2
  22955631.352    -8332111.715 3  -6492530.636 2
  24515373.554    11698204.319 2   9115476.303 1
  21122794.097     -771654.932 4   -601286.197 3
 91  7 25  1 30 45.0020000  0  4 03 23 16 17
  21108877.129     1267750.995 4    987858.970 2
  22949715.239    -8363199.061 3  -6516754.478 1
  24527073.855    11759672.086 2   9163373.234 1
  21123996.853     -765332.384 4   -596359.538 3
 91  7 25  1 31  0.0020000  0  4 03 23 16 17
  21112239.594     1285442.407 4   1001644.490 2
  22943814.431    -8394206.588 3  -6540916.116 2
  24538772.656    11821185.285 2   9211305.579 1
  21125219.712     -758933.288 4   -591373.215 3
 91  7 25  1 31 15.0020000  0  4 03 23 16 17
  21115629.648     1303246.800 4   1015518.045 2
  22937926.204    -8425134.443 3  -6565015.686 2
  24550490.041    11882743.239 2   9259272.792 1
  21126449.463     -752458.108 4   -586327.613 3
 91  7 25  1 31 30.0020000  0  4 03 23 16 17
  21119038.286     1321164.042 4   1029479.535 2
  22932058.969    -8455983.047 3  -6589053.514 2
  24562210.427    11944345.244 2   9307274.314 1
  21127694.502     -745907.160 4   -581222.972 3
 91  7 25  1 31 45.0020000  0  4 03 23 16 17
  21122468.214     1339193.269 4   1043528.289 2
  22926202.519    -8486753.098 3  -6613030.111 2
  24573940.708    12005989.855 2   9355309.036 1
  21128959.625     -739281.772 4   -576060.320 3
 91  7 25  1 32  0.0020000  0  4 03 23 16 17
  21125923.636     1357334.822 4   1057664.564 2
  22920363.764    -8517443.940 3  -6636945.002 2
  24585679.085    12067677.332 2   9403377.146 1
  21130230.454     -732581.533 4   -570839.345 3
 91  7 25  1 32 15.0020000  0  4 03 23 16 17
  21129395.828     1375588.947 4   1071888.563 2
  22914541.795    -8548055.191 3  -6660797.842 2
  24597429.155    12129407.364 2   9451478.443 1
  21131523.149     -725806.077 4   -565559.759 3
 91  7 25  1 32 30.0020000  0  4 03 23 16 17
  21132894.405     1393957.112 4   1086201.430 2
  22908729.424    -8578585.667 3  -6684587.766 1
  24609181.911    12191181.157 2   9499613.849 1
  21132822.457     -718954.424 4   -560220.804 3
 91  7 25  1 32 45.0020000  0  4 03 23 16 17
  21136404.970     1412439.482 4   1100603.286 2
  22902931.136    -8609034.898 3  -6708314.371 2
  24620947.877    12252998.193 2   9547782.887 1
  21134146.336     -712026.488 4   -554822.403 3
 91  7 25  1 33  0.0020000  0  4 03 23 16 17
  21139950.016     1431035.082 4   1115093.363 2
  22897155.026    -8639404.025 3  -6731978.550 2
  24632716.828    12314856.711 2   9595984.324 1
  21135475.606     -705023.586 4   -549365.584 3
 91  7 25  1 33 15.0020000  0  4 03 23 16 17
  21143507.348     1449744.401 4   1129672.059 2
  22891392.423    -8669692.552 3  -6755579.953 2
  24644493.264    12376756.876 2   9644218.190 1
  21136824.386     -697945.688 4   -543850.336 3
 91  7 25  1 33 30.0020000  0  4 03 23 16 17
  21147089.878     1468565.144 4   1144337.571 2
  22885638.197    -8699902.405 3  -6779120.039 2
  24656288.006    12438696.892 2   9692483.026 1
  21138183.042     -690794.607 4   -538278.060 3
 91  7 25  1 33 45.0020000  0  4 03 23 16 17
  21150695.773     1487498.315 4   1159090.680 2
  22879910.075    -8730032.498 3  -6802597.976 2
  24668083.638    12500676.756 2   9740779.025 1
  21139558.782     -683569.595 4   -532648.171 3
 91  7 25  1 34  0.0020000  0  4 03 23 16 17
  21154316.379     1506543.621 4   1173931.165 2
  22874189.720    -8760083.312 3  -6826014.101 1
  24679878.380    12562695.236 2   9789105.072 1
  21140949.233     -676271.478 5   -526961.315 3
 91  7 25  1 34 15.0020000  0  4 03 23 16 17
  21157963.946     1525701.928 4   1188859.713 2
  22868488.873    -8790053.988 3  -6849367.815 2
  24691690.798    12624752.918 2   9837461.687 1
  21142348.950     -668899.579 4   -521216.963 3
 91  7 25  1 34 30.0020000  0  4 03 23 16 17
  21161629.207     1544972.638 4   1203875.838 2
  22862800.015    -8819944.902 3  -6872659.368 2
  24703510.721    12686849.160 2   9885848.332 1
  21143769.380     -661454.441 4   -515415.553 3
 91  7 25  1 34 45.0020000  0  4 03 23 16 17
  21165318.759     1564357.761 4   1218981.132 2
  22857120.440    -8849753.875 3  -6895887.072 2
  24715330.329    12748985.521 2   9934266.218 1
  21145201.188     -653934.288 4   -509555.681 3
 91  7 25  1 35  0.0020000  0  4 03 23 16 17
  21169028.989     1583858.632 4   1234176.607 2
  22851472.660    -8879479.576 3  -6919049.906 2
  24727170.040    12811162.770 2   9982716.011 1
  21146644.688     -646338.076 4   -503636.550 3
 91  7 25  1 35 15.0020000  0  4 03 23 16 17
  21172762.306     1603473.996 4   1249461.300 2
  22845826.956    -8909123.154 3  -6942148.733 2
  24738999.246    12873379.174 2  10031196.192 1
  21148099.582     -638667.145 4   -497659.192 3
 91  7 25  1 35 30.0020000  0  4 03 23 16 17
  21176516.302     1623203.379 4   1264834.842 2
  22840205.263    -8938685.196 3  -6965184.029 2
  24750851.242    12935633.649 2  10079706.160 1
  21149574.562     -630922.180 4   -491624.143 3
 91  7 25  1 35 45.0020000  0  4 03 23 16 17
  21180290.993     1643046.522 4   1280297.032 2
  22834592.541    -8968165.962 3  -6988155.993 2
  24762703.831    12997925.584 2  10128245.304 1
  21151066.625     -623103.516 4   -485531.664 3
 91  7 25  1 36  0.0020000  0  4 03 23 16 17
  21184089.068     1663003.233 4   1295847.708 2
  22828996.919    -8997565.403 3  -7011064.590 2
  24774568.130    13060254.573 2  10176813.292 1
  21152565.581     -615211.630 4   -479382.134 3
 91  7 25  1 36 15.0020000  0  4 03 23 16 17
  21187909.008     1683073.965 4   1311487.244 2
  22823418.084    -9026882.877 3  -7033909.307 2
  24786435.709    13122620.645 2  10225410.189 1
  21154081.028     -607246.198 4   -473175.304 3
 91  7 25  1 36 30.0020000  0  4 03 23 16 17
  21191750.848     1703259.858 4   1327216.513 2
  22817856.927    -9056117.286 3  -7056689.314 2
  24798307.493    13185024.398 2  10274036.421 1
  21155612.669     -599206.247 4   -466910.395 3
 91  7 25  1 36 45.0020000  0  4 03 23 16 17
  21195614.274     1723560.428 4   1343035.137 2
  22812312.260    -9085269.188 3  -7079405.007 2
  24810188.858    13247464.746 2  10322691.231 1
  21157151.813     -591092.484 4   -460587.974 3
 91  7 25  1 37  0.0020000  0  4 03 23 16 17
  21199498.989     1743975.596 4   1358943.057 2
  22806778.098    -9114338.484 3  -7102056.346 2
  24822086.120    13309941.656 2  10371374.479 1
  21158715.230     -582905.299 4   -454208.343 3
 91  7 25  1 37 15.0020000  0  4 03 23 16 17
  21203406.494     1764506.090 4   1374940.833 2
  22801260.408    -9143324.388 3  -7124642.712 2
  24833974.395    13372455.281 2  10420086.294 1
  21160285.244     -574644.060 5   -447770.998 3
 91  7 25  1 37 30.0020000  0  4 03 23 16 17
  21207335.568     1785153.140 4   1391029.449 2
  22795762.822    -9172225.800 3  -7147163.231 1
  24845875.862    13435006.132 2  10468827.292 1
  21161872.341     -566307.335 4   -441274.834 3
 91  7 25  1 37 45.0020000  0  4 03 23 16 17
  21211288.025     1805914.895 4   1407207.430 2
  22790278.725    -9201044.369 3  -7169619.217 2
  24857786.019    13497592.030 2  10517595.393 1
  21163473.224     -557897.459 5   -434721.671 3
 91  7 25  1 38  0.0020000  0  4 03 23 16 17
  21215259.973     1826792.609 4   1423475.771 2
  22784808.413    -9229778.488 3  -7192009.358 2
  24869700.662    13560213.808 2  10566391.578 1
  21165086.113     -549413.395 4   -428110.708 3
 91  7 25  1 38 15.0020000  0  4 03 23 16 17
  21219253.508     1847784.506 4   1439833.085 2
  22779354.888    -9258430.074 3  -7214335.216 2
  24881624.011    13622869.589 2  10615214.213 1
  21166714.584     -540856.890 4   -421443.286 3
 91  7 25  1 38 30.0020000  0  4 03 23 16 17
  21223269.536     1868891.582 4   1456280.167 2
  22773922.042    -9286998.385 3  -7236596.179 2
  24893555.755    13685559.830 2  10664063.655 1
  21168356.545     -532227.286 4   -414718.899 3
 91  7 25  1 38 45.0020000  0  4 03 23 16 17
  21227308.040     1890113.007 4   1472816.326 2
  22768498.794    -9315483.741 3  -7258792.532 2
  24905488.092    13748283.052 2  10712938.815 1
  21170017.108     -523525.425 4   -407938.221 3
 91  7 25  1 39  0.0020000  0  4 03 23 16 17
  21231365.128     1911448.395 4   1489441.300 2
  22763096.835    -9343886.638 3  -7280924.601 2
  24917435.418    13811038.525 2  10761839.165 1
  21171685.750     -514752.061 4   -401101.818 3
 91  7 25  1 39 15.0020000  0  4 03 23 16 17
  21235445.914     1932897.627 4   1506154.991 2
  22757706.864    -9372207.010 3  -7302992.381 2
  24929374.648    13873825.936 2  10810764.381 1
  21173365.491     -505907.275 4   -394209.765 3
 91  7 25  1 39 30.0020000  0  4 03 23 16 17
  21239553.067     1954460.203 4   1522956.997 2
  22752335.477    -9400445.448 3  -7324996.305 1
  24941335.481    13936644.377 2  10859713.747 1
  21175060.203     -496991.715 4   -387262.559 3
 91  7 25  1 39 45.0020000  0  4 03 23 16 17
  21243677.007     1976135.056 4   1539846.495 2
  22746973.706    -9428603.029 3  -7346937.213 2
  24953292.998    13999492.049 2  10908685.929 1
  21176772.332     -488006.854 4   -380261.362 3
 91  7 25  1 40  0.0020000  0  4 03 23 16 17
  21247820.439     1997914.502 4   1556817.492 2
  22741629.298    -9456686.973 3  -7368820.767 2
  24965256.204    14062360.941 2  10957674.640 1
  21178493.429     -478960.281 4   -373212.064 3
 91  7 25  1 40 15.0020000  0  4 03 23 16 17
  21251986.661     2019807.515 4   1573876.981 2
  22736302.880    -9484688.860 3  -7390640.349 2
  24977226.617    14125259.700 2  11006686.619 1
  21180227.736     -469843.507 4   -366108.067 3
 91  7 25  1 40 30.0020000  0  4 03 23 16 17
  21256173.562     2041792.961 4   1591008.497 2
  22730984.560    -9512629.347 3  -7412412.099 2
  24989202.143    14188166.882 2  11055705.169 1
  21181972.531     -460677.485 4   -358965.702 3
 91  7 25  1 40 45.0020000  0  4 03 23 16 17
  21260371.247     2063869.421 4   1608210.946 2
  22725679.135    -9540509.713 3  -7434137.005 2
  25001170.742    14251080.449 2  11104728.615 1
  21183727.517     -451463.783 4   -351786.176 3
 91  7 25  1 41  0.0020000  0  4 03 23 16 17
  21264598.021     2086069.858 4   1625509.988 2
  22720389.608    -9568297.150 3  -7455789.482 2
  25013150.456    14314032.947 2  11153782.436 1
  21185495.381     -442169.785 4   -344544.083 3
 91  7 25  1 41 15.0020000  0  4 03 23 16 17
  21268845.788     2108383.507 4   1642897.256 2
  22715119.852    -9596002.270 3  -7477377.838 2
  25025142.158    14377013.407 2  11202858.146 1
  21187276.455     -432806.196 4   -337247.768 3
 91  7 25  1 41 30.0020000  0  4 03 23 16 17
  21273111.529     2130813.310 4   1660375.018 2
  22709862.084    -9623622.252 3  -7498899.826 2
  25037128.765    14440024.012 2  11251957.245 1
  21189073.112     -423370.595 4   -329895.343 3
 91  7 25  1 41 45.0020000  0  4 03 23 16 17
  21277402.467     2153362.816 4   1677946.067 2
  22704624.715    -9651153.167 3  -7520352.452 2
  25049120.153    14503068.159 2  11301082.526 1
  21190882.351     -413859.308 4   -322483.942 3
 91  7 25  1 42  0.0020000  0  4 03 23 16 17
  21281714.381     2176029.260 4   1695608.221 2
  22699405.337    -9678597.976 3  -7541737.951 2
  25061123.844    14566142.615 2  11350231.401 1
  21192705.096     -404275.496 4   -315016.019 3
 91  7 25  1 42 15.0020000  0  4 03 23 16 17
  21286053.570     2198816.798 4   1713364.755 2
  22694192.835    -9705952.391 3  -7563053.010 2
  25073133.223    14629251.393 2  11399407.018 1
  21194542.516     -394615.064 4   -307488.396 3
 91  7 25  1 42 30.0020000  0  4 03 23 16 17
  21290409.860     2221723.701 4   1731214.287 2
  22689008.532    -9733218.072 3  -7584298.953 2
  25085150.403    14692392.322 2  11448607.716 1
  21196395.834     -384879.584 4   -299902.293 3
 91  7 25  1 42 45.0020000  0  4 03 23 16 17
  21294796.426     2244755.788 4   1749161.357 2
  22683836.201    -9760389.004 3  -7605471.055 2
  25097167.286    14755570.580 2  11497837.452 1
  21198263.549     -375063.367 4   -292253.280 3
 91  7 25  1 43  0.0020000  0  4 03 23 16 17
  21299205.171     2267934.361 4   1767222.595 2
  22678689.974    -9787443.969 3  -7626552.802 2
  25109203.661    14818807.028 2  11547112.605 1
  21200153.145     -365145.731 4   -284525.242 3
 91  7 25  1 43 15.0020000  0  4 03 23 16 17
  21303634.908     2291231.226 4   1785375.993 2
  22673558.720    -9814411.043 3  -7647566.037 2
  25121242.130    14882073.228 2  11596410.826 1
  21202054.416     -355154.846 4   -276740.132 3
 91  7 25  1 43 30.0020000  0  4 03 23 16 17
  21308095.516     2314647.882 4   1803622.733 2
  22668442.160    -9841288.724 3  -7668509.632 2
  25133286.288    14945370.241 2  11645733.211 1
  21203969.194     -345089.204 4   -268896.759 3
 91  7 25  1 43 45.0020000  0  4 03 23 16 17
  21312571.706     2338182.619 4   1821961.488 2
  22663342.403    -9868078.362 3  -7689384.632 2
  25145340.043    15008696.073 2  11695078.004 1
  21205897.757     -334950.544 4   -260996.497 3
 91  7 25  1 44  0.0020000  0  4 03 23 16 17
  21317071.000     2361836.584 4   1840393.145 2
  22658265.402    -9894778.983 3  -7710190.255 2
  25157389.296    15072051.322 2  11744445.640 1
  21207844.015     -324738.174 4   -253038.800 3
 91  7 25  1 44 15.0020000  0  4 03 23 16 17
  21321595.161     2385610.467 4   1858918.262 2
  22653199.220    -9921389.810 3  -7730925.907 2
  25169463.748    15135436.336 2  11793836.582 1
  21209799.556     -314451.614 4   -245023.294 3
 91  7 25  1 44 30.0020000  0  4 03 23 16 17
  21326143.613     2409502.040 4   1877535.062 2
  22648149.511    -9947913.018 3  -7751593.306 2
  25181536.384    15198848.971 2  11843248.924 1
  21211767.993     -304092.942 4   -236951.593 3
 91  7 25  1 44 45.0020000  0  4 03 23 16 17
  21330709.759     2433513.867 4   1896245.578 2
  22643124.389    -9974346.076 3  -7772190.436 2
  25193606.333    15262290.820 2  11892684.094 1
  21213754.421     -293659.996 4   -228822.018 3
 91  7 25  1 45  0.0020000  0  4 03 23 16 17
  21335304.070     2457641.516 4   1915046.335 2
  22638108.865   -10000692.806 3  -7792720.300 2
  25205675.672    15325757.302 2  11942138.412 1
  21215755.245     -283157.082 4   -220637.925 3
 91  7 25  1 45 15.0020000  0  4 03 23 16 17
  21339920.577     2481887.532 4   1933939.347 2
  22633114.613   -10026950.996 3  -7813181.195 2
  25217763.612    15389250.570 2  11991613.660 1
  21217769.542     -272581.934 4   -212397.541 3
 91  7 25  1 45 30.0020000  0  4 03 23 16 17
  21344552.371     2506253.742 4   1952926.004 2
  22628129.679   -10053118.957 3  -7833571.738 2
  25229840.751    15452772.052 2  12041110.902 1
  21219794.639     -261932.992 4   -204099.657 3
 91  7 25  1 45 45.0020000  0  4 03 23 16 17
  21349210.253     2530732.979 4   1972000.725 2
  22623168.111   -10079203.594 3  -7853897.396 2
  25241936.177    15516314.117 2  12090624.155 1
  21221832.336     -251217.338 4   -195749.788 3
 91  7 25  1 46  0.0030000  0  4 03 23 16 17
  21353893.912     2555329.738 4   1991167.020 2
  22618221.239   -10105203.705 3  -7874157.153 2
  25254036.999    15579883.508 2  12140158.705 1
  21223884.712     -240431.597 4   -187345.302 3
 91  7 25  1 46 15.0030000  0  4 03 23 16 17
  21358595.559     2580043.878 4   2010424.794 2
  22613288.149   -10131112.705 3  -7894345.917 2
  25266134.223    15643474.410 2  12189710.015 1
  21225950.573     -229574.548 4   -178885.255 3
 91  7 25  1 46 30.0030000  0  4 03 23 16 17
  21363322.073     2604880.779 4   2029778.215 2
  22608379.037   -10156928.096 3  -7914461.766 2
  25278242.545    15707094.739 2  12239284.236 1
  21228032.332     -218641.372 4   -170365.892 3
 91  7 25  1 46 45.0030000  0  4 03 23 16 17
  21368068.689     2629829.824 4   2049219.012 2
  22603481.040   -10182660.784 3  -7934513.164 2
  25290347.255    15770733.475 2  12288872.763 1
  21230125.782     -207643.016 4   -161795.739 3
 91  7 25  1 47  0.0030000  0  4 03 23 16 17
  21372842.597     2654896.643 4   2068751.595 2
  22598599.219   -10208305.165 3  -7954495.751 2
  25302469.363    15834395.306 2  12338479.379 1
  21232233.629     -196574.086 4   -153170.595 3
 91  7 25  1 47 15.0030000  0  4 03 23 16 17
  21377634.165     2680083.627 4   2088377.806 2
  22593740.171   -10233858.562 3  -7974407.446 2
  25314583.077    15898082.706 2  12388105.882 1
  21234348.962     -185432.130 4   -144488.539 3
 91  7 25  1 47 30.0030000  0  4 03 23 16 17
  21382448.244     2705391.817 4   2108098.456 2
  22588894.630   -10259319.821 3  -7994247.339 2
  25326706.982    15961796.548 2  12437753.014 1
  21236484.380     -174216.473 4   -135749.058 3
 91  7 25  1 47 45.0030000  0  4 03 23 16 17
  21387287.190     2730816.145 4   2127909.621 2
  22584060.780   -10284694.030 3  -8014019.394 2
  25338831.795    16025531.371 2  12487416.494 1
  21238632.397     -162932.126 4   -126956.057 3
 91  7 25  1 48  0.0030000  0  4 03 23 16 17
  21392149.815     2756359.792 4   2147813.754 2
  22579253.908   -10309978.212 4  -8033721.321 2
  25350972.191    16089289.455 2  12537098.020 1
  21240792.699     -151576.168 4   -118107.248 3
 91  7 25  1 48 15.0030000  0  4 03 23 16 17
  21397029.541     2782021.254 4   2167809.692 2
  22574459.635   -10335173.533 4  -8053353.986 2
  25363109.288    16153069.349 2  12586796.609 1
  21242967.991     -140150.129 4   -109203.840 3
 91  7 25  1 48 30.0030000  0  4 03 23 16 17
  21401933.541     2807801.483 4   2187898.178 2
  22569677.036   -10360279.007 3  -8072916.632 2
  25375246.089    16216871.594 2  12636512.615 1
  21245156.178     -128653.303 4   -100245.264 3
 91  7 25  1 48 45.0030000  0  4 03 23 16 17
  21406865.444     2833703.245 4   2208081.367 2
  22564923.527   -10385291.797 4  -8092407.064 2
  25387392.470    16280698.417 2  12686247.702 1
  21247355.761     -117082.810 4    -91229.292 3
 91  7 25  1 49  0.0030000  0  4 03 23 16 17
  21411817.711     2859724.167 4   2228357.405 2
  22560177.208   -10410214.187 3  -8111827.054 2
  25399548.152    16344547.189 2  12735999.954 1
  21249573.334     -105441.212 4    -82157.913 3
 91  7 25  1 49 15.0030000  0  4 03 23 16 17
  21416793.361     2885864.512 4   2248726.486 2
  22555454.289   -10435045.807 4  -8131176.316 2
  25411702.351    16408418.018 2  12785769.383 1
  21251801.989      -93728.496 4    -73031.118 3
 91  7 25  1 49 30.0030000  0  4 03 23 16 17
  21421790.894     2912124.255 4   2269188.628 2
  22550743.952   -10459786.425 3  -8150454.681 2
  25423858.033    16472310.447 2  12835555.606 1
  21254041.131      -81944.512 4    -63848.788 3
 91  7 25  1 49 45.0030000  0  4 03 23 16 17
  21426806.139     2938504.254 4   2289744.454 2
  22546053.385   -10484435.372 4  -8169661.598 2
  25436013.122    16536224.923 2  12885359.036 1
  21256301.266      -70088.914 4    -54610.657 3
 91  7 25  1 50  0.0030000  0  4 03 23 16 17
  21431854.941     2965002.370 4   2310392.331 2
  22541380.531   -10508994.861 4  -8188798.811 2
  25448188.279    16600158.580 2  12935177.495
  21258568.904      -58163.929 4    -45318.452 3
 91  7 25  1 50 15.0030000  0  4 03 23 16 17
  21436914.527     2991622.693 4   2331135.435 2
  22536726.541   -10533460.539 4  -8207862.952 2
  25460370.049    16664115.399 2  12985013.911 1
  21260852.422      -46165.488 4    -35969.016 3
 91  7 25  1 50 30.0030000  0  4 03 23 16 17
  21442009.205     3018362.787 4   2351971.863 2
  22532088.465   -10557834.683 4  -8226855.738 2
  25472535.922    16728092.817 2  13034866.434 1
  21263147.632      -34095.964 4    -26564.187 3
 91  7 25  1 50 45.0030000  0  4 03 23 16 17
  21447117.373     3045226.122 4   2372904.325 2
  22527468.956   -10582113.767 4  -8245774.442 2
  25484706.611    16792093.911 2  13084737.384 1
  21265460.536      -21952.194 4    -17101.508 3
 91  7 25  1 51  0.0030000  0  4 03 23 16 17
  21452254.019     3072213.684 4   2393933.597 2
  22522865.344   -10606296.883 4  -8264618.400 2
  25496886.880    16856119.185 2  13134627.119 1
  21267784.521       -9733.401 4     -7580.369 3
 91  7 25  1 51 15.0030000  0  4 03 23 16 17
  21457414.048     3099318.918 4   2415054.548 2
  22518280.317   -10630390.302 4  -8283392.449 2
  25509078.231    16920161.904 2  13184530.475 1
  21270121.402        2553.862 4      1994.125 3
 91  7 25  1 51 30.0030000  0  3 03 23 17
  21462592.051     3126542.041 4   2436267.362 2
  22513710.890   -10654393.950 4  -8302096.542 2
  21272473.866       14909.381 4     11621.807 3
 91  7 25  1 51 45.0030000  0  3 03 23 17
  21467796.457     3153887.361 4   2457575.373 2
  22509165.422   -10678303.345 4  -8320727.202 2
  21274838.336       27337.719 4     21306.229 3
 91  7 25  1 52  0.0030000  0  3 03 23 17
  21473021.540     3181349.886 4   2478974.741 2
  22504632.275   -10702123.232 4  -8339288.099 2
  21277218.981       39833.809 4     31043.454 3
 91  7 25  1 52 15.0030000  0  3 03 23 17
  21478269.100     3208935.209 4   2500469.800 2
  22500113.192   -10725848.068 4  -8357774.940 2
  21279609.539       52403.221 4     40837.803 3
 91  7 25  1 52 30.0030000  0  4 03 23 16 17
  21483541.858     3236646.866 4   2522063.307 2
  22495622.605   -10749474.309 4  -8376184.964 2
  25570068.609      -69554.58812    -54209.793 1
  21282018.071       65049.166 4     50691.795 3
 91  7 25  1 52 45.0030000  0  4 03 23 16 17
  21488842.780     3264479.735 4   2543751.253 2
  22491140.709   -10773007.087 4  -8394522.145 2
  25582277.950       -5393.940 2     -4214.494
  21284435.589       77766.259 4     60601.227 3
 91  7 25  1 53  0.0030000  0  4 03 23 16 17
  21494161.694     3292439.147 4   2565537.793 2
  22486681.288   -10796440.660 4  -8412782.013 2
  25594482.807       58790.762 2     45799.607 1
  21286870.802       90560.035 4     70570.408 3
 91  7 25  1 53 15.0030000  0  4 03 23 16 17
  21499509.400     3320523.210 4   2587421.467 2
  22482239.562   -10819777.215 4  -8430966.297 2
  25606708.936      122996.692 2     95830.088 1
  21289318.317      103428.192 4     80597.552 3
 91  7 25  1 53 30.0030000  0  4 03 23 16 17
  21504873.580     3348732.452 4   2609402.703 2
  22477819.736   -10843015.817 4  -8449074.256 2
  25618935.378      187224.473 2    145877.591
  21291780.508      116371.505 4     90683.260 3
 91  7 25  1 53 45.0030000  0  4 03 23 16 17
  21510268.350     3377069.083 4   2631483.177 2
  22473414.586   -10866154.425 4  -8467104.293 2
  25631158.523      251475.950 2    195943.703 1
  21294260.393      129391.766 4    100828.925 3
 91  7 25  1 54  0.0030000  0  4 03 23 16 17
  21515680.796     3405530.094 4   2653660.583 2
  22469031.911   -10889195.993 4  -8485058.716 2
  25643384.948      315747.372 2    246025.238 1
  21296751.359      142485.882 4    111032.132 3
 91  7 25  1 54 15.0030000  0  3 03 23 17
  21521122.629     3434116.761 4   2675935.912 2
  22464663.633   -10912138.847 4  -8502936.222 2
  21299258.537      155655.040 4    121293.822 3
 91  7 25  1 54 30.0030000  0  3 03 23 17
  21526586.362     3462833.547 4   2698312.631 2
  22460319.942   -10934978.723 4  -8520733.486 2
  21301778.278      168903.922 4    131617.630 3
 91  7 25  1 54 45.0030000  0  3 03 23 17
  21532077.946     3491690.495 4   2720798.553 2
  22455993.632   -10957705.507 4  -8538442.623 2
  21304317.826      182242.208 4    142011.109 3
 91  7 25  1 55  0.0030000  0  3 03 23 17
  21537595.338     3520679.555 4   2743387.421 2
  22451687.424   -10980327.048 4  -8556069.766 2
  21306869.065      195661.698 4    152467.854 3
 91  7 25  1 55 15.0030000  0  3 03 23 17
  21543135.800     3549794.587 4   2766074.451 2
  22447404.879   -11002849.453 4  -8573619.653 2
  21309437.685      209156.083 4    162982.959 3
 91  7 25  1 55 30.0030000  0  3 03 23 17
  21548699.051     3579039.470 4   2788862.664 2
  22443136.434   -11025268.687 4  -8591089.155 2
  21312023.092      222729.349 4    173559.536 3
 91  7 25  1 55 45.0030000  0  3 03 23 17
  21554287.169     3608413.176 4   2811751.238 2
  22438889.277   -11047585.740 4  -8608479.017 2
  21314621.098      236380.553 4    184196.840 3
 91  7 25  1 56  0.0030000  0  3 03 23 17
  21559903.190     3637912.856 4   2834737.989 2
  22434661.613   -11069803.399 4  -8625791.447 2
  21317229.888      250106.553 4    194892.428 3
 91  7 25  1 56 15.0030000  0  3 03 23 17
  21565542.281     3667540.806 4   2857824.693 2
  22430452.813   -11091919.511 4  -8643024.757 2
  21319858.466      263909.467 4    205647.953 3
 91  7 25  1 56 30.0030000  0  3 03 23 17
  21571201.177     3697297.121 4   2881011.438 2
  22426265.615   -11113933.606 4  -8660178.549 2
  21322500.237      277789.244 4    216463.371 3
 91  7 25  1 56 45.0030000  0  3 03 23 17
  21576891.536     3727181.802 4   2904298.193 2
  22422094.909   -11135845.565 4  -8677252.778 2
  21325153.403      291746.034 4    227338.795 3
 91  7 25  1 57  0.0030000  0  3 03 23 17
  21582604.074     3757198.682 4   2927687.963 2
  22417945.788   -11157651.928 4  -8694244.715 2
  21327823.950      305783.449 4    238277.042 3
 91  7 25  1 57 15.0030000  0  3 03 23 17
  21588337.011     3787345.794 4   2951179.200 2
  22413814.344   -11179354.055 4  -8711155.417 2
  21330511.894      319899.522 4    249276.583 3
 91  7 25  1 57 30.0030000  0  3 03 23 17
  21594102.319     3817615.743 4   2974766.169 2
  22409705.690   -11200959.629 4  -8727990.886 2
  21333210.919      334086.378 4    260331.275 3
 91  7 25  1 57 45.0030000  0  3 03 23 17
  21599882.320     3848010.004 4   2998450.004 2
  22405610.526   -11222466.681 4  -8744749.582 2
  21335923.748      348345.857 4    271442.562 3
 91  7 25  1 58  0.0030000  0  3 03 23 17
  21605690.485     3878532.668 4   3022233.875 2
  22401538.744   -11243871.354 4  -8761428.530 2
  21338651.566      362681.627 4    282613.290 3
 91  7 25  1 58 15.0030000  0  3 03 23 17
  21611522.959     3909182.514 4   3046116.868 2
  22397484.343   -11265174.546 4  -8778028.382 2
  21341396.764      377092.481 4    293842.536 3
 91  7 25  1 58 30.0030000  0  3 03 23 17
  21617381.800     3939958.477 4   3070098.140 2
  22393448.230   -11286377.309 4  -8794549.987 2
  21344150.949      391577.498 4    305129.562 3
 91  7 25  1 58 45.0030000  0  3 03 23 17
  21623260.429     3970858.641 4   3094176.171 2
  22389435.517   -11307481.734 4  -8810994.965 2
  21346921.329      406134.405 4    316472.608 3
 91  7 25  1 59  0.0030000  0  3 03 23 17
  21629163.646     4001878.894 4   3118347.785 2
  22385436.887   -11328491.774 4  -8827366.395 2
  21349703.713      420759.256 4    327868.595 3
 91  7 25  1 59 15.0030000  0  3 03 23 17
  21635089.338     4033024.919 4   3142617.405 2
  22381456.248   -11349401.462 4  -8843659.621 2
  21352501.664      435457.526 4    339321.799 3
 91  7 25  1 59 30.0030000  0  3 03 23 17
  21641039.618     4064293.465 4   3166982.494 2
  22377497.178   -11370214.012 4  -8859877.158 2
  21355309.229      450225.919 4    350829.646 3
 91  7 25  1 59 45.0030000  0  3 03 23 17
  21647014.189     4095687.842 4   3191445.623 2
  22373556.116   -11390926.224 4  -8876016.511 2
  21358136.566      465067.676 4    362394.653 3
 91  7 25  2  0  0.0030000  0  3 03 23 17
  21653010.625     4127207.757 4   3216006.597 2
  22369630.323   -11411538.131 4  -8892077.712 2
  21360974.111      479982.482 4    374016.584 3
 91  7 25  2  0 15.0030000  0  3 03 23 17
  21659034.370     4158848.611 4   3240661.804 2
  22365728.821   -11432054.238 4  -8908064.258 2
  21363825.738      494965.611 4    385691.760 3
 91  7 25  2  0 30.0030000  0  3 03 23 17
  21665076.386     4190609.504 4   3265410.532 2
  22361838.417   -11452475.461 4  -8923976.870 2
  21366690.244      510016.020 4    397419.352 3
 91  7 25  2  0 45.0030000  0  3 03 23 17
  21671143.879     4222489.104 4   3290251.767 1
  22357974.101   -11472802.953 4  -8939816.453 2
  21369565.551      525132.403 4    409198.350 3
 91  7 25  2  1  0.0030000  0  3 03 23 17
  21677232.958     4254487.481 4   3315185.556 2
  22354123.257   -11493036.392 4  -8955582.743 2
  21372455.848      540314.846 4    421028.827 3
 91  7 25  2  1 15.0030000  0  3 03 23 17
  21683347.235     4286615.516 4   3340220.373 2
  22350294.313   -11513164.951 4  -8971267.308 2
  21375359.652      555573.714 4    432918.856 3
 91  7 25  2  1 30.0030000  0  3 03 23 17
  21689483.691     4318867.822 4   3365352.023 1
  22346480.061   -11533193.927 4  -8986874.275 2
  21378278.131      570903.900 4    444864.458 3
 91  7 25  2  1 45.0030000  0  3 03 23 17
  21695645.311     4351245.844 4   3390581.656 2
  22342690.380   -11553121.770 4  -9002402.433 2
  21381209.192      586306.662 4    456866.619 3
 91  7 25  2  2  0.0030000  0  3 03 23 17
  21701830.331     4383745.507 4   3415906.047 2
  22338913.891   -11572952.504 4  -9017854.921 2
  21384152.258      601777.828 4    468922.075 3
 91  7 25  2  2 15.0030000  0  3 03 23 17
  21708037.530     4416366.643 4   3441325.103 2
  22335160.192   -11592686.349 4  -9033231.917 2
  21387107.609      617317.203 4    481030.686 3
 91  7 25  2  2 30.0030000  0  3 03 23 17
  21714273.226     4449111.822 4   3466840.807 2
  22331424.171   -11612320.529 4  -9048531.245 2
  21390078.858      632927.521 4    493194.569 3
 91  7 25  2  2 45.0030000  0  3 03 23 17
  21720520.893     4481976.160 4   3492449.384 2
  22327710.345   -11631860.090 4  -9063756.852 2
  21393063.299      648603.531 4    505409.649 3
 91  7 25  2  3  0.0030000  0  3 03 23 17
  21726799.149     4514961.591 4   3518152.293 2
  22324006.118   -11651302.503 4  -9078906.751 2
  21396059.414      664347.218 4    517677.458 3
 91  7 25  2  3 15.0030000  0  3 03 23 17
  21733097.195     4548066.594 4   3543948.398 2
  22320324.960   -11670649.530 4  -9093982.326 2
  21399068.739      680156.953 4    529996.739 3
 91  7 25  2  3 30.0030000  0  3 03 23 17
  21739423.701     4581290.203 4   3569836.914 2
  22316659.698   -11689902.070 4  -9108984.281 2
  21402088.534      696031.678 4    542366.658 3
 91  7 25  2  3 45.0030000  0  3 03 23 17
  21745768.217     4614637.152 4   3595821.544 2
  22313017.227   -11709055.146 4  -9123908.725 2
  21405121.242      711976.251 4    554791.001 3
 91  7 25  2  4  0.0030000  0  3 03 23 17
  21752134.615     4648108.435 4   3621903.034 2
  22309388.838   -11728108.018 4  -9138755.093 2
  21408169.830      727991.584 4    567270.484 3
 91  7 25  2  4 15.0030000  0  3 03 23 17
  21758530.974     4681702.702 4   3648080.383 2
  22305782.332   -11747061.387 4  -9153523.920 2
  21411229.813      744076.152 4    579803.920 3
 91  7 25  2  4 30.0030000  0  3 03 23 17
  21764945.936     4715421.681 4   3674354.891 1
  22302194.410   -11765913.710 4  -9168214.016 2
  21414303.285      760231.507 4    592392.513 3
 91  7 25  2  4 45.0030000  0  3 03 23 17
  21771385.485     4749266.044 4   3700727.132 1
  22298629.872   -11784664.328 4  -9182824.851 2
  21417390.857      776458.575 4    605036.980 3
 91  7 25  2  5  0.0030000  0  3 03 23 17
  21777850.512     4783233.098 4   3727194.952 2
  22295077.636   -11803315.602 4  -9197358.289 2
  21420491.604      792754.674 4    617735.248 3
 91  7 25  2  5 15.0030000  0  3 03 23 17
  21784336.513     4817326.122 4   3753760.929 2
  22291545.188   -11821864.177 4  -9211811.687 2
  21423608.247      809122.832 4    630489.657 3
 91  7 25  2  5 30.0030000  0  3 03 23 17
  21790849.214     4851545.517 4   3780425.375 2
  22288038.811   -11840309.729 4  -9226184.828 2
  21426735.082      825563.324 4    643300.431 3
 91  7 25  2  5 45.0030000  0  3 03 23 17
  21797387.985     4885883.813 4   3807182.490 1
  22284546.534   -11858659.800 4  -9240483.555 2
  21429877.203      842068.520 4    656161.631 3
 91  7 25  2  6  0.0030000  0  3 03 23 17
  21803942.339     4920344.270 4   3834034.791 2
  22281074.028   -11876910.928 4  -9254705.186 2
  21433032.517      858641.956 4    669076.001 3
 91  7 25  2  6 15.0030000  0  3 03 23 17
  21810525.189     4954930.212 4   3860984.857 2
  22277619.234   -11895059.512 4  -9268846.920 2
  21436197.428      875286.807 4    682046.014 3
 91  7 25  2  6 30.0030000  0  3 03 23 17
  21817128.125     4989643.305 4   3888033.994 2
  22274188.695   -11913103.951 4  -9282907.496 2
  21439380.330      892004.447 4    695072.746 3
 91  7 25  2  6 45.0030000  0  3 03 23 17
  21823757.131     5024481.834 4   3915180.910 2
  22270773.461   -11931045.678 4  -9296888.020 2
  21442576.721      908793.617 4    708155.226 3
 91  7 25  2  7  0.0030000  0  3 03 23 17
  21830412.225     5059450.398 4   3942429.126 2
  22267378.608   -11948880.103 4  -9310784.957 2
  21445782.693      925658.401 4    721296.616 3
 91  7 25  2  7 15.0030000  0  3 03 23 17
  21837093.390     5094545.866 4   3969776.229 2
  22264006.249   -11966610.044 4  -9324600.464 2
  21449006.969      942595.694 4    734494.510 3
 91  7 25  2  7 30.0030000  0  3 03 23 17
  21843794.954     5129771.015 4   3997224.381 2
  22260652.474   -11984233.060 4  -9338332.658 2
  21452245.625      959608.343 4    747751.118 3
 91  7 25  2  7 45.0030000  0  3 03 23 17
  21850522.903     5165127.542 4   4024774.919 2
  22257319.675   -12001747.204 4  -9351980.014 2
  21455497.770      976698.117 4    761067.827 3
 91  7 25  2  8  0.0030000  0  3 03 23 17
  21857273.032     5200615.054 4   4052427.509 2
  22254005.180   -12019152.655 4  -9365542.670 2
  21458763.404      993864.452 4    774444.195 3
 91  7 25  2  8 15.0030000  0  3 03 23 17
  21864051.638     5236233.673 4   4080182.262 2
  22250718.554   -12036449.160 4  -9379020.448 2
  21462043.730     1011107.591 4    787880.407 3
 91  7 25  2  8 30.0030000  0  3 03 23 17
  21870851.517     5271975.249 4   4108032.829 2
  22247443.619   -12053645.160 4  -9392419.900 2
  21465340.548     1028419.242 4    801370.005 3
 91  7 25  2  8 45.0030000  0  3 03 23 17
  21877681.096     5307844.646 4   4135982.997 2
  22244190.270   -12070735.317 4  -9405736.875 2
  21468646.963     1045804.282 4    814916.792 3
 91  7 25  2  9  0.0030000  0  3 03 23 17
  21884528.649     5343835.176 4   4164027.565 2
  22240959.397   -12087726.216 4  -9418976.511 2
  21471968.071     1063255.867 4    828515.430 3
 91  7 25  2  9 15.0030000  0  3 03 23 17
  21891403.197     5379954.709 4   4192172.629 2
  22237742.031   -12104609.820 4  -9432132.542 2
  21475306.262     1080782.027 4    842172.174 3
 91  7 25  2  9 30.0030000  0  3 03 23 17
  21898301.425     5416206.703 4   4220420.919 2
  22234554.033   -12121382.915 4  -9445202.460 2
  21478651.347     1098385.683 4    855889.310 3
 91  7 25  2  9 45.0030000  0  3 03 23 17
  21905227.521     5452585.987 4   4248768.402 1
  22231380.135   -12138050.509 4  -9458190.165 2
  21482015.609     1116061.911 4    869662.997 3
 91  7 25  2 10  0.0030000  0  3 03 23 17
  21912168.921     5489089.435 4   4277212.645 1
  22228228.120   -12154615.291 4  -9471097.759 2
  21485392.767     1133808.036 4    883491.144 3
 91  7 25  2 10 15.0030000  0  3 03 23 17
  21919139.986     5525713.486 4   4305750.833 2
  22225095.282   -12171081.212 4  -9483928.325 2
  21488785.229     1151619.978 4    897370.579 3
 91  7 25  2 10 30.0030000  0  3 03 23 17
  21926129.060     5562458.730 4   4334383.486 1
  22221978.953   -12187447.178 4  -9496680.997 2
  21492183.363     1169498.632 4    911301.999 3
 91  7 25  2 10 45.0030000  0  3 03 23 17
  21933148.393     5599323.366 4   4363109.155 1
  22218883.895   -12203715.202 4  -9509357.351 2
  21495598.004     1187441.821 4    925283.710 3
 91  7 25  2 11  0.0030000  0  3 03 23 17
  21940184.827     5636313.785 4   4391932.838 1
  22215810.109   -12219878.591 4  -9521952.173 2
  21499025.541     1205456.083 4    939320.796 3
 91  7 25  2 11 15.0030000  0  4 03 23 17 21
  21947249.740     5673432.672 4   4420856.637 2
  22212753.424   -12235934.824 4  -9534463.496 2
  21502471.941     1223543.882 4    953415.181 3
  26070441.702           0.331 2         0.145 1
 91  7 25  2 11 30.0030000  0  4 03 23 17 21
  21954338.035     5710677.738 4   4449878.750 2
  22209718.325   -12251885.619 4  -9546892.669 2
  21505922.565     1241703.372 4    967565.434 3
  26062815.590      -40121.129 2    -31263.147 1
 91  7 25  2 11 45.0030000  0  4 03 23 17 21
  21961446.399     5748047.398 4   4478997.954 2
  22206703.922   -12267732.648 4  -9559240.971 2
  21509396.554     1259932.536 4    981769.972 3
  26055188.571      -80218.585 2    -62508.141 1
 91  7 25  2 12  0.0030000  0  4 03 23 17 21
  21968586.557     5785542.292 4   4508214.721 2
  22203706.289   -12283475.389 4  -9571508.012 2
  21512875.639     1278232.017 4    996029.308 3
  26047553.752     -120291.272 2    -93733.451 1
 91  7 25  2 12 15.0030000  0  4 03 23 17 21
  21975742.019     5823167.407 4   4537532.970 2
  22200735.354   -12299108.565 4  -9583689.679 2
  21516373.622     1296607.030 4   1010347.492 3
  26039932.421     -160333.985 2   -124935.420 1
 91  7 25  2 12 30.0030000  0  4 03 23 17 21
  21982927.128     5860920.729 4   4566951.140 2
  22197777.595   -12314634.039 4  -9595787.432 2
  21519882.687     1315055.463 4   1024722.900 3
  26032323.690     -200348.509 2   -156115.340 1
 91  7 25  2 12 45.0030000  0  4 03 23 17 21
  21990134.138     5898804.400 4   4596470.866 1
  22194842.328   -12330049.593 4  -9607799.521 2
  21523409.149     1333579.508 4   1039157.212 3
  26024713.162     -240332.462 2   -187271.911 1
 91  7 25  2 13  0.0030000  0  4 03 23 17 21
  21997371.145     5936813.729 4   4626088.505 2
  22191931.946   -12345359.934 4  -9619729.636 2
  21526946.709     1352174.123 4   1053646.517 3
  26017102.930     -280290.487 2   -218407.852 1
 91  7 25  2 13 15.0030000  0  4 03 23 17 21
  22004626.422     5974946.934 4   4655802.679 1
  22189035.350   -12360566.716 4  -9631579.053 2
  21530498.945     1370837.797 4   1068189.641 3
  26009509.188     -320223.887 2   -249524.798 1
 91  7 25  2 13 30.0030000  0  4 03 23 17 21
  22011905.082     6013208.998 4   4685617.258 2
  22186164.841   -12375664.865 4  -9643343.810 2
  21534064.374     1389575.281 4   1082790.282 3
  26001916.651     -360127.786 2   -280618.577 1
 91  7 25  2 13 45.0030000  0  4 03 23 17 21
  22019214.019     6051598.637 4   4715531.242 2
  22183309.322   -12390655.452 4  -9655024.759 2
  21537642.401     1408385.506 4   1097447.599 3
  25994328.598     -400002.927 2   -311690.162 1
 91  7 25  2 14  0.0030000  0  4 03 23 17 21
  22026540.336     6090102.468 4   4745534.212 1
  22180475.372   -12405551.910 4  -9666632.365 2
  21541233.918     1427254.988 4   1112151.083 3
  25986739.952     -439862.736 2   -342749.827 1
 91  7 25  2 14 15.0030000  0  4 03 23 17 21
  22033889.163     6128728.326 4   4775632.274 2
  22177662.118   -12420346.119 4  -9678160.293 2
  21544838.627     1446191.356 4   1126906.691 3
  25979162.701     -479699.156 2   -373790.991 1
 91  7 25  2 14 30.0030000  0  4 03 23 17 21
  22041265.248     6167475.495 4   4805824.854 1
  22174864.761   -12435038.815 4  -9689609.113 2
  21548456.214     1465194.117 4   1141714.046 3
  25971591.139     -519512.751 2   -404814.330 1
 91  7 25  2 14 45.0030000  0  4 03 23 17 21
  22048660.232     6206349.395 4   4836116.185 1
  22172087.489   -12449624.263 4  -9700974.374 2
  21552082.509     1484268.738 4   1156577.384 3
  25964023.486     -559297.676 2   -435815.399 1
 91  7 25  2 15  0.0030000  0  4 03 23 17 21
  22056083.397     6245345.540 4   4866502.772 1
  22169333.286   -12464107.166 4  -9712259.717 2
  21555726.184     1503410.672 4   1171493.171 3
  25956446.828     -599058.469 2   -466798.046 1
 91  7 25  2 15 15.0030000  0  3 03 23 17
  22063527.538     6284463.052 4   4896983.935 1
  22166594.090   -12478488.226 4  -9723465.720 2
  21559380.050     1522619.099 4   1186460.776 3
 91  7 25  2 15 30.0030000  0  3 03 23 17
  22070995.376     6323706.381 4   4927563.135 1
  22163879.465   -12492762.773 4  -9734588.725 2
  21563049.814     1541898.764 4   1201483.891 3
 91  7 25  2 15 45.0030000  0  3 03 23 17
  22078488.081     6363076.076 4   4958240.812 2
  22161183.127   -12506930.234 4  -9745628.278 2
  21566730.955     1561249.707 4   1216562.553 3
 91  7 25  2 16  0.0030000  0  3 03 23 17
  22086002.685     6402569.468 4   4989014.876 2
  22158508.689   -12520993.099 4  -9756586.324 2
  21570428.307     1580669.502 4   1231694.850 3
 91  7 25  2 16 15.0030000  0  3 03 23 17
  22093541.860     6442188.789 4   5019887.052 1
  22155850.724   -12534949.207 4  -9767461.188 2
  21574137.630     1600160.030 4   1246882.265 3
 91  7 25  2 16 30.0030000  0  3 03 23 17
  22101103.825     6481935.330 4   5050858.363 1
  22153218.254   -12548796.797 4  -9778251.493 2
  21577859.866     1619723.007 4   1262126.145 3
 91  7 25  2 16 45.0030000  0  4 03 23 17 21
  22108692.767     6521809.531 4   5081929.165 2
  22150600.163   -12562535.766 4  -9788957.158 2
  21581598.575     1639358.650 4   1277426.648 3
  25903640.480      273844.73412    213386.515 1
 91  7 25  2 17  0.0030000  0  4 03 23 17 21
  22116301.498     6561810.590 4   5113098.801 1
  22148011.144   -12576166.627 4  -9799578.578 2
  21585347.475     1659066.372 4   1292783.312 3
  25896098.600      234312.135 2    182581.983 1
 91  7 25  2 17 15.0030000  0  4 03 23 17 21
  22123938.708     6601939.948 4   5144368.406 1
  22145435.038   -12589687.878 4  -9810114.597 2
  21589111.365     1678847.349 4   1308197.050 3
  25888585.514      194811.518 2    151802.392
 91  7 25  2 17 30.0040000  0  4 03 23 17 21
  22131602.010     6642199.052 4   5175739.140 2
  22142883.209   -12603101.312 4  -9820566.596 2
  21592890.544     1698702.057 4   1323668.259 3
  25881077.805      155339.797 2    121045.384 1
 91  7 25  2 17 45.0040000  0  4 03 23 17 21
  22139284.800     6682582.518 4   5207206.755 1
  22140352.352   -12616405.223 4  -9830933.251 2
  21596678.132     1718627.538 4   1339194.605 3
  25873577.597      115901.957 2     90314.707
 91  7 25  2 18  0.0040000  0  4 03 23 17 21
  22146995.161     6723092.123 4   5238772.653 1
  22137841.597   -12629601.203 4  -9841215.805 2
  21600488.195     1738624.334 4   1354776.523 3
  25866074.387       76494.771 2     59607.973 1
 91  7 25  2 18 15.0040000  0  4 03 23 17 21
  22154726.794     6763728.956 4   5270437.715 1
  22135348.519   -12642688.040 4  -9851413.314 2
  21604303.650     1758693.413 4   1370414.764 3
  25858579.274       37119.567 2     28926.139
 91  7 25  2 18 30.0040000  0  4 03 23 17 21
  22162483.939     6804493.045 4   5302201.917 1
  22132882.419   -12655665.808 4  -9861525.840 2
  21608139.504     1778834.958 4   1386109.479 3
  25851090.461       -2223.642 2     -1730.821 1
 91  7 25  2 18 45.0040000  0  4 03 23 17 21
  22170265.637     6845385.106 4   5334065.851 2
  22130436.126   -12668533.453 4  -9871552.547 2
  21611983.735     1799049.772 4   1401861.287 3
  25843604.946      -41533.589 2    -32361.795 1
 91  7 25  2 19  0.0040000  0  4 03 23 17 21
  22178069.235     6886404.798 4   5366029.219 1
  22128003.897   -12681291.439 4  -9881493.816 2
  21615846.253     1819337.489 4   1417669.892 3
  25836144.908      -80810.554 2    -62967.042 1
 91  7 25  2 19 15.0040000  0  4 03 23 17 21
  22185899.828     6927551.842 4   5398091.824 1
  22125596.570   -12693939.830 4  -9891349.670 2
  21619718.684     1839697.746 4   1433535.027 3
  25828663.895     -120054.646 2    -93546.646 1
 91  7 25  2 19 30.0040000  0  4 03 23 17 21
  22193757.085     6968824.612 4   5430252.412 1
  22123209.624   -12706480.118 4  -9901121.307 2
  21623607.883     1860129.090 4   1449455.555 3
  25821205.951     -159267.115 2   -124101.698 1
 91  7 25  2 19 45.0040000  0  4 03 23 17 21
  22201633.223     7010225.057 4   5462512.491 2
  22120845.154   -12718910.409 4  -9910807.217 2
  21627509.979     1880633.185 4   1465432.775 3
  25813743.226     -198445.972 2   -154630.509 1
 91  7 25  2 20  0.0040000  0  4 03 23 17 21
  22209533.652     7051752.844 4   5494871.789 1
  22118502.882   -12731230.719 4  -9920407.443 2
  21631424.970     1901210.133 4   1481466.761 3
  25806309.259     -237591.294 2   -185133.194 1
 91  7 25  2 20 15.0040000  0  4 03 23 17 21
  22217463.171     7093415.127 4   5527335.880 2
  22116178.582   -12743433.797 4  -9929916.310 2
  21635355.562     1921866.843 4   1497562.896 3
  25798864.524     -276695.688 2   -215603.975 1
 91  7 25  2 20 30.0040000  0  4 03 23 17 21
  22225423.559     7135228.910 4   5559918.038 1
  22113883.076   -12755502.553 4  -9939320.505 2
  21639305.925     1942620.361 4   1513734.475 3
  25791432.355     -315741.845 2   -246029.450 1
 91  7 25  2 20 45.0040000  0  4 03 23 17 21
  22233399.233     7177168.167 4   5592597.942 1
  22111607.062   -12767463.035 4  -9948640.337 2
  21643267.979     1963444.817 4   1529961.324 3
  25784014.895     -354755.576 2   -276429.614 1
 91  7 25  2 21  0.0040000  0  4 03 23 17 21
  22241405.201     7219238.567 4   5625380.064 2
  22109352.022   -12779309.418 4  -9957871.267 2
  21647246.228     1984345.708 4   1546247.725 3
  25776596.528     -393730.993 2   -306799.892 1
 91  7 25  2 21 15.0040000  0  4 03 23 17 21
  22249433.942     7261439.631 4   5658263.986 1
  22107118.255   -12791041.995 4  -9967013.513 2
  21651234.667     2005322.741 4   1562593.471 3
  25769177.568     -432668.308 2   -337140.538
 91  7 25  2 21 30.0040000  0  4 03 23 17 21
  22257496.257     7303769.137 4   5691247.982 1
  22104909.092   -12802662.789 4  -9976068.650 2
  21655241.394     2026373.668 4   1578996.792 3
  25761782.585     -471569.404 2   -367453.326 1
 91  7 25  2 21 45.0040000  0  4 03 23 17 21
  22265574.765     7346223.995 4   5724329.684 2
  22102719.107   -12814174.720 4  -9985038.962 2
  21659262.500     2047495.681 4   1595455.502 3
  25754384.303     -510437.197 2   -397739.868 1
 91  7 25  2 22  0.0040000  0  4 03 23 17 21
  22273671.858     7388783.583 4   5757492.989 1
  22100542.908   -12825598.458 4  -9993940.561 2
  21663290.516     2068667.909 4   1611953.338 3
  25746985.725     -549292.187 2   -428016.430 1
 91  7 25  2 22 15.0040000  0  4 03 23 17 21
  22281795.929     7431468.361 4   5790753.820 1
  22098391.000   -12836913.472 4 -10002757.430 2
  21667333.522     2089910.937 4   1628506.357 3
  25739601.840     -588113.655 2   -458267.161 1
 91  7 25  2 22 30.0040000  0  4 03 23 17 21
  22289940.399     7474278.380 4   5824112.264 2
  22096258.583   -12848119.516 4 -10011489.388 2
  21671391.501     2111224.768 4   1645114.542 3
  25732220.363     -626901.206 2   -488491.065 1
 91  7 25  2 22 45.0040000  0  4 03 23 17 21
  22298112.441     7517216.747 4   5857570.702 2
  22094144.140   -12859213.368 4 -10020133.927 2
  21675461.188     2132612.536 4   1661780.322 3
  25724846.651     -665651.781 2   -518686.159 1
 91  7 25  2 23  0.0040000  0  3 03 23 17
  22306303.975     7560281.563 4   5891127.690 1
  22092058.193   -12870196.949 4 -10028692.541 2
  21679542.270     2154072.524 4   1678502.397 3
 91  7 25  2 23 15.0040000  0  3 03 23 17
  22314523.079     7603472.790 4   5924783.175 2
  22089987.516   -12881069.970 4 -10037165.007 2
  21683641.030     2175604.684 4   1695280.702 3
 91  7 25  2 23 30.0040000  0  3 03 23 17
  22322772.164     7646789.632 4   5958536.526 1
  22087938.145   -12891833.480 4 -10045552.131 2
  21687752.982     2197208.036 4   1712114.480 3
 91  7 25  2 23 45.0040000  0  4 03 23 17 21
  22331038.035     7690231.214 4   5992387.090 1
  22085913.047   -12902487.865 4 -10053854.227 2
  21691876.329     2218882.058 4   1729003.323 3
  25695422.024      289796.62712    225818.853 1
 91  7 25  2 24  0.0040000  0  4 03 23 17 21
  22339328.512     7733800.343 4   6026337.034 1
  22083904.440   -12913030.311 4 -10062069.099 2
  21696013.758     2240629.456 4   1745949.343 3
  25688080.404      265374.163 2    206788.514 1
 91  7 25  2 24 15.0040000  0  4 03 23 17 21
  22347640.242     7777494.834 4   6060384.677 1
  22081919.512   -12923462.874 4 -10070198.350 2
  21700166.194     2262448.191 4   1762950.951 3
  25680741.191      226837.338 2    176759.616 1
 91  7 25  2 24 30.0040000  0  4 03 23 17 21
  22355980.783     7821315.051 4   6094530.295 2
  22079954.373   -12933785.061 4 -10078241.596 2
  21704334.510     2284338.716 4   1780008.502 3
  25673407.667      188336.711 2    146759.158 1
 91  7 25  2 24 45.0040000  0  4 03 23 17 21
  22364341.095     7865260.065 4   6128773.123 2
  22078010.506   -12943997.650 4 -10086199.429 2
  21708511.813     2306299.997 4   1797121.181 3
  25666103.530      149871.527 2    116786.359 1
 91  7 25  2 25  0.0040000  0  4 03 23 17 21
  22372727.775     7909330.213 4   6163113.474 1
  22076092.431   -12954100.275 4 -10094071.588 2
  21712702.902     2328332.384 4   1814289.276 3
  25658785.589      111442.465 2     86841.817 1
 91  7 25  2 25 15.0040000  0  4 03 23 17 21
  22381139.355     7953528.286 4   6197553.497 1
  22074189.956   -12964090.146 4 -10101855.884 2
  21716910.795     2350438.886 4   1831515.123 3
  25651476.059       73052.484 2     56927.300 1
 91  7 25  2 25 30.0040000  0  4 03 23 17 21
  22389578.525     7997851.946 4   6232091.397 1
  22072309.956   -12973969.316 4 -10109553.913 2
  21721130.083     2372617.151 4   1848796.882 3
  25644177.314       34699.377 2     27041.868 1
 91  7 25  2 25 45.0040000  0  4 03 23 17 21
  22398030.870     8042303.191 3   6266728.719 1
  22070450.339   -12983735.523 4 -10117163.921 2
  21725366.141     2394869.260 4   1866136.176 3
  25636890.242       -3614.351 2     -2813.164 1
 91  7 25  2 26  0.0040000  0  4 03 23 17 21
  22406512.600     8086883.677 4   6301466.729 1
  22068612.622   -12993387.325 4 -10124684.788 2
  21729616.892     2417196.672 4   1883534.153 3
  25629607.987      -41887.081 2    -32635.867 1
 91  7 25  2 26 15.0040000  0  4 03 23 17 21
  22415025.200     8131591.967 4   6336304.362 1
  22066800.364   -13002925.803 4 -10132117.354 2
  21733877.258     2439598.259 4   1900989.937 3
  25622328.734      -80119.847 2    -62427.881 1
 91  7 25  2 26 30.0040000  0  4 03 23 17 21
  22423558.200     8176427.876 4   6371241.397 1
  22065005.522   -13012351.239 4 -10139461.829 2
  21738155.283     2462073.937 4   1918503.452 3
  25615057.856     -118312.678 2    -92188.313 1
 91  7 25  2 26 45.0040000  0  4 03 23 17 21
  22432111.564     8221393.833 3   6406279.772 1
  22063233.435   -13021661.109 4 -10146716.253 2
  21742445.018     2484626.001 4   1936076.488 3
  25607800.485     -156462.856 2   -121915.499 1
 91  7 25  2 27  0.0040000  0  4 03 23 17 21
  22440691.033     8266483.993 3   6441414.939 1
  22061482.951   -13030860.816 4 -10153884.831 2
  21746752.744     2507248.849 4   1953704.672 3
  25600549.117     -194576.010 2   -151613.834 1
 91  7 25  2 27 15.0040000  0  4 03 23 17 21
  22449295.683     8311704.741 3   6476651.848 1
  22059754.647   -13039944.012 4 -10160962.630 2
  21751071.847     2529948.969 4   1971393.077 3
  25593308.219     -232645.286 2   -181278.024 1
 91  7 25  2 27 30.0040000  0  4 03 23 17 21
  22457926.107     8357050.199 3   6511985.939 1
  22058047.928   -13048916.542 4 -10167954.188 2
  21755403.846     2552720.498 4   1989137.123 3
  25586067.635     -270676.470 2   -210912.505 1
 91  7 25  2 27 45.0040000  0  4 03 23 17 21
  22466584.713     8402521.571 4   6547418.158 1
  22056360.091   -13057776.970 4 -10174858.396 3
  21759751.446     2575564.637 4   2006937.754 3
  25578833.944     -308668.325 2   -240516.384 1
 91  7 25  2 28  0.0040000  0  4 03 23 17 21
  22475252.603     8448116.733 3   6582946.854 1
  22054694.747   -13066527.089 4 -10181676.649 2
  21764113.424     2598479.205 4   2024793.259 3
  25571614.038     -346622.447 2   -270090.855
 91  7 25  2 28 15.0040000  0  4 03 23 17 21
  22483958.586     8493839.826 4   6618575.195 1
  22053055.194   -13075162.948 4 -10188405.878 2
  21768484.687     2621468.496 4   2042706.998 3
  25564401.340     -384534.609 2   -299632.655 1
 91  7 25  2 28 30.0040000  0  4 03 23 17 21
  22492678.949     8539692.862 3   6654304.817 1
  22051429.410   -13083682.426 4 -10195044.405 2
  21772874.551     2644534.526 4   2060680.516 3
  25557196.424     -422402.532 2   -329140.037 1
 91  7 25  2 28 45.0040000  0  4 03 23 17 21
  22501432.885     8585673.057 3   6690133.497 2
  22049830.918   -13092088.188 4 -10201594.324 2
  21777278.497     2667674.663 4   2078711.792 3
  25549995.103     -460228.673 2   -358614.816 1
 91  7 25  2 29  0.0040000  0  4 03 23 17 21
  22510202.405     8631779.074 3   6726060.254 1
  22048252.214   -13100381.303 4 -10208056.474 2
  21781696.543     2690887.901 4   2096800.034 3
  25542804.881     -498013.942 2   -388057.726 1
 91  7 25  2 29 15.0040000  0  4 03 23 17 21
  22519004.312     8678010.714 3   6762084.880 1
  22046695.986   -13108561.998 4 -10214431.022 2
  21786126.281     2714173.677 4   2114944.796 3
  25535620.364     -535758.476 2   -417468.892 1
 91  7 25  2 29 30.0040000  0  4 03 23 17 21
  22527822.117     8724365.458 3   6798205.421 1
  22045159.250   -13116632.556 4 -10220719.750 2
  21790573.102     2737529.795 4   2133144.360 3
  25528456.212     -573464.290 2   -446849.847 1
 91  7 25  2 29 45.0040000  0  4 03 23 17 21
  22536665.695     8770846.905 3   6834424.721 1
  22043647.398   -13124589.345 4 -10226919.816 2
  21795029.522     2760959.826 4   2151401.525 3
  25521283.981     -611127.737 2   -476197.873 1
 91  7 25  2 30  0.0040000  0  4 03 23 17 21
  22545539.846     8817454.683 3   6870742.436 1
  22042155.335   -13132432.503 4 -10233031.352 2
  21799505.712     2784463.566 5   2169716.118 3
  25514119.549     -648748.884 2   -505513.061 1
 91  7 25  2 30 15.0040000  0  4 03 23 17 21
  22554430.488     8864188.142 3   6907158.097 1
  22040681.856   -13140162.839 4 -10239054.971 2
  21803992.407     2808040.257 5   2188087.573 3
  25506970.387     -686328.248 2   -534795.868
 91  7 25  2 30 30.0040000  0  4 03 23 17 21
  22563347.811     8911046.245 3   6943670.867 1
  22039235.058   -13147780.931 4 -10244991.130 2
  21808492.295     2831689.288 4   2206515.379 3
  25499815.554     -723866.453 2   -564046.327 1
 91  7 25  2 30 45.0040000  0  4 03 23 17 21
  22572287.034     8958029.123 3   6980280.866 1
  22037804.140   -13155286.497 4 -10250839.594 2
  21813003.577     2855410.320 4   2224999.293 3
  25492690.979     -761363.136 2   -593264.319 1
 91  7 25  2 31  0.0040000  0  4 03 23 17 21
  22581255.922     9005135.969 3   7016987.477 1
  22036395.419   -13162680.289 4 -10256600.984 2
  21817531.630     2879202.938 4   2243538.998 3
  25485556.213     -798818.859 2   -622450.474 1
 91  7 25  2 31 15.0040000  0  4 03 23 17 21
  22590246.100     9052372.709 3   7053795.320 1
  22035012.786   -13169956.203 4 -10262270.505 2
  21822073.485     2903073.359 4   2262139.329 3
  25478447.535     -836227.290 2   -651600.148 1
 91  7 25  2 31 30.0040000  0  4 03 23 17 21
  22599252.768     9099736.647 3   7090702.248 1
  22033652.018   -13177117.188 4 -10267850.473 2
  21826630.941     2927018.716 4   2280798.042 3
  25471336.467     -873591.141 2   -680714.777 1
 91  7 25  2 31 45.0040000  0  4 03 23 17 21
  22608290.899     9147221.319 3   7127703.265 1
  22032312.539   -13184169.233 4 -10273345.546 2
  21831199.478     2951032.737 4   2299510.265 3
  25464231.384     -910916.570 2   -709799.457 1
 91  7 25  2 32  0.0040000  0  4 03 23 17 21
  22617350.040     9194829.003 3   7164800.137 1
  22030988.958   -13191109.988 4 -10278753.906 2
  21835783.598     2975117.828 4   2318277.868 3
  25457133.787     -948200.878 2   -738852.035 1
 91  7 25  2 32 15.0040000  0  4 03 23 17 21
  22626431.953     9242560.269 3   7201993.308 1
  22029689.056   -13197938.769 4 -10284075.020 2
  21840380.613     2999274.678 4   2337101.386 3
  25450048.492     -985443.312 2   -767871.959 1
 91  7 25  2 32 30.0040000  0  4 03 23 17 21
  22635540.234     9290416.465 3   7239283.841 1
  22028411.054   -13204654.099 4 -10289307.731 2
  21844990.821     3023504.451 5   2355981.723 3
  25442973.389    -1022642.414 2   -796858.080 1
 91  7 25  2 32 45.0040000  0  4 03 23 17 21
  22644671.619     9338396.525 3   7276670.870 1
  22027155.215   -13211256.948 4 -10294452.785 2
  21849616.333     3047806.245 5   2374918.182 3
  25435901.287    -1059798.847 2   -825811.067 1
 91  7 25  2 33  0.0040000  0  4 03 23 17 21
  22653824.590     9386499.349 3   7314153.554 1
  22025917.383   -13217748.346 4 -10299510.999 2
  21854255.613     3072179.176 5   2393910.072 3
  25428842.377    -1096913.350 2   -854731.301 1
 91  7 25  2 33 15.0040000  0  4 03 23 17 21
  22663001.223     9434723.414 3   7351730.723 1
  22024704.715   -13224129.746 4 -10304483.504 2
  21858907.492     3096621.893 5   2412956.336 3
  25421778.669    -1133987.192 2   -883619.974 1
 91  7 25  2 33 30.0040000  0  4 03 23 17 21
  22672202.164     9483071.176 3   7389404.286 1
  22023511.539   -13230398.483 4 -10309368.220 2
  21863571.063     3121136.831 5   2432058.878 3
  25414735.638    -1171017.640 2   -912474.673 1
 91  7 25  2 33 45.0040000  0  4 03 23 17 21
  22681423.174     9531542.570 3   7427174.152 1
  22022339.356   -13236554.429 4 -10314165.042 2
  21868252.031     3145723.845 4   2451217.583 3
  25407696.221    -1208004.535 2   -941295.451 1
 91  7 25  2 34  0.0040000  0  4 03 23 17 21
  22690673.569     9580138.363 3   7465041.022 1
  22021190.242   -13242596.789 4 -10318873.354 3
  21872941.079     3170383.872 4   2470433.194 3
  25400656.489    -1244946.782 2   -970081.455 1
 91  7 25  2 34 15.0040000  0  4 03 23 17 21
  22699941.659     9628856.768 3   7503003.391 2
  22020064.231   -13248527.211 4 -10323494.453 2
  21877647.822     3195115.314 4   2489704.442 3
  25393645.550    -1281845.879 2   -998833.915 1
 91  7 25  2 34 30.0040000  0  4 03 23 17 21
  22709234.929     9677697.558 3   7541061.117 1
  22018954.694   -13254345.702 4 -10328028.318 2
  21882365.052     3219918.102 4   2509031.288 3
  25386633.092    -1318701.925 2  -1027552.812 1
 91  7 25  2 34 45.0040000  0  4 03 23 17 21
  22718553.380     9726659.678 3   7579213.388 1
  22017868.244   -13260053.044 4 -10332475.579 2
  21887099.383     3244791.354 4   2528413.043 3
  25379623.951    -1355515.553 2  -1056238.728 1
 91  7 25  2 35  0.0040000  0  4 03 23 17 21
  22727897.012     9775744.111 3   7617460.989 1
  22016804.583   -13265648.432 4 -10336835.613 2
  21891847.797     3269735.985 4   2547850.421 3
  25372632.486    -1392285.706 2  -1084890.602 1
 91  7 25  2 35 15.0040000  0  4 03 23 17 21
  22737260.118     9824948.702 3   7655802.219 1
  22015759.804   -13271133.750 4 -10341109.871 2
  21896609.385     3294750.062 4   2567341.901 3
  25365645.524    -1429014.075 2  -1113510.081 1
 91  7 25  2 35 30.0040000  0  4 03 23 17 21
  22746648.423     9874275.259 3   7694238.472 1
  22014737.221   -13276507.228 4 -10345296.989 2
  21901381.496     3319835.457 4   2586888.957 3
  25358653.169    -1465698.610 2  -1142095.320 1
 91  7 25  2 35 45.0040000  0  4 03 23 17 21
  22756055.312     9923722.493 3   7732768.755 1
  22013734.706   -13281769.848 4 -10349397.713 2
  21906165.875     3344990.950 4   2606490.636 2
  25351687.496    -1502340.356 2  -1170647.224 1
 91  7 25  2 36  0.0040000  0  4 03 23 17 21
  22765484.991     9973290.854 3   7771393.449 1
  22012760.076   -13286920.992 4 -10353411.576 2
  21910968.855     3370217.038 5   2626147.322 2
  25344724.510    -1538938.408 2  -1199165.049 1
 91  7 25  2 36 15.0040000  0  4 03 23 17 21
  22774943.742    10022980.263 3   7810112.436 1
  22011795.952   -13291960.757 4 -10357338.653 3
  21915783.510     3395513.654 5   2645858.969 3
  25337773.826    -1575492.657 2  -1227648.791 1
 91  7 25  2 36 30.0040000  0  4 03 23 17 21
  22784420.466    10072793.686 3   7848928.084 1
  22010859.102   -13296885.878 4 -10361176.396 2
  21920611.671     3420883.980 5   2665628.044 3
  25330818.937    -1611999.888 2  -1256095.928 1
 91  7 25  2 36 45.0040000  0  4 03 23 17 21
  22793923.296    10122729.498 3   7887839.060 1
  22009946.839   -13301697.892 4 -10364926.008 2
  21925451.227     3446326.482 5   2685453.369 3
  25323879.946    -1648461.405 2  -1284507.381 1
 91  7 25  2 37  0.0040000  0  4 03 23 17 21
  22803448.306    10172785.500 3   7926843.710 1
  22009047.159   -13306399.081 4 -10368589.265 2
  21930306.663     3471839.069 5   2705333.303 3
  25316946.346    -1684879.355 2  -1312884.881 1
 91  7 25  2 37 15.0040000  0  4 03 23 17 21
  22813002.091    10222961.567 3   7965941.932 1
  22008179.255   -13310989.240 4 -10372165.995 2
  21935174.995     3497421.767 4   2725267.866 3
  25310034.629    -1721253.418 2  -1341228.185 1
 91  7 25  2 37 30.0040000  0  4 03 23 17 21
  22822569.364    10273255.356 3   8005131.859 1
  22007323.653   -13315470.671 4 -10375658.005 2
  21940057.723     3523072.428 4   2745255.394 3
  25303113.611    -1757585.683 2  -1369538.877 1
 91  7 25  2 37 45.0040000  0  4 03 23 17 21
  22832160.318    10323661.768 3   8044409.556 1
  22006489.323   -13319848.140 4 -10379069.000 2
  21944948.234     3548786.011 4   2765291.957 3
  25296213.603    -1793880.722 2  -1397820.680 1
 91  7 25  2 38  0.0040000  0  4 03 23 17 21
  22841774.376    10374182.839 3   8083776.592 1
  22005677.190   -13324119.900 4 -10382397.637 2
  21949855.235     3574564.493 4   2785379.091 3
  25289304.573    -1830136.516 2  -1426071.818 1
 91  7 25  2 38 15.0040000  0  4 03 23 17 21
  22851414.190    10424828.137 3   8123240.441 1
  22004887.236   -13328276.038 4 -10385636.170 2
  21954771.223     3600417.686 4   2805524.438 3
  25282417.740    -1866343.169 2  -1454284.710 1
 91  7 25  2 38 30.0040000  0  4 03 23 17 21
  22861075.905    10475601.841 3   8162804.343 1
  22004118.868   -13332311.986 4 -10388781.056 3
  21959710.001     3626350.025 4   2825731.460 3
  25275543.802    -1902496.101 2  -1482455.773 1
 91  7 25  2 38 45.0040000  0  4 03 23 17 21
  22870758.612    10526491.453 3   8202458.579 1
  22003371.789   -13336240.208 4 -10391842.007 2
  21964656.876     3652349.068 4   2845990.452 3
  25268668.957    -1938607.506 2  -1510594.477 1
 91  7 25  2 39  0.0040000  0  4 03 23 17 21
  22880466.779    10577502.616 3   8242207.513 1
  22002641.184   -13340054.969 4 -10394814.536 2
  21969615.757     3678420.655 4   2866305.975 3
  25261805.211    -1974671.362 2  -1538696.032 1
 91  7 25  2 39 15.0040000  0  4 03 23 17 21
  22890197.753    10628637.083 3   8282052.530 1
  22001941.465   -13343754.629 4 -10397697.368 2
  21974592.611     3704566.354 4   2886679.239 3
  25254947.171    -2010685.968 2  -1566759.244 1
 91  7 25  2 39 30.0040000  0  4 03 23 17 21
  22899949.703    10679888.594 3   8321988.724 1
  22001257.050   -13347345.270 4 -10400495.264 2
  21979583.251     3730780.214 4   2907105.626 3
  25248110.105    -2046657.084 2  -1594788.597
 91  7 25  2 39 45.0040000  0  4 03 23 17 21
  22909722.924    10731255.200 3   8362014.617 1
  22000592.406   -13350828.414 4 -10403209.392 2
  21984584.693     3757060.419 4   2927583.706 3
  25241263.129    -2082586.355 2  -1622785.304 1
 91  7 25  2 40  0.0040000  0  4 03 23 17 21
  22919522.844    10782738.762 3   8402131.664 1
  21999950.849   -13354202.096 4 -10405838.223 3
  21989596.012     3783408.589 4   2948114.749 3
  25234435.958    -2118471.770 2  -1650747.898 1
 91  7 25  2 40 15.0040000  0  4 03 23 17 21
  22929343.443    10834340.779 3   8442340.993 1
  21999330.284   -13357464.960 4 -10408380.704 2
  21994625.932     3809826.678 4   2968700.266 3
  25227627.668    -2154311.430 2  -1678674.782 1
 91  7 25  2 40 30.0040000  0  4 03 23 17 21
  22939181.142    10886063.869 3   8482644.678 1
  21998732.789   -13360614.184 4 -10410834.629 2
  21999664.543     3836317.528 4   2989342.487 3
  25220802.295    -2190102.397 2  -1706563.719 1
 91  7 25  2 40 45.0040000  0  4 03 23 17 21
  22949050.602    10937907.907 3   8523042.588 1
  21998154.802   -13363649.588 4 -10413199.870 2
  22004718.754     3862881.394 4   3010041.608 3
  25214009.902    -2225844.349 2  -1734414.537 1
 91  7 25  2 41  0.0040000  0  4 03 23 17 21
  22958932.957    10989871.436 3   8563533.654 1
  21997599.275   -13366572.833 4 -10415477.713 3
  22009787.344     3889516.299 4   3030796.076 3
  25207214.211    -2261538.883 2  -1762228.324 1
 91  7 25  2 41 15.0040000  0  4 03 23 17 21
  22968849.793    11041954.849 3   8604118.096 1
  21997062.942   -13369383.148 4 -10417667.558 2
  22014871.221     3916223.039 4   3051606.527 3
  25200430.509    -2297185.021 2  -1790004.394 1
 91  7 25  2 41 30.0040000  0  4 03 23 17 21
  22978781.026    11094155.135 3   8644793.619 1
  21996551.511   -13372083.336 4 -10419771.590 2
  22019964.992     3942998.833 4   3072470.789 3
  25193655.794    -2332785.424 2  -1817744.860 1
 91  7 25  2 41 45.0040000  0  4 03 23 17 21
  22988735.625    11146472.026 3   8685559.978 1
  21996055.646   -13374673.519 4 -10421789.900 2
  22025072.566     3969843.495 4   3093388.709 3
  25186895.178    -2368340.054 2  -1845449.645 1
 91  7 25  2 42  0.0040000  0  4 03 23 17 21
  22998714.515    11198906.679 3   8726418.174 1
  21995583.775   -13377152.329 4 -10423721.429 2
  22030196.613     3996758.642 4   3114361.547 3
  25180130.357    -2403847.467 2  -1873117.664 1
 91  7 25  2 42 15.0040000  0  4 03 23 17 21
  23008717.102    11251458.902 3   8767367.873 1
  21995134.083   -13379520.109 4 -10425566.438 3
  22035331.462     4023743.768 4   3135388.915 3
  25173388.029    -2439307.757 2  -1900748.964 1
 91  7 25  2 42 30.0040000  0  4 03 23 17 21
  23018737.959    11304129.670 3   8808409.995 1
  21994705.976   -13381775.483 4 -10427323.864 2
  22040480.096     4050799.876 4   3156471.607 2
  25166645.998    -2474719.476 2  -1928342.386 1
 91  7 25  2 42 45.0040000  0  4 03 23 17 21
  23028784.608    11356922.846 3   8849547.512 1
  21994297.065   -13383914.756 4 -10428990.815 2
  22045644.924     4077930.961 4   3177612.711 3
  25159920.753    -2510078.671 2  -1955894.874 1
 91  7 25  2 43  0.0040000  0  4 03 23 17 21
  23038853.139    11409833.181 3   8890776.295 1
  21993910.927   -13385943.004 4 -10430571.253 3
  22050817.535     4105132.259 4   3198808.524 3
  25153196.696    -2545390.095 2  -1983410.220 1
 91  7 25  2 43 15.0040000  0  4 03 23 17 21
  23048946.240    11462855.805 3   8932092.598 1
  21993543.687   -13387864.594 4 -10432068.583 3
  22056006.340     4132399.288 4   3220055.562 2
  25146492.741    -2580658.099 2  -2010891.689 1
 91  7 25  2 43 30.0040000  0  4 03 23 17 21
  23059054.645    11515997.649 3   8973501.806 1
  21993200.721   -13389672.812 4 -10433477.576 2
  22061211.042     4159738.537 4   3241358.870 3
  25139786.989    -2615875.844 2  -2038333.966 1
 91  7 25  2 43 45.0040000  0  4 03 23 17 21
  23069190.936    11569253.554 3   9014999.891 1
  21992879.043   -13391372.677 4 -10434802.136 2
  22066424.138     4187144.911 4   3262714.488 3
  25133095.319    -2651048.119 2  -2065740.832 1
 91  7 25  2 44  0.0040000  0  4 03 23 17 21
  23079342.199    11622626.104 3   9056588.850 1
  21992578.062   -13392961.350 4 -10436040.041 3
  22071653.409     4214621.543 5   3284124.847 3
  25126406.354    -2686171.865 2  -2093109.903 1
 91  7 25  2 44 15.0040000  0  4 03 23 17 21
  23089526.146    11676110.634 3   9098265.075 1
  21992295.351   -13394443.414 4 -10437194.889 3
  22076894.390     4242163.943 5   3305586.450 2
  25119732.675    -2721251.300 2  -2120444.442 1
 91  7 25  2 44 30.0040000  0  4 03 23 17 21
  23099723.599    11729710.718 3   9140031.363 1
  21992033.039   -13395815.260 4 -10438263.849 3
  22082147.046     4269775.481 4   3327101.936 3
  25113071.578    -2756282.908 2  -2147741.638 1
 91  7 25  2 44 45.0040000  0  4 03 23 17 21
  23109943.825    11783424.571 3   9181886.294 1
  21991792.296   -13397078.097 4 -10439247.864 2
  22087416.802     4297454.783 4   3348670.215 3
  25106413.500    -2791267.915 2  -2175002.558 1
 91  7 25  2 45  0.0040000  0  4 03 23 17 21
  23120185.323    11837254.163 3   9223831.408 1
  21991573.453   -13398230.146 4 -10440145.549 2
  22092695.842     4325203.902 4   3370292.908 3
  25099759.906    -2826204.197 2  -2202225.537 1
 91  7 25  2 45 15.0040000  0  4 03 23 17 21
  23130451.723    11891200.417 3   9265867.401 1
  21991378.586   -13399270.240 4 -10440955.999 2
  22097988.685     4353023.924 4   3391970.851 2
  25093123.693    -2861090.439 2  -2229409.538 1
 91  7 25  2 45 30.0040000  0  4 03 23 17 21
  23140740.598    11945259.892 3   9307991.647 1
  21991196.319   -13400201.803 4 -10441681.881 3
  22103298.297     4380911.401 4   3413701.350 3
  25086490.185    -2895929.882 2  -2256557.066 1
 91  7 25  2 45 45.0040000  0  4 03 23 17 21
  23151050.169    11999436.947 3   9350207.496 1
  21991042.216   -13401020.260 4 -10442319.625 2
  22108616.914     4408871.027 4   3435488.071 2
  25079874.964    -2930717.757 2  -2283664.404 1
 91  7 25  2 46  0.0040000  0  4 03 23 17 21
  23161383.106    12053729.009 3   9392512.964 1
  21990908.216   -13401728.200 4 -10442871.254 2
  22113948.724     4436900.431 4   3457329.154 2
  25073263.932    -2965456.490 2  -2310733.451 1
 91  7 25  2 46 15.0040000  0  4 03 23 17 21
  23171734.645    12108134.701 3   9434906.977 1
  21990795.191   -13402326.519 4 -10443337.463 2
  22119297.023     4464998.412 4   3479223.684 2
  25066659.810    -3000146.780 2  -2337764.784 1
 91  7 25  2 46 30.0040000  0  4 03 23 17 21
  23182109.864    12162657.581 3   9477392.318 1
  21990699.860   -13402811.744 4 -10443715.550 3
  22124660.924     4493168.483 4   3501174.382 3
  25060069.770    -3034784.975 2  -2364755.455 1
 91  7 25  2 46 45.0040000  0  4 03 23 17 21
  23192509.060    12217296.160 3   9519967.814 1
  21990634.806   -13403185.024 4 -10444006.404 3
  22130032.903     4521409.333 4   3523180.230 2
  25053489.031    -3069372.160 2  -2391706.398 1
 91  7 25  2 47  0.0040000  0  4 03 23 17 21
  23202924.745    12272048.587 3   9562632.009 1
  21990577.237   -13403448.164 4 -10444211.434 2
  22135423.171     4549719.291 4   3545239.933 2
  25046916.075    -3103909.974 2  -2418618.957 1
 91  7 25  2 47 15.0040000  0  4 03 23 17 21
  23213367.427    12326912.902 3   9605383.394 1
  21990551.760   -13403603.321 4 -10444332.316 3
  22140819.738     4578096.581 4   3567352.101 3
  25040356.922    -3138400.334 2  -2445494.460 1
 91  7 25  2 47 30.0040000  0  4 03 23 17 21
  23223825.377    12381887.807 3   9648220.961 1
  21990541.272   -13403651.401 4 -10444369.785 3
  22146234.279     4606540.235 5   3589515.983 3
  25033797.158    -3172843.981 2  -2472333.562 1
 91  7 25  2 47 45.0040000  0  4 03 23 17 21
  23234312.417    12436976.018 3   9691146.810 1
  21990555.058   -13403589.525 4 -10444321.540 2
  22151656.934     4635052.847 4   3611733.593 3
  25027256.590    -3207237.846 2  -2499133.841 1
 91  7 25  2 48  0.0050000  0  4 03 23 17 21
  23244814.450    12492181.571 3   9734164.083 1
  21990584.133   -13403417.189 4 -10444187.247 2
  22157097.252     4663636.779 4   3634006.789 3
  25020710.022    -3241583.537 2  -2525896.664 1
 91  7 25  2 48 15.0050000  0  4 03 23 17 21
  23255342.864    12547494.876 3   9777265.335 1
  21990642.295   -13403136.593 4 -10443968.581 3
  22162548.089     4692286.287 4   3656331.075 3
  25014191.039    -3275878.441 2  -2552619.880 1
 91  7 25  2 48 30.0050000  0  4 03 23 17 21
  23265889.567    12602920.486 3   9820454.067 1
  21990716.336   -13402746.498 4 -10443664.593 3
  22168014.510     4721004.498 4   3678708.900 3
  25007670.556    -3310123.491 2  -2579304.295 1
 91  7 25  2 48 45.0050000  0  4 03 23 17 21
  23276458.745    12658460.924 3   9863732.302 1
  21990809.276   -13402244.424 4 -10443273.363 3
  22173493.808     4749793.812 4   3701142.121 3
  25001170.158    -3344316.100 2  -2605947.753 1
 91  7 25  2 49  0.0050000  0  4 03 23 17 21
  23287053.103    12714113.233 3   9907097.713 1
  21990925.006   -13401633.098 4 -10442796.989 2
  22178984.816     4778651.590 4   3723628.711 3
  24994669.446    -3378458.722 2  -2632552.415 1
 91  7 25  2 49 15.0050000  0  4 03 23 17 21
  23297663.359    12769877.982 3   9950550.727 1
  21991064.398   -13400911.760 4 -10442234.902 3
  22184488.998     4807578.846 4   3746169.424 3
  24988184.945    -3412550.372 2  -2659117.208 1
 91  7 25  2 49 30.0050000  0  4 03 23 17 21
  23308296.109    12825755.830 3   9994091.916 1
  21991220.892   -13400079.751 4 -10441586.572 3
  22190006.984     4836576.097 4   3768764.680 3
  24981705.225    -3446590.233 2  -2685641.691 1
 91  7 25  2 49 45.0050000  0  4 03 23 17 21
  23318949.222    12881751.548 3  10037724.880 1
  21991401.362   -13399132.198 4 -10440848.205 3
  22195539.349     4865648.363 4   3791418.377 3
  24975234.213    -3480573.293 2  -2712121.953 1
 91  7 25  2 50  0.0050000  0  4 03 23 17 21
  23329626.330    12937858.489 3  10081444.519 1
  21991604.325   -13398075.627 4 -10440024.886 2
  22201082.515     4894788.978 4   3814125.344 2
  24968789.569    -3514505.853 2  -2738562.793 1
 91  7 25  2 50 15.0050000  0  4 03 23 17 21
  23340325.023    12994077.106 3  10125251.197 1
  21991825.873   -13396909.257 4 -10439116.012 3
  22206643.359     4923998.589 4   3836886.080 3
  24962340.736    -3548386.984 2  -2764963.580 1
 91  7 25  2 50 30.0050000  0  4 03 23 17 21
  23351047.414    13050407.881 3  10169145.295 1
  21992066.006   -13395632.372 4 -10438121.031 3
  22212215.911     4953278.138 4   3859701.304 3
  24955899.686    -3582215.839 2  -2791323.641 1
 91  7 25  2 50 45.0050000  0  4 03 23 17 21
  23361781.480    13106849.126 3  10213125.452 1
  21992331.930   -13394246.809 4 -10437041.352 2
  22217802.843     4982625.814 4   3882569.617 2
  24949466.140    -3615994.039 2  -2817644.248 1
 91  7 25  2 51  0.0050000  0  4 03 23 17 21
  23372545.821    13163400.287 3  10257191.291 1
  21992615.234   -13392752.782 4 -10435877.168 2
  22223397.854     5012041.231 4   3905490.721 3
  24943047.287    -3649721.643 2  -2843925.405 1
 91  7 25  2 51 15.0050000  0  4 03 23 17 21
  23383332.062    13220062.992 3  10301343.979 1
  21992921.922   -13391148.609 4 -10434627.152 3
  22229006.685     5041526.464 4   3928466.221 3
  24936645.814    -3683396.802 2  -2870165.698 1
 91  7 25  2 51 30.0050000  0  4 03 23 17 21
  23394129.681    13276835.869 3  10345582.539 1
  21993246.286   -13389435.437 4 -10433292.206 3
  22234632.583     5071080.066 4   3951494.992 3
  24930240.450    -3717020.442 2  -2896365.887 1
 91  7 25  2 51 45.0050000  0  4 03 23 17 21
  23404957.594    13333717.192 3  10389905.602 1
  21993593.458   -13387614.972 4 -10431873.646 3
  22240266.281     5100700.472 4   3974575.825 2
  24923858.172    -3750594.119 2  -2922527.158 1
 91  7 25  2 52  0.0050000  0  4 03 23 17 21
  23415799.885    13390707.558 3  10434313.641 1
  21993960.698   -13385686.384 4 -10430370.840 3
  22245919.471     5130388.599 4   3997709.433 3
  24917469.595    -3784116.681 2  -2948648.556 1
 91  7 25  2 52 15.0050000  0  4 03 23 17 21
  23426666.764    13447808.442 3  10478807.776 1
  21994350.135   -13383648.063 4 -10428782.533 3
  22251581.945     5160146.005 4   4020897.026 3
  24911103.808    -3817586.377 2  -2974728.784 1
 91  7 25  2 52 30.0050000  0  4 03 23 17 21
  23437554.025    13505019.486 3  10523387.785 1
  21994756.341   -13381500.221 4 -10427108.872 3
  22257254.627     5189972.617 4   4044138.530 2
  24904747.898    -3851003.293 2  -3000767.866 1
 91  7 25  2 52 45.0050000  0  4 03 23 17 21
  23448461.074    13562340.616 3  10568053.579 1
  21995187.448   -13379242.696 4 -10425349.757 3
  22262941.984     5219868.627 4   4067434.123 2
  24898397.101    -3884367.143 2  -3026765.589 1
 91  7 25  2 53  0.0050000  0  4 03 23 17 21
  23459393.600    13619772.104 3  10612805.367 1
  21995637.437   -13376875.240 4 -10423504.974 3
  22268648.833     5249834.225 4   4090783.944 3
  24892059.792    -3917677.416 2  -3052721.630 1
 91  7 25  2 53 15.0050000  0  4 03 23 17 21
  23470342.617    13677313.533 3  10657642.829 1
  21996106.604   -13374397.956 4 -10421574.609 3
  22274362.872     5279869.244 4   4114187.845 2
  24885727.265    -3950934.165 2  -3078635.874 1
 91  7 25  2 53 30.0050000  0  4 03 23 17 21
  23481312.627    13734964.090 3  10702565.321 1
  21996599.764   -13371811.704 4 -10419559.349 2
  22280091.918     5309972.886 4   4137645.221 3
  24879415.434    -3984137.944 2  -3104508.874 1
 91  7 25  2 53 45.0050000  0  4 03 23 17 21
  23492302.722    13792724.623 3  10747573.500 1
  21997111.824   -13369115.527 4 -10417458.410 3
  22285832.045     5340146.464 4   4161157.098 3
  24873101.509    -4017287.537 2  -3130339.663 1
 91  7 25  2 54  0.0050000  0  4 03 23 17 21
  23503312.587    13850594.665 3  10792667.004 1
  21997649.343   -13366309.572 4 -10415271.949 3
  22291591.054     5370389.682 4   4184723.238 3
  24866803.464    -4050383.006 2  -3156128.252 1
 91  7 25  2 54 15.0050000  0  4 03 23 17 21
  23514347.651    13908573.026 3  10837844.909 1
  21998202.166   -13363394.999 4 -10413000.834 2
  22297357.862     5400701.508 4   4208342.836 3
  24860517.424    -4083425.183 2  -3181875.342 1
 91  7 25  2 54 30.0050000  0  4 03 23 17 21
  23525400.410    13966658.150 3  10883106.015 1
  21998778.668   -13360372.990 4 -10410646.018 3
  22303138.456     5431080.545 4   4232014.815 3
  24854239.464    -4116415.233 2  -3207581.761 1
 91  7 25  2 54 45.0050000  0  4 03 23 17 21
  23536471.439    14024850.633 3  10928450.764 1
  21999370.161   -13357242.975 4 -10408207.035 3
  22308934.040     5461527.543 4   4255739.743 2
  24847972.009    -4149352.404 2  -3233247.035 1
 91  7 25  2 55  0.0050000  0  4 03 23 17 21
  23547573.058    14083150.013 3  10973878.798 1
  21999989.522   -13354005.296 4 -10405684.162 3
  22314739.221     5492042.186 4   4279517.394 3
  24841715.635    -4182236.774 3  -3258871.168 1
 91  7 25  2 55 15.0050000  0  4 03 23 17 21
  23558680.663    14141557.034 3  11019390.735 1
  22000627.781   -13350658.967 4 -10403076.616 3
  22320558.206     5522625.393 4   4303348.456 2
  24835467.672    -4215067.276 2  -3284453.299 1
 91  7 25  2 55 30.0050000  0  4 03 23 17 21
  23569818.561    14200071.669 3  11064986.568 1
  22001279.826   -13347203.878 4 -10400384.332 3
  22326392.756     5553277.649 4   4327233.317 2
  24829230.179    -4247843.569 2  -3309993.144 1
 91  7 25  2 55 45.0050000  0  4 03 23 17 21
  23580974.433    14258691.239 3  11110664.109 1
  22001961.867   -13343642.632 4 -10397609.332 3
  22332236.921     5583996.425 4   4351170.025 2
  24823001.690    -4280567.939 2  -3335492.695 1
 91  7 25  2 56  0.0050000  0  4 03 23 17 21
  23592147.702    14317417.004 3  11156424.417 1
  22002660.068   -13339973.729 4 -10394750.431 3
  22338093.354     5614782.904 4   4375159.483 2
  24816780.094    -4313238.817 2  -3360950.437 1
 91  7 25  2 56 15.0050000  0  4 03 23 17 21
  23603344.338    14376247.983 3  11202266.722 1
  22003375.073   -13336198.040 4 -10391808.322 3
  22343966.887     5645636.317 4   4399201.092 2
  24810579.194    -4345856.897 2  -3386367.053 1
 91  7 25  2 56 30.0050000  0  4 03 23 17 21
  23614556.277    14435183.885 3  11248190.757 1
  22004120.058   -13332315.720 4 -10388783.128 3
  22349848.815     5676556.545 4   4423294.772 2
  24804379.481    -4378422.030 2  -3411742.433 1
 91  7 25  2 56 45.0050000  0  4 03 23 17 21
  23625791.600    14494226.962 3  11294198.311 1
  22004875.548   -13328324.410 4 -10385673.012 3
  22355748.437     5707546.236 4   4447442.579 2
  24798196.868    -4410931.754 2  -3437074.623 1
 91  7 25  2 57  0.0050000  0  4 03 23 17 21
  23637053.901    14553375.541 3  11340288.070 1
  22005656.497   -13324225.323 4 -10382478.908 3
  22361657.046     5738604.111 4   4471643.508 2
  24792016.350    -4443387.239 2  -3462364.511 1
 91  7 25  2 57 15.0050000  0  4 03 23 17 21
  23648326.113    14612631.076 3  11386461.169 1
  22006453.641   -13320017.148 4 -10379199.803 3
  22367581.238     5769731.627 4   4495898.715 3
  24785854.713    -4475786.821 2  -3487610.865 1
 91  7 25  2 57 30.0050000  0  4 03 23 17 21
  23659625.879    14671994.000 3  11432717.933 1
  22007278.076   -13315699.272 4 -10375835.222 3
  22373517.138     5800929.186 4   4520208.500 3
  24779693.373    -4508129.590 2  -3512812.968 1
 91  7 25  2 57 45.0050000  0  4 03 23 17 21
  23670939.449    14731461.395 3  11479056.149 1
  22008120.503   -13311274.614 4 -10372387.426 3
  22379469.809     5832193.937 4   4544570.647 3
  24773550.931    -4540418.392 2  -3537972.976 1
 91  7 25  2 58  0.0050000  0  4 03 23 17 21
  23682273.697    14791032.754 3  11525475.315 1
  22008984.498   -13306743.301 4 -10368856.532 3
  22385427.889     5863525.883 4   4568985.149 3
  24767417.180    -4572653.134 2  -3563090.912 1
 91  7 25  2 58 15.0050000  0  4 03 23 17 21
  23693628.937    14850708.922 3  11571976.223 1
  22009866.484   -13302104.494 4 -10365241.870 3
  22391406.351     5894925.927 4   4593452.719 3
  24761299.604    -4604832.925 3  -3588166.053 1
 91  7 25  2 58 30.0050000  0  4 03 23 17 21
  23705006.357    14910489.626 3  11618558.532 1
  22010768.870   -13297358.225 4 -10361543.466 3
  22397397.412     5926394.247 4   4617973.483 2
  24755181.436    -4636957.583 2  -3613198.136 1
 91  7 25  2 58 45.0050000  0  4 03 23 17 21
  23716402.972    14970373.029 3  11665220.914 1
  22011691.620   -13292506.084 4 -10357762.580 3
  22403395.646     5957929.060 4   4642546.068 2
  24749077.664    -4669028.335 2  -3638188.263 1
 91  7 25  2 59  0.0050000  0  4 03 23 17 21
  23727818.172    15030360.604 3  11711964.421 1
  22012634.473   -13287546.460 4 -10353897.925 3
  22409407.682     5989532.139 4   4667171.840 2
  24742992.180    -4701043.443 3  -3663135.065 1
 91  7 25  2 59 15.0050000  0  4 03 23 17 21
  23739252.863    15090451.949 3  11758788.819 1
  22013599.505   -13282479.888 4 -10349949.944 3
  22415435.319     6021202.998 4   4691850.430 2
  24736904.305    -4733003.185 2  -3688038.674 1
 91  7 25  2 59 30.0050000  0  4 03 23 17 21
  23750706.732    15150648.268 3  11805695.032 1
  22014586.716   -13277304.631 4 -10345917.270 3
  22421476.130     6052943.295 4   4716583.112 2
  24730834.997    -4764905.777 2  -3712897.750 1
 91  7 25  2 59 45.0050000  0  4 03 23 17 21
  23762185.782    15210948.064 3  11852681.808 1
  22015590.732   -13272022.346 4 -10341801.198 3
  22427528.337     6084751.680 4   4741368.859 2
  24724773.489    -4796752.560 2  -3737713.397 1
 91  7 25  3  0  0.0050000  0  4 03 23 17 21
  23773672.336    15271351.393 3  11899749.321 1
  22016615.112   -13266632.831 4 -10337601.568 3
  22433594.347     6116628.363 4   4766207.822 2
  24718723.377    -4828543.043 2  -3762485.153 1
 91  7 25  3  0 15.0050000  0  4 03 23 17 21
  23785194.558    15331859.207 3  11946898.249 1
  22017662.596   -13261134.792 4 -10333317.366 3
  22439673.531     6148574.656 4   4791101.035 2
  24712681.064    -4860275.969 2  -3787212.010 1
 91  7 25  3  0 30.0050000  0  4 03 23 17 21
  23796723.079    15392469.916 3  11994127.294 1
  22018725.646   -13255529.669 4 -10328949.739 3
  22445766.519     6180589.251 4   4816047.477 2
  24706658.837    -4891952.428 3  -3811894.927 1
 91  7 25  3  0 45.0050000  0  4 03 23 17 21
  23808273.779    15453184.261 3  12041437.155 1
  22019815.098   -13249816.490 4 -10324497.906 3
  22451871.199     6212672.777 4   4841047.633 2
  24700640.501    -4923571.469 2  -3836533.038 1
 91  7 25  3  1  0.0050000  0  4 03 23 17 21
  23819852.365    15514001.010 3  12088826.819 1
  22020922.838   -13243996.677 4 -10319962.979 3
  22457989.664     6244824.315 4   4866100.771 3
  24694633.560    -4955133.995 3  -3861127.171 1
 91  7 25  3  1 15.0050000  0  4 03 23 17 21
  23831445.941    15574921.491 3  12136297.270 1
  22022052.757   -13238068.637 4 -10315343.715 3
  22464119.507     6277045.491 4   4891208.189 3
  24688641.016    -4986638.247 3  -3885675.830 1
 91  7 25  3  1 30.0050000  0  4 03 23 17 21
  23843062.586    15635942.854 3  12183846.370 1
  22023199.760   -13232034.968 4 -10310642.155 3
  22470266.154     6309333.645 4   4916367.785 3
  24682654.754    -5018086.936 2  -3910181.263 1
 91  7 25  3  1 45.0050000  0  4 03 23 17 21
  23854692.144    15697064.567 3  12231473.627 1
  22024369.849   -13225895.905 4 -10305858.464 2
  22476421.491     6341688.539 4   4941579.396 3
  24676683.185    -5049480.085 3  -3934643.401 1
 91  7 25  3  2  0.0050000  0  4 03 23 17 21
  23866339.972    15758289.612 3  12279181.404 1
  22025556.429   -13219648.669 4 -10300990.482 2
  22482590.021     6374113.169 4   4966845.346 2
  24670719.416    -5080814.553 2  -3959059.787 1
 91  7 25  3  2 15.0050000  0  4 03 23 17 21
  23878012.702    15819616.529 3  12326968.604 1
  22026764.281   -13213294.365 4 -10296039.072 3
  22488775.041     6406606.591 4   4992164.898 2
  24664765.244    -5112091.151 2  -3983431.097 1
 91  7 25  3  2 30.0050000  0  4 03 23 17 21
  23889698.013    15881045.847 3  12374835.564 1
  22027996.440   -13206832.296 4 -10291003.688 3
  22494971.753     6439169.296 4   5017538.426 2
  24658822.154    -5143309.160 2  -4007756.755 1
 91  7 25  3  2 45.0050000  0  4 03 23 17 21
  23901406.708    15942574.961 3  12422780.294 1
  22029243.869   -13200264.846 4 -10285886.188 3
  22501177.452     6471798.940 4   5042964.125 2
  24652897.962    -5174470.626 2  -4032038.340 1
 91  7 25  3  3  0.0050000  0  4 03 23 17 21
  23913132.487    16004205.204 3  12470803.833 1
  22030513.791   -13193590.653 4 -10280685.510 3
  22507402.346     6504497.184 4   5068443.271 2
  24646977.644    -5205574.129 2  -4056274.788 1
 91  7 25  3  3 15.0050000  0  4 03 23 17 21
  23924881.649    16065935.442 3  12518905.276 1
  22031804.706   -13186810.761 4 -10275402.478 2
  22513638.024     6537262.788 4   5093974.914 2
  24641070.536    -5236620.485 3  -4080466.712 1
 91  7 25  3  3 30.0050000  0  4 03 23 17 21
  23936646.097    16127766.108 3  12567084.976 1
  22033114.485   -13179924.396 4 -10270036.467 3
  22519885.708     6570096.720 4   5119559.790 2
  24635173.025    -5267608.767 3  -4104613.365 1
 91  7 25  3  3 45.0050000  0  4 03 23 17 21
  23948433.946    16189697.009 3  12615342.800 1
  22034447.367   -13172931.676 4 -10264587.590 3
  22526143.583     6602999.036 4   5145197.944 2
  24629285.409    -5298538.680 3  -4128714.521 1
 91  7 25  3  4  0.0050000  0  4 03 23 17 21
  23960236.174    16251727.014 3  12663677.789 1
  22035798.538   -13165833.530 4 -10259056.549 3
  22532419.729     6635968.478 4   5170888.430 2
  24623417.267    -5329411.059 3  -4152770.889 1
 91  7 25  3  4 15.0050000  0  4 03 23 17 21
  23972059.097    16313856.222 3  12712090.175 1
  22037168.886   -13158629.790 4 -10253443.247 3
  22538709.677     6669005.605 4   5196631.637 2
  24617551.516    -5360225.459 3  -4176782.052 1
 91  7 25  3  4 30.0050000  0  4 03 23 17 21
  23983904.480    16376084.176 3  12760579.426 1
  22038557.818   -13151320.941 4 -10247748.030 3
  22545007.722     6702110.171 4   5222427.405 3
  24611698.382    -5390982.146 3  -4200748.246 1
 91  7 25  3  4 45.0050000  0  4 03 23 17 21
  23995759.180    16438411.589 3  12809146.216 1
  22039970.152   -13143905.872 4 -10241970.054 3
  22551320.147     6735283.288 4   5248276.583 2
  24605852.419    -5421679.909 3  -4224668.528 1
 91  7 25  3  5  0.0050000  0  4 03 23 17 21
  24007640.859    16500840.319 3  12857791.924 1
  22041401.959   -13136382.562 4 -10236107.722 3
  22557644.873     6768527.041 4   5274180.812 2
  24600020.853    -5452316.537 3  -4248541.150 1
 91  7 25  3  5 15.0050000  0  4 03 23 17 21
  24019534.823    16563368.745 3  12906515.342 1
  22042852.648   -13128752.308 4 -10230162.064 3
  22563986.684     6801839.980 4   5300138.951 3
  24594206.388    -5482893.302 2  -4272367.182 1
 91  7 25  3  5 30.0050000  0  4 03 23 17 21
  24031456.969    16625996.045 3  12955315.824 1
  22044325.831   -13121016.034 4 -10224133.800 3
  22570337.185     6835221.119 4   5326150.228 2
  24588399.409    -5513410.784 2  -4296146.940 1
 91  7 25  3  5 45.0050000  0  4 03 23 17 21
  24043399.200    16688723.088 3  13004193.958 1
  22045818.505   -13113172.698 4 -10218022.093 3
  22576704.472     6868671.918 4   5352215.795 2
  24582599.620    -5543867.696 2  -4319879.545 1
 91  7 25  3  6  0.0050000  0  4 03 23 17 21
  24055351.325    16751549.416 3  13053149.527 1
  22047331.858   -13105222.591 4 -10211827.200 3
  22583083.155     6902192.193 4   5378335.490 2
  24576817.525    -5574264.052 3  -4343564.957 1
 91  7 25  3  6 15.0050000  0  4 03 23 17 21
  24067320.237    16814475.124 3  13102182.465 1
  22048866.185   -13097165.592 4 -10205549.012 3
  22589472.326     6935781.974 4   5404509.342 2
  24571044.418    -5604599.528 3  -4367202.959 1
 91  7 25  3  6 30.0050000  0  4 03 23 17 21
  24079320.037    16877498.612 3  13151291.651 1
  22050417.318   -13089002.763 4 -10199188.358 3
  22595878.894     6969440.301 4   5430736.600 2
  24565279.703    -5634875.080 3  -4390794.238 1
 91  7 25  3  6 45.0050000  0  4 03 23 17 21
  24091324.024    16940619.934 3  13200477.082 1
  22051991.223   -13080734.188 4 -10192745.308 2
  22602294.763     7003167.034 4   5457017.172 2
  24559534.481    -5665090.643 3  -4414338.737 1
 91  7 25  3  7  0.0050000  0  4 03 23 17 21
  24103355.600    17003841.578 3  13249740.664 1
  22053585.527   -13072357.056 4 -10186217.662 3
  22608729.496     7036965.127 4   5483353.342 2
  24553794.965    -5695243.237 3  -4437834.286 1
 91  7 25  3  7 15.0050000  0  4 03 23 17 21
  24115413.544    17067162.668 3  13299081.735 1
  22055199.306   -13063872.302 4 -10179606.161 3
  22615172.047     7070833.840 4   5509744.532 2
  24548071.328    -5725333.363 3  -4461281.077 1
 91  7 25  3  7 30.0050000  0  4 03 23 17 21
  24127477.787    17130583.643 3  13348500.624 1
  22056833.170   -13055279.326 4 -10172910.327 3
  22621631.663     7104773.729 4   5536191.213 2
  24542360.273    -5755360.313 3  -4484678.641 1
 91  7 25  3  7 45.0050000  0  4 03 23 17 21
  24139565.727    17194104.799 3  13397997.625 1
  22058493.715   -13046577.601 4 -10166129.760 3
  22628100.895     7138785.533 4   5562693.903 2
  24536653.424    -5785323.532 3  -4508026.585 1
 91  7 25  3  8  0.0050000  0  4 03 23 17 21
  24151672.845    17257722.164 3  13447569.538 1
  22060165.358   -13037770.831 4 -10159267.334 3
  22634587.194     7172865.507 4   5589249.721 2
  24530960.971    -5815226.383 3  -4531327.434 1
 91  7 25  3  8 15.0050000  0  4 03 23 17 21
  24163791.655    17321436.647 2  13497217.116 1
  22061863.683   -13028857.841 4 -10152322.148 3
  22641088.202     7207015.072 4   5615859.770 2
  24525288.289    -5845067.641 3  -4554580.299 1
 91  7 25  3  8 30.0050000  0  4 03 23 17 21
  24175940.444    17385246.517 3  13546939.096 1
  22063576.405   -13019840.509 4 -10145295.650 3
  22647598.495     7241232.419 4   5642522.634 2
  24519614.420    -5874848.767 2  -4577786.294 1
 91  7 25  3  8 45.0050000  0  4 03 23 17 21
  24188097.923    17449152.814 3  13596736.183 1
  22065313.400   -13010717.504 4 -10138186.802 3
  22654123.184     7275518.801 4   5669239.297 2
  24513963.342    -5904568.282 3  -4600944.328 1
 91  7 25  3  9  0.0050000  0  4 03 23 17 21
  24200269.206    17513156.206 3  13646608.910 1
  22067071.683   -13001488.030 4 -10130995.002 3
  22660660.454     7309875.106 4   5696010.436 2
  24508316.137    -5934225.309 3  -4624053.618 1
 91  7 25  3  9 15.0050000  0  4 03 23 17 21
  24212480.048    17577255.141 3  13696556.101 1
  22068848.849   -12992153.392 4 -10123721.255 3
  22667211.213     7344299.957 4   5722834.994 2
  24502685.737    -5963820.756 3  -4647114.996 1
 91  7 25  3  9 30.0050000  0  4 03 23 17 21
  24224692.391    17641450.305 3  13746578.227 1
  22070645.506   -12982713.008 4 -10116365.104 3
  22673774.275     7378794.175 4   5749713.612 2
  24497066.436    -5993353.764 3  -4670127.644 1
 91  7 25  3  9 45.0050000  0  4 03 23 17 21
  24236928.117    17705739.720 3  13796673.882 1
  22072458.653   -12973168.389 4 -10108927.729 3
  22680354.124     7413356.277 4   5776645.112 2
  24491458.511    -6022825.786 3  -4693092.804 1
 91  7 25  3 10  0.0050000  0  4 03 23 17 21
  24249179.147    17770125.572 3  13846844.654 1
  22074296.091   -12963517.404 4 -10101407.480 3
  22686944.164     7447988.774 4   5803631.464 2
  24485862.296    -6052234.333 3  -4716008.533 1
 91  7 25  3 10 15.0050000  0  4 03 23 17 21
  24261451.153    17834604.899 3  13897088.244 1
  22076154.801   -12953762.694 4 -10093806.399 3
  22693544.081     7482688.919 4   5830670.532 2
  24480279.553    -6081582.112 3  -4738876.874 1
 91  7 25  3 10 30.0050000  0  4 03 23 17 21
  24273736.350    17899179.771 2  13947406.262 1
  22078028.501   -12943902.006 4 -10086122.737 3
  22700162.599     7517459.025 4   5857764.112 2
  24474707.315    -6110866.609 3  -4761695.905 1
 91  7 25  3 10 45.0050000  0  4 03 23 17 21
  24286041.319    17963848.813 2  13997797.693 1
  22079927.084   -12933936.614 4 -10078357.493 3
  22706790.715     7552297.658 4   5884911.088 2
  24469147.064    -6140088.975 3  -4784466.534 1
 91  7 25  3 11  0.0050000  0  4 03 23 17 21
  24298371.486    18028612.463 2  14048262.796 1
  22081841.862   -12923866.001 4 -10070510.262 3
  22713433.821     7587205.774 4   5912112.213 2
  24463594.004    -6169248.298 3  -4807187.982 1
 91  7 25  3 11 15.0050000  0  4 03 23 17 21
  24310710.639    18093468.555 2  14098799.966 1
  22083777.615   -12913692.212 4 -10062582.625 3
  22720090.416     7622181.421 4   5939365.964 2
  24458056.544    -6198346.357 3  -4829861.772 1
 91  7 25  3 11 30.0050000  0  4 03 23 17 21
  24323066.598    18158418.289 3  14149410.134 1
  22085732.859   -12903413.951 4 -10054573.581 3
  22726760.797     7657225.938 4   5966673.375 2
  24452534.056    -6227381.697 3  -4852486.685 1
 91  7 25  3 11 45.0050000  0  4 03 23 17 21
  24335442.920    18223462.329 3  14200093.721 1
  22087710.894   -12893030.067 4 -10046482.238 3
  22733442.572     7692340.326 4   5994035.220 2
  24447016.384    -6256353.103 3  -4875061.760 1
 91  7 25  3 12  0.0050000  0  4 03 23 17 21
  24347841.143    18288597.899 3  14250848.692 1
  22089706.309   -12882543.208 4 -10038310.656 3
  22740137.523     7727522.367 4   6021449.792 2
  24441519.094    -6285262.784 3  -4897588.750 1
 91  7 25  3 12 15.0050000  0  4 03 23 17 21
  24360260.341    18353826.529 3  14301676.131 1
  22091720.325   -12871952.058 4 -10030057.807 3
  22746845.387     7762773.282 4   6048918.041 2
  24436026.289    -6314109.282 3  -4920066.516 1
 91  7 25  3 12 30.0050000  0  4 03 23 17 21
  24372682.837    18419149.361 2  14352576.998 1
  22093755.911   -12861255.002 4 -10021722.429 3
  22753567.036     7798094.568 4   6076441.109 2
  24430549.382    -6342890.881 3  -4942493.673 1
 91  7 25  3 12 45.0050000  0  4 03 23 17 21
  24385132.921    18484564.669 2  14403549.907 1
  22095812.192   -12850453.657 4 -10013305.789 3
  22760303.675     7833484.845 4   6104017.937 2
  24425086.556    -6371609.075 3  -4964871.449 1
 91  7 25  3 13  0.0050000  0  4 03 23 17 21
  24397599.793    18550070.117 2  14454593.067 1
  22097885.854   -12839550.310 4 -10004809.676 3
  22767046.300     7868941.988 4   6131646.876 2
  24419630.344    -6400265.641 3  -4987201.161 1
 91  7 25  3 13 15.0050000  0  4 03 23 17 21
  24410080.154    18615665.631 2  14505706.411 1
  22099980.508   -12828544.992 4  -9996234.093 3
  22773808.713     7904466.104 4   6159328.012 2
  24414191.216    -6428860.523 3  -5009482.840 1
 91  7 25  3 13 30.0050000  0  4 03 23 17 21
  24422575.505    18681352.387 2  14556890.825 1
  22102093.433   -12817436.147 4  -9987577.846 3
  22780582.538     7940058.795 4   6187062.572 2
  24408762.261    -6457392.067 3  -5031715.201 1
 91  7 25  3 13 45.0050000  0  4 03 23 17 21
  24435091.534    18747129.919 2  14608145.907 1
  22104226.460   -12806224.112 4  -9978841.190 3
  22787367.427     7975719.899 4   6214850.435 2
  24403348.314    -6485860.490 3  -5053898.319 1
 91  7 25  3 14  0.0050000  0  4 03 23 17 21
  24447632.761    18812998.795 2  14659472.321 1
  22106380.777   -12794907.956 4  -9970023.403 3
  22794165.823     8011450.255 4   6242692.276 2
  24397941.852    -6514264.549 3  -5076031.296 1
 91  7 25  3 14 15.0050000  0  4 03 23 17 21
  24460182.067    18878957.109 2  14710868.424 1
  22108556.069   -12783489.708 4  -9961126.050 3
  22800976.817     8047248.072 4   6270586.663 2
  24392546.193    -6542605.962 3  -5098115.475 1
 91  7 25  3 14 30.0050000  0  4 03 23 17 21
  24472753.867    18945004.398 3  14762333.801 1
  22110745.757   -12771969.586 4  -9952149.324 3
  22807801.283     8083113.024 4   6298533.375 2
  24387168.507    -6570884.757 3  -5120150.848 1
 91  7 25  3 14 45.0050000  0  4 03 23 17 21
  24485340.657    19011142.702 3  14813870.117 1
  22112958.811   -12760345.445 4  -9943091.557 3
  22814642.851     8119047.615 4   6326534.342 2
  24381798.935    -6599098.660 3  -5142135.666 1
 91  7 25  3 15  0.0050000  0  4 03 23 17 21
  24497942.419    19077369.152 3  14865475.035 1
  22115190.467   -12748619.936 4  -9933954.784 3
  22821494.609     8155049.183 4   6354587.502 2
  24376439.834    -6627249.994 3  -5164071.745 1
 91  7 25  3 15 15.0050000  0  4 03 23 17 21
  24510556.798    19143685.219 3  14917149.837 1
  22117438.910   -12736791.393 4  -9924737.720 3
  22828352.963     8191119.452 4   6382694.207 2
  24371095.443    -6655336.966 3  -5185957.647 1
 91  7 25  3 15 30.0050000  0  4 03 23 17 21
  24523201.138    19210089.338 3  14968893.309 1
  22119713.441   -12724861.422 4  -9915441.639 3
  22835234.404     8227257.091 4   6410853.395 2
  24365760.632    -6683360.899 3  -5207794.419 1
 91  7 25  3 15 45.0050000  0  4 03 23 17 21
  24535841.587    19276581.050 2  15020705.011
  22122000.554   -12712830.032 4  -9906066.525 3
  22842123.925     8263462.013 4   6439065.014 2
  24360440.514    -6711321.750 3  -5229582.053 1
 91  7 25  3 16  0.0050000  0  4 03 23 17 21
  24548517.408    19343160.382 2  15072584.899 1
  22124306.862   -12700697.244 4  -9896612.397 3
  22849024.857     8299734.168 4   6467329.035 2
  24355132.699    -6739219.351 3  -5251320.416 1
 91  7 25  3 16 15.0050000  0  4 03 23 17 21
  24561210.330    19409826.740 2  15124532.650 1
  22126637.443   -12688463.268 4  -9887079.423 3
  22855938.965     8336073.409 4   6495645.320 2
  24349835.965    -6767053.798 3  -5273009.536 1
 91  7 25  3 16 30.0050000  0  4 03 23 17 21
  24573907.440    19476580.910 2  15176548.869 1
  22128984.218   -12676127.263 4  -9877466.940 3
  22862870.157     8372480.784 4   6524014.699 2
  24344550.625    -6794823.949 3  -5294648.606 1
 91  7 25  3 16 45.0050000  0  4 03 23 17 21
  24586626.136    19543422.973 2  15228633.477 1
  22131351.393   -12663689.088 4  -9867774.853 3
  22869806.758     8408956.560 4   6552437.381 2
  24339276.367    -6822529.420 3  -5316237.206 1
 91  7 25  3 17  0.0050000  0  4 03 23 17 21
  24599362.509    19610350.252 2  15280784.571 1
  22133737.431   -12651151.035 4  -9858004.937 3
  22876764.648     8445498.511 4   6580911.641 2
  24334019.209    -6850172.211 3  -5337777.007 1
 91  7 25  3 17 15.0050000  0  4 03 23 17 21
  24612117.187    19677364.623 2  15333003.522 1
  22136143.572   -12638511.442 4  -9848155.899 3
  22883730.618     8482108.611 4   6609438.982 2
  24328772.836    -6877750.203 3  -5359266.314 1
 91  7 25  3 17 30.0050000  0  4 03 23 17 21
  24624881.149    19744465.464 3  15385289.835 1
  22138567.686   -12625770.556 4  -9838227.937 3
  22890705.889     8518786.691 4   6638019.318 2
  24323535.468    -6905263.517 3  -5380705.165 1
 91  7 25  3 17 45.0060000  0  4 03 23 17 21
  24637676.594    19811655.691 3  15437645.847 1
  22141009.795   -12612928.988 4  -9828221.510 3
  22897701.545     8555533.422 4   6666653.124 2
  24318310.387    -6932715.413 3  -5402096.216 1
 91  7 25  3 18  0.0060000  0  4 03 23 17 21
  24650467.237    19878926.858 3  15490064.841 1
  22143474.097   -12599987.566 4  -9818137.286 3
  22904704.701     8592345.175 4   6695337.601 2
  24313098.495    -6960101.117 3  -5423435.662 1
 91  7 25  3 18 15.0060000  0  4 03 23 17 21
  24663291.454    19946284.160 3  15542551.050 1
  22145955.780   -12586944.577 4  -9807973.910 3
  22911725.535     8629225.216 4   6724075.291 2
  24307906.689    -6987421.649 3  -5444724.345 1
 91  7 25  3 18 30.0060000  0  4 03 23 17 21
  24676124.973    20013726.673 3  15595103.593 1
  22148457.844   -12573800.731 4  -9797731.953 3
  22918755.372     8666173.068 4   6752865.827 2
  24302715.773    -7014677.457 3  -5465962.599 1
 91  7 25  3 18 45.0060000  0  4 03 23 17 21
  24688972.888    20081254.470 3  15647722.613 1
  22150976.696   -12560556.206 4  -9787411.530 3
  22925797.809     8703188.772 4   6781709.235 2
  24297541.365    -7041868.216 3  -5487150.192 1
 91  7 25  3 19  0.0060000  0  4 03 23 17 21
  24701836.368    20148867.651 2  15700408.139 1
  22153516.244   -12547210.493 4  -9777012.263 3
  22932859.109     8740272.726 4   6810605.818 2
  24292379.241    -7068993.266 3  -5508286.537 1
 91  7 25  3 19 15.0060000  0  4 03 23 17 21
  24714729.252    20216565.928 2  15753159.988 1
  22156077.063   -12533763.699 4  -9766534.248 3
  22939925.819     8777425.139 4   6839555.744 2
  24287231.793    -7096052.406 3  -5529371.556 1
 91  7 25  3 19 30.0060000  0  4 03 23 17 21
  24727619.431    20284350.032 2  15805978.776 1
  22158651.389   -12520215.010 4  -9755976.820 3
  22947009.910     8814646.668 4   6868559.541 2
  24282091.553    -7123044.837 3  -5550404.565 1
 91  7 25  3 19 45.0060000  0  4 03 23 17 21
  24740535.681    20352220.116 2  15858864.454 1
  22161249.988   -12506563.984 4  -9745339.657 3
  22954107.507     8851937.934 4   6897617.673 2
  24276965.708    -7149969.769 3  -5571384.991 1
 91  7 25  3 20  0.0060000  0  4 03 23 17 21
  24753475.331    20420175.140 2  15911816.383 1
  22163869.877   -12492811.602 4  -9734623.511 3
  22961212.886     8889298.003 4   6926729.415 2
  24271855.447    -7176828.110 3  -5592313.493 1
 91  7 25  3 20 15.0060000  0  4 03 23 17 21
  24766409.276    20488211.936 2  15964832.074 1
  22166501.143   -12478960.984 4  -9723830.819 3
  22968337.147     8926724.120 4   6955892.639 2
  24266752.375    -7203622.595 3  -5613192.281 1
 91  7 25  3 20 30.0060000  0  4 03 23 17 21
  24779377.388    20556329.054 2  16017910.251 1
  22169157.607   -12465013.358 4  -9712962.537 3
  22975473.117     8964215.071 4   6985106.367 2
  24261667.905    -7230354.261 3  -5634022.082 1
 91  7 25  3 20 45.0060000  0  4 03 23 17 21
  24792362.601    20624527.456 2  16071051.901 1
  22171832.359   -12450967.209 4  -9702017.484 3
  22982617.463     9001772.350 4   7014371.780 2
  24256598.111    -7257021.434 3  -5654801.639 1
 91  7 25  3 21  0.0060000  0  4 03 23 17 21
  24805354.113    20692809.480 2  16124258.579 1
  22174525.102   -12436820.455 4  -9690994.030 3
  22989777.706     9039398.180 4   7043690.604 2
  24251541.805    -7283621.797 3  -5675529.178 1
 91  7 25  3 21 15.0060000  0  4 03 23 17 21
  24818358.504    20761173.713 2  16177529.431 1
  22177232.224   -12422573.977 4  -9679892.882 3
  22996951.438     9077091.764 4   7073062.234 2
  24246484.907    -7310156.282 3  -5696205.340 1
 91  7 25  3 21 30.0060000  0  4 03 23 17 21
  24831390.187    20829621.322 2  16230865.164 1
  22179964.527   -12408226.750 4  -9668713.218 3
  23004138.974     9114854.214 4   7102487.516 2
  24241451.391    -7336623.367 3  -5716829.019 1
 91  7 25  3 21 45.0060000  0  4 03 23 17 21
  24844428.152    20898150.449 2  16284264.470 1
  22182714.524   -12393780.297 4  -9657456.243 3
  23011334.588     9152684.095 4   7131965.341 2
  24236424.472    -7363024.354 3  -5737401.190 1
 91  7 25  3 22  0.0060000  0  4 03 23 17 21
  24857482.032    20966759.345 2  16337725.858 1
  22185482.216   -12379236.243 4  -9646123.210 3
  23018543.692     9190579.980 4   7161494.611 2
  24231414.044    -7389360.679 3  -5757922.941 1
 91  7 25  3 22 15.0060000  0  4 03 23 17 21
  24870552.681    21035448.031 2  16391249.404 1
  22188268.178   -12364594.565 4  -9634714.111 3
  23025771.694     9228542.098 4   7191075.474 2
  24226413.806    -7415632.156 3  -5778394.200 1
 91  7 25  3 22 30.0060000  0  4 03 23 17 21
  24883624.831    21104218.599 2  16444836.840 1
  22191071.835   -12349852.935 4  -9623227.129 3
  23033008.387     9266572.682 4   7220709.683 2
  24221428.261    -7441836.266 3  -5798812.919 1
 91  7 25  3 22 45.0060000  0  4 03 23 17 21
  24896731.760    21173071.148 2  16498488.161 1
  22193897.391   -12335010.999 4  -9611661.977 3
  23040259.755     9304672.272 4   7250397.675 2
  24216455.892    -7467972.392 3  -5819178.693 1
 91  7 25  3 23  0.0060000  0  4 03 23 17 21
  24909852.160    21242005.149 2  16552202.814 1
  22196738.810   -12320069.385 4  -9600019.157 3
  23047523.129     9342840.442 4   7280139.105 2
  24211493.137    -7494040.734 3  -5839491.628 1
 91  7 25  3 23 15.0060000  0  4 03 23 17 21
  24922987.881    21311019.344 2  16605980.080 1
  22199602.129   -12305028.910 4  -9588299.314 3
  23054798.195     9381076.394 4   7309933.351 2
  24206547.763    -7520042.078 3  -5859752.356 1
 91  7 25  3 23 30.0060000  0  4 03 23 17 21
  24936134.072    21380114.655 2  16659820.505 1
  22202483.736   -12289888.609 4  -9576501.668 3
  23062086.156     9419381.015 4   7339781.114 2
  24201609.281    -7545975.348 3  -5879960.076 1
 91  7 25  3 23 45.0060000  0  4 03 23 17 21
  24949300.959    21449289.741 2  16713723.127 1
  22205383.334   -12274649.382 4  -9564626.944 3
  23069388.793     9457753.787 4   7369681.974 2
  24196685.475    -7571841.240 3  -5900115.276 1
 91  7 25  3 24  0.0060000  0  4 03 23 17 21
  24962481.632    21518545.264 2  16767688.404 1
  22208299.422   -12259310.557 4  -9552674.607 3
  23076704.622     9496195.333 4   7399636.419 2
  24191778.474    -7597638.911 3  -5920217.310 1
 91  7 25  3 24 15.0060000  0  5 03 23 11 17 21
  24975676.405    21587879.540 3  16821715.072 1
  22211237.987   -12243873.723 4  -9540645.909 3
  27011449.467           0.890 2         0.347 1
  23084034.551     9534704.062 4   7429643.218 2
  24186881.664    -7623369.591 3  -5940267.121 1
 91  7 25  3 24 30.0060000  0  5 03 23 11 17 21
  24988877.757    21657292.902 2  16875803.468 1
  22214196.026   -12228338.372 4  -9528540.441 3
  27003394.935      -42354.935 2    -33004.333 1
  23091374.671     9573280.711 4   7459702.947 2
  24181998.953    -7649032.694 3  -5960264.316 1
 91  7 25  3 24 45.0060000  0  5 03 23 11 17 21
  25002108.198    21726785.999 2  16929953.914 1
  22217169.071   -12212703.593 4  -9516357.484 3
  26995331.119      -84708.008 2    -66006.692 1
  23098727.687     9611926.350 4   7489816.422 2
  24177130.918    -7674627.002 3  -5980207.900 1
 91  7 25  3 25  0.0060000  0  5 03 23 11 17 21
  25015344.938    21796356.724 2  16984164.736 1
  22220165.204   -12196971.531 4  -9504098.738 3
  26987268.211     -127060.128 2    -99008.374 1
  23106093.581     9650638.759 4   7519981.940 2
  24172270.684    -7700154.385 3  -6000099.302 1
 91  7 25  3 25 15.0060000  0  5 03 23 11 17 21
  25028600.856    21866005.601 2  17038436.603 1
  22223177.216   -12181141.419 4  -9491763.586 3
  26979212.179     -169410.030 2   -132008.251 1
  23113471.481     9689419.097 4   7550200.385 2
  24167425.439    -7725613.834 3  -6019937.815 1
 91  7 25  3 25 30.0060000  0  5 03 23 11 17 21
  25041869.670    21935733.800 2  17092770.227 1
  22226208.424   -12165211.859 4  -9479350.935 3
  26971150.754     -211756.007 2   -165005.253 1
  23120866.761     9728268.703 4   7580472.794 2
  24162596.388    -7751003.829 3  -6039722.194 1
 91  7 25  3 25 45.0060000  0  5 03 23 11 17 21
  25055153.178    22005538.766 2  17147163.655 1
  22229258.809   -12149185.336 4  -9466862.738 3
  26963099.538     -254099.985 2   -198000.431 1
  23128269.824     9767185.525 4   7610797.590 2
  24157776.917    -7776326.473 3  -6059454.074 1
 91  7 25  3 26  0.0060000  0  5 03 23 11 17 21
  25068455.862    22075420.559 2  17201616.919 1
  22232328.076   -12133061.648 4  -9454298.817 3
  26955030.627     -296441.587 2   -230993.847 1
  23135689.691     9806169.667 4   7641174.833 2
  24152969.748    -7801581.556 3  -6079133.317 1
 91  7 25  3 26 15.0060000  0  5 03 23 11 17 21
  25081769.052    22145378.433 2  17256129.579 1
  22235412.053   -12116841.136 4  -9441659.460 3
  26946982.394     -338780.625 1   -263985.360 1
  23143120.657     9845220.646 4   7671604.165 2
  24148177.570    -7826769.198 3  -6098760.012 1
 91  7 25  3 26 30.0060000  0  5 03 23 11 17 21
  25095094.824    22215411.322 2  17310700.569 1
  22238516.691   -12100524.893 4  -9428945.501 3
  26938923.674     -381117.629 2   -296975.176 1
  23150565.705     9884337.744 4   7702085.011 2
  24143395.268    -7851890.191 3  -6118334.753 1
 91  7 25  3 26 45.0060000  0  5 03 23 11 17 21
  25108428.692    22285518.730 2  17365329.634 1
  22241641.431   -12084113.029 4  -9416157.031 3
  26930863.750     -423452.428 2   -329963.236 1
  23158023.038     9923520.789 4   7732617.235 2
  24138630.067    -7876944.565 3  -6137857.619 2
 91  7 25  3 27  0.0060000  0  5 03 23 11 17 21
  25121786.241    22355701.410 2  17420017.328 1
  22244783.256   -12067604.940 4  -9403293.583 3
  26922821.224     -465783.887 2   -362948.747 1
  23165491.156     9962770.714 4   7763201.588 2
  24133875.074    -7901931.464 3  -6157327.887 1
 91  7 25  3 27 15.0060000  0  5 03 23 11 17 21
  25135155.201    22425955.604 2  17474760.766 1
  22247940.663   -12051004.114 4  -9390357.879 3
  26914751.703     -508115.113 2   -395933.876 1
  23172970.982    10002083.900 4   7793835.228 2
  24129130.256    -7926854.096 3  -6176748.090 1
 91  7 25  3 27 30.0060000  0  5 03 23 11 17 21
  25148538.820    22496280.670 2  17529559.510
  22251117.580   -12034310.838 4  -9377350.126 3
  26906702.284     -550445.953 1   -428918.824 1
  23180465.205    10041460.350 4   7824518.177 2
  24124400.130    -7951712.577 3  -6196118.284 1
 91  7 25  3 27 45.0060000  0  5 03 23 11 17 21
  25161931.165    22566688.929 2  17584422.947 1
  22254313.657   -12017512.913 4  -9364260.828 3
  26898653.458     -592763.749 2   -461893.718
  23187972.899    10080912.460 4   7855260.077 2
  24119685.884    -7976494.558 3  -6215428.874 1
 91  7 25  3 28  0.0060000  0  5 03 23 11 17 21
  25175349.876    22637171.434 2  17639344.402
  22257528.040   -12000618.944 4  -9351096.696 3
  26890597.722     -635076.836 2   -494864.965 1
  23195492.896    10120431.575 4   7886054.180 2
  24114984.847    -8001208.433 3  -6234686.407 1
 91  7 25  3 28 15.0060000  0  5 03 23 11 17 21
  25188773.369    22707728.193 2  17694323.646 1
  22260760.989   -11983628.789 4  -9337857.612 3
  26882543.208     -677384.553 2   -527832.123 1
  23203028.476    10160018.090 4   7916900.820 2
  24110291.000    -8025853.794 3  -6253890.533 1
 91  7 25  3 28 30.0060000  0  5 03 23 11 17 21
  25202221.170    22778359.909 2  17749361.253 1
  22264013.745   -11966541.626 4  -9324542.934 3
  26874502.775     -719685.611 2   -560793.826 1
  23210570.059    10199672.630 4   7947800.442 2
  24105613.923    -8050429.614 3  -6273040.466 1
 91  7 25  3 28 45.0060000  0  5 03 23 11 17 21
  25215671.954    22849064.325 2  17804455.579 1
  22267287.475   -11949359.489 4  -9311154.253 3
  26866450.338     -761981.755 2   -593751.793 1
  23218129.319    10239393.678 4   7978751.907 2
  24100953.651    -8074937.556 3  -6292137.539 1
 91  7 25  3 29  0.0060000  0  5 03 23 11 17 21
  25229131.744    22919842.724 2  17859607.495 1
  22270571.397   -11932080.930 4  -9297690.438 3
  26858401.215     -804270.895 2   -626704.189 1
  23225704.179    10279182.544 4   8009756.200 2
  24096300.585    -8099376.058 3  -6311180.491 1
 91  7 25  3 29 15.0060000  0  5 03 23 11 17 21
  25242624.793    22990693.595 2  17914815.949 1
  22273880.220   -11914707.251 4  -9284152.504 3
  26850354.484     -846554.155 2   -659652.109 1
  23233285.635    10319038.068 4   8040812.453 2
  24091664.289    -8123746.249 3  -6330170.184 1
 91  7 25  3 29 30.0060000  0  5 03 23 11 17 21
  25256125.346    23061616.373 2  17970080.363 1
  22277201.014   -11897238.957 4  -9270540.844 3
  26842306.565     -888831.424 2   -692595.369 1
  23240884.472    10358959.895 4   8071920.368 2
  24087036.387    -8148048.336 3  -6349106.884 1
 91  7 25  3 29 45.0060000  0  5 03 23 11 17 21
  25269629.197    23132611.887 2  18025401.450 1
  22280543.097   -11879675.096 4  -9256854.719 3
  26834264.318     -931101.311 2   -725532.805
  23248492.610    10398949.111 4   8103080.779 2
  24082427.383    -8172281.270 3  -6367989.652 1
 91  7 25  3 30  0.0060000  0  5 03 23 11 17 21
  25283151.632    23203679.919 2  18080779.111 1
  22283904.672   -11862015.368 4  -9243093.893 3
  26826231.686     -973363.157 2   -758463.982 1
  23256116.034    10439005.981 4   8134293.910 2
  24077830.960    -8196444.583 3  -6386818.178 1
 91  7 25  3 30 15.0060000  0  5 03 23 11 17 21
  25296693.856    23274819.936 2  18136212.771 1
  22287286.332   -11844260.523 4  -9229258.933 3
  26818183.157    -1015617.222 2   -791389.006 1
  23263750.243    10479130.040 4   8165559.404 2
  24073243.839    -8220538.634 3  -6405592.734 1
 91  7 25  3 30 30.0060000  0  5 03 23 11 17 21
  25310241.490    23346033.417 2  18191703.772 1
  22290681.482   -11826408.676 4  -9215348.398 3
  26810145.727    -1057861.371 2   -824306.594 1
  23271400.942    10519323.100 4   8196878.673 2
  24068676.210    -8244561.451 3  -6424311.768 1
 91  7 25  3 30 45.0060000  0  5 03 23 11 17 21
  25323809.191    23417317.908 2  18247250.286 1
  22294096.716   -11808462.227 4  -9201364.156 3
  26802106.795    -1100097.323 2   -857217.600 1
  23279057.940    10559583.032 4   8228250.037 2
  24064115.159    -8268515.061 3  -6442976.878 1
 91  7 25  3 31  0.0060000  0  5 03 23 11 17 21
  25337384.396    23488674.635 2  18302853.132 1
  22297528.144   -11790419.911 4  -9187305.208 3
  26794079.852    -1142323.489 2   -890121.028 1
  23286731.726    10599911.437 4   8259674.775 2
  24059570.302    -8292398.013 3  -6461586.948 1
 91  7 25  3 31 15.0060000  0  5 03 23 11 17 21
  25350974.888    23560102.245 2  18358510.928 1
  22300978.750   -11772282.644 4  -9173172.267 3
  26786047.500    -1184540.339 2   -923017.241 1
  23294421.409    10640307.201 4   8291151.990 2
  24055042.547    -8316211.151 3  -6480142.592 1
 91  7 25  3 31 30.0060000  0  5 03 23 11 17 21
  25364580.962    23631598.575 2  18414222.369 1
  22304449.459   -11754052.677 4  -9158967.093 3
  26778007.975    -1226749.736 2   -955907.616 1
  23302122.469    10680768.280 4   8322680.088 2
  24050520.166    -8339956.368 3  -6498645.344 1
 91  7 25  3 31 45.0060000  0  5 03 23 11 17 21
  25378197.838    23703164.027 2  18469987.627 1
  22307936.641   -11735729.039 4  -9144688.929 3
  26769978.624    -1268950.221 2   -988791.039 1
  23309831.347    10721295.750 4   8354259.933 2
  24046014.293    -8363632.604 3  -6517094.312 1
 91  7 25  3 32  0.0060000  0  5 03 23 11 17 21
  25391834.503    23774799.662 2  18525807.532 1
  22311440.313   -11717310.904 4  -9130337.130 3
  26761948.696    -1311140.556 2  -1021666.630 1
  23317559.385    10761890.488 4   8385892.194 2
  24041520.704    -8387238.841 3  -6535488.727 1
 91  7 25  3 32 15.0060000  0  5 03 23 11 17 21
  25405478.060    23846503.993 2  18581680.947 1
  22314965.868   -11698799.217 4  -9115912.432 3
  26753914.843    -1353321.453 2  -1054534.699 1
  23325297.335    10802551.525 4   8417576.113 2
  24037045.701    -8410775.905 3  -6553829.307 1
 91  7 25  3 32 30.0060000  0  5 03 23 11 17 21
  25419138.405    23918277.112 2  18637607.975 1
  22318504.022   -11680193.809 4  -9101414.701 3
  26745901.406    -1395492.126 2  -1087394.905 1
  23333045.476    10843279.292 4   8449312.037 2
  24032576.386    -8434243.338 3  -6572115.565 1
 91  7 25  3 32 45.0060000  0  5 03 23 11 17 21
  25432812.535    23990118.440 2  18693588.087 1
  22322060.166   -11661495.318 4  -9086844.450 3
  26737865.756    -1437652.648 2  -1120247.245 1
  23340807.996    10884073.503 4   8481099.727 2
  24028122.968    -8457641.496 3  -6590347.858 1
 91  7 25  3 33  0.0060000  0  4 03 23 17 21
  25446496.856    24062028.039 2  18749621.573 1
  22325640.585   -11642703.428 4  -9072201.411 3
  23348584.319    10924934.504 4   8512939.460 2
  24023682.446    -8480969.678 3  -6608525.648 1
 91  7 25  3 33 15.0060000  0  4 03 23 17 21
  25460193.776    24134006.528 2  18805708.638 1
  22329232.398   -11623817.299 4  -9057484.938 3
  23356373.521    10965863.002 4   8544831.789 2
  24019257.507    -8504227.100 3  -6626648.269 2
 91  7 25  3 33 30.0060000  0  4 03 23 17 21
  25473897.886    24206050.214 2  18861846.477 1
  22332842.499   -11604840.553 4  -9042697.860 3
  23364172.023    11006855.637 4   8576774.098 2
  24014848.762    -8527417.172 3  -6644718.420 1
 91  7 25  3 33 45.0060000  0  5 03 23 11 17 21
  25487623.878    24278159.845 2  18918035.721 1
  22336471.481   -11585772.127 4  -9027839.350 3
  26705805.657      271324.96712    211423.834 1
  23371987.609    11047913.527 4   8608767.259 2
  24010450.208    -8550538.462 3  -6662734.984 1
 91  7 25  3 34  0.0060000  0  5 03 23 11 17 21
  25501355.280    24350335.757 2  18974276.645 1
  22340117.861   -11566611.686 4  -9012909.128 3
  26697782.902      229218.122 2    178613.369 1
  23379813.386    11089037.167 4   8640811.648 2
  24006061.548    -8573590.518 3  -6680697.595 1
 91  7 25  3 34 15.0060000  0  5 03 23 11 17 21
  25515106.767    24422578.663 2  19030569.772 1
  22343781.918   -11547358.471 4  -8997906.618 3
  26689777.859      187123.853 2    145812.724 1
  23387648.761    11130227.617 4   8672908.089 2
  24001688.471    -8596572.134 3  -6698605.328 1
 91  7 25  3 34 30.0060000  0  5 03 23 11 17 21
  25528862.128    24494887.595 2  19086914.318 1
  22347462.780   -11528012.962 4  -8982832.187 3
  26681771.891      145041.939 2    113021.674 1
  23395502.127    11171484.544 4   8705056.351 2
  23997330.401    -8619483.748 3  -6716458.512 1
 91  7 25  3 34 45.0060000  0  5 03 23 11 17 21
  25542634.608    24567262.513 2  19143310.514 1
  22351163.709   -11508575.003 4  -8967685.724 3
  26673765.033      102973.117 2     80240.789 1
  23403362.682    11212807.918 4   8737256.396 2
  23992983.098    -8642325.081 3  -6734256.932 1
 91  7 25  3 35  0.0060000  0  5 03 23 11 17 21
  25556424.450    24639702.273 2  19199757.240 1
  22354880.239   -11489045.918 4  -8952468.248 3
  26665762.381       60916.686 2     47469.566 1
  23411241.839    11254196.733 4   8769507.402 2
  23988644.503    -8665097.130 3  -6752001.356 2
 91  7 25  3 35 15.0060000  0  5 03 23 11 17 21
  25570219.406    24712207.299 2  19256254.623 1
  22358612.056   -11469424.893 4  -8937179.130 3
  26657754.616       18873.737 2     14708.861 1
  23419126.668    11295651.946 4   8801810.160 2
  23984323.602    -8687798.860 3  -6769690.973 2
 91  7 25  3 35 30.0060000  0  5 03 23 11 17 21
  25584029.944    24784777.327 2  19312802.586 1
  22362363.661   -11449711.995 4  -8921818.428 3
  26649761.561      -23155.574 2    -18041.051 1
  23427030.709    11337173.447 4   8834164.560 2
  23980020.675    -8710430.231 3  -6787325.794 1
 91  7 25  3 35 45.0060000  0  5 03 23 11 17 21
  25597846.486    24857414.272 2  19369402.825 1
  22366130.848   -11429905.173 4  -8906384.530 3
  26641762.800      -65168.586 2    -50778.501 1
  23434947.332    11378763.490 4   8866572.387 2
  23975729.754    -8732988.940 3  -6804903.977 2
 91  7 25  3 36  0.0060000  0  5 03 23 11 17 21
  25611681.908    24930116.032 2  19426053.348 1
  22369919.029   -11410006.324 4  -8890878.928 3
  26633773.916     -107166.583 2    -83504.139 1
  23442871.144    11420420.291 4   8899032.231 2
  23971450.803    -8755476.646 3  -6822426.819 2
 91  7 25  3 36 15.0060000  0  5 03 23 11 17 21
  25625529.616    25002880.805 2  19482753.123 1
  22373720.698   -11390017.181 4  -8875302.971 3
  26625785.660     -149150.971 2   -116219.155 1
  23450811.133    11462142.366 4   8931542.938 2
  23967182.358    -8777894.856 3  -6839895.565 1
 91  7 25  3 36 30.0060000  0  5 03 23 11 17 21
  25639384.530    25075710.614 2  19539503.590 1
  22377545.751   -11369935.547 4  -8859654.940 3
  26617800.073     -191118.950 2   -148921.449 1
  23458760.736    11503931.932 4   8964106.237 2
  23962931.311    -8800241.244 3  -6857308.288 1
 91  7 25  3 36 45.0060000  0  5 03 23 11 17 21
  25653258.623    25148605.040 2  19596304.311 1
  22381383.682   -11349761.486 4  -8843934.887 2
  26609816.599     -233070.223 2   -181610.764 1
  23466728.314    11545788.892 4   8996722.040 2
  23958691.937    -8822515.618 3  -6874664.916 1
 91  7 25  3 37  0.0060000  0  5 03 23 11 17 21
  25667144.407    25221564.463 2  19653155.736 1
  22385239.919   -11329494.536 4  -8828142.453 3
  26601831.938     -275003.846 2   -214286.201 1
  23474703.709    11587713.874 4   9029390.864 2
  23954465.477    -8844717.312 3  -6891964.934 1
 91  7 25  3 37 15.0060000  0  5 03 23 11 17 21
  25681032.895    25294588.310 2  19710057.405 1
  22389115.333   -11309135.271 4  -8812278.091 3
  26593861.952     -316919.844 2   -246948.070 1
  23482696.171    11629706.619 4   9062112.480 2
  23950259.381    -8866846.647 3  -6909208.542 2
 91  7 25  3 37 30.0060000  0  5 03 23 11 17 21
  25694945.954    25367675.032 2  19767007.947 1
  22393008.738   -11288684.830 4  -8796342.674 3
  26585887.482     -358819.100 2   -279596.754 1
  23490699.730    11671765.812 4   9094885.869 2
  23946059.585    -8888904.569 3  -6926396.515 1
 91  7 25  3 37 45.0060000  0  5 03 23 11 17 21
  25708877.911    25440824.884 2  19824007.730
  22396918.931   -11268142.838 4  -8780335.920 3
  26577914.791     -400700.743 2   -312231.741 1
  23498719.467    11713892.063 4   9127711.516 2
  23941875.389    -8910890.548 3  -6943528.405 1
 91  7 25  3 38  0.0060000  0  5 03 23 11 17 21
  25722801.475    25514036.748 2  19881055.895 1
  22400842.019   -11247510.160 4  -8764258.502 3
  26569951.105     -442565.125 2   -344853.255 1
  23506746.113    11756084.725 4   9160588.909 2
  23937703.164    -8932805.186 3  -6960604.712 1
 91  7 25  3 38 15.0060000  0  5 03 23 11 17 21
  25736741.232    25587311.463 2  19938152.970 1
  22404786.082   -11226786.091 4  -8748109.873 3
  26561990.421     -484411.058 2   -377460.475 1
  23514786.248    11798344.739 4   9193518.791 2
  23933548.058    -8954647.556 3  -6977624.735 1
 91  7 25  3 38 30.0060000  0  5 03 23 11 17 21
  25750703.151    25660647.082 2  19995297.552 1
  22408746.339   -11205972.138 4  -8731891.202 3
  26554031.219     -526239.810 2   -410054.270 1
  23522840.484    11840670.412 4   9226499.830 2
  23929403.719    -8976419.092 3  -6994589.530 2
 91  7 25  3 38 45.0060000  0  5 03 23 11 17 21
  25764674.092    25734032.951 2  20052481.325 1
  22412722.197   -11185078.853 4  -8715610.714 3
  26546069.941     -568061.163 2   -442642.272 1
  23530907.894    11883051.502 4   9259524.041 2
  23925272.886    -8998129.966 3  -7011507.070 1
 91  7 25  3 39  0.0060000  0  5 03 23 11 17 21
  25778646.813    25807493.259 2  20109722.943 1
  22416718.122   -11164081.809 4  -8699249.383 2
  26538118.244     -609850.305 2   -475205.220 1
  23538983.994    11925512.685 4   9292610.678 2
  23921157.322    -9019755.493 3  -7028358.100 1
 91  7 25  3 39 15.0060000  0  5 03 23 11 17 21
  25792630.929    25881015.553 2  20167013.266 1
  22420729.055   -11142993.512 4  -8682816.937 3
  26530166.249     -651619.187 2   -507752.378 1
  23547081.995    11968041.323 4   9325749.873 2
  23917057.061    -9041308.128 3  -7045152.338 2
 91  7 25  3 39 30.0060000  0  5 03 23 11 17 21
  25806639.336    25954597.858 2  20224349.955 1
  22424760.666   -11121815.581 4  -8666314.646 3
  26522228.337     -693369.016 2   -540284.730 1
  23555185.684    12010635.854 4   9358940.414 2
  23912969.104    -9062789.285 3  -7061890.884 1
 91  7 25  3 39 45.0060000  0  5 03 23 11 17 21
  25820655.229    26028242.067 2  20281734.810 1
  22428806.063   -11100546.050 4  -8649740.980 3
  26514285.347     -735097.381 2   -572800.262 1
  23563303.159    12053298.393 4   9392183.948 2
  23908898.805    -9084196.694 3  -7078571.946 1
 91  7 25  3 40  0.0060000  0  5 03 23 11 17 21
  25834676.827    26101946.629 2  20339166.882 1
  22432872.452   -11079186.254 4  -8633096.980 3
  26506346.545     -776805.096 2   -605299.779 1
  23571436.531    12096027.871 4   9425479.661 2
  23904836.621    -9105531.582 3  -7095196.506 1
 91  7 25  3 40 15.0060000  0  5 03 23 11 17 21
  25848709.507    26175711.255 2  20396645.757 1
  22436955.314   -11057736.330 4  -8616382.748 2
  26498417.026     -818491.748 2   -637782.804 1
  23579579.797    12138824.676 4   9458827.808 2
  23900789.724    -9126793.675 3  -7111764.365 2
 91  7 25  3 40 30.0060000  0  5 03 23 11 17 21
  25862769.183    26249536.518 2  20454172.044 1
  22441054.074   -11036195.525 4  -8599597.707 3
  26490484.820     -860156.113 2   -670248.489 1
  23587734.144    12181689.405 4   9492228.889 2
  23896757.816    -9147982.053 3  -7128274.739 1
 91  7 25  3 40 45.0060000  0  5 03 23 11 17 21
  25876833.046    26323421.656 2  20511744.967 1
  22445170.231   -11014564.460 4  -8582742.324 3
  26482567.308     -901798.572 2   -702697.134 1
  23595906.186    12224621.135 4   9525682.183 2
  23892738.194    -9169097.248 3  -7144728.137 1
 91  7 25  3 41  0.0060000  0  5 03 23 11 17 21
  25890896.299    26397365.733 2  20569363.963 1
  22449302.565   -10992843.753 4  -8565817.091 3
  26474640.180     -943419.165 2   -735128.757 1
  23604089.029    12267619.724 4   9559187.562 2
  23888734.468    -9190139.666 3  -7161124.812 1
 91  7 25  3 41 15.0060000  0  5 03 23 11 17 21
  25904972.761    26471369.488 2  20627029.225 1
  22453452.890   -10971032.582 4  -8548821.369 3
  26466728.670     -985016.634 2   -767542.256 1
  23612286.862    12310685.917 4   9592745.626 2
  23884742.731    -9211108.252 3  -7177463.932 1
 91  7 25  3 41 30.0060000  0  5 03 23 11 17 21
  25919066.307    26545431.060 2  20684739.327 1
  22457621.520   -10949132.655 4  -8531756.491 3
  26458817.143    -1026592.148 2   -799938.839 1
  23620489.180    12353818.301 4   9626355.267 2
  23880767.187    -9232004.572 3  -7193746.779 2
 91  7 25  3 41 45.0060000  0  5 03 23 11 17 21
  25933172.435    26619549.124 2  20742493.560 1
  22461805.419   -10927145.169 4  -8514623.386 3
  26450909.524    -1068146.334 2   -832318.652
  23628709.786    12397015.796 4   9660015.648 2
  23876805.726    -9252829.511 3  -7209973.955 1
 91  7 25  3 42  0.0060000  0  5 03 23 11 17 21
  25947286.974    26693724.583 2  20800292.495 1
  22466007.903   -10905069.232 4  -8497421.339 3
  26443006.687    -1109677.674 2   -864680.690 1
  23636942.694    12440279.533 4   9693727.648 2
  23872856.567    -9273581.899 3  -7226144.621 1
 91  7 25  3 42 15.0060000  0  5 03 23 11 17 21
  25961413.484    26767957.860 2  20858136.647 1
  22470223.596   -10882903.750 4  -8480149.534 3
  26435102.366    -1151184.770 2   -897023.884 1
  23645191.481    12483610.361 4   9727491.913 2
  23868920.897    -9294260.634 3  -7242257.889 1
 91  7 25  3 42 30.0060000  0  5 03 23 11 17 21
  25975550.498    26842248.308 2  20916025.164 1
  22474457.560   -10860649.521 4  -8462808.572 3
  26427209.720    -1192667.925 2   -929348.360 1
  23653450.163    12527007.639 4   9761307.972 2
  23864999.013    -9314866.193 3  -7258314.143 2
 91  7 25  3 42 45.0060000  0  5 03 23 11 17 21
  25989702.799    26916595.530 2  20973957.998 1
  22478709.811   -10838306.924 4  -8445398.757 3
  26419323.391    -1234126.937 2   -961653.989 1
  23661718.740    12570471.419 4   9795175.847 2
  23861096.010    -9335398.603 3  -7274313.393 1
 91  7 25  3 43  0.0060000  0  5 03 23 11 17 21
  26003859.603    26990997.867 2  21031933.755 1
  22482978.850   -10815876.986 4  -8427920.877 3
  26411434.339    -1275562.657 2   -993941.621 1
  23670007.087    12614000.563 4   9829094.660 2
  23857201.104    -9355858.917 3  -7290256.470 2
 91  7 25  3 43 15.0060000  0  5 03 23 11 17 21
  26018034.990    27065457.712 2  21089954.307 1
  22487264.990   -10793357.081 4  -8410372.900 3
  26403558.201    -1316972.018 2  -1026208.553 1
  23678303.549    12657597.694 4   9863066.462 2
  23853321.781    -9376244.345 3  -7306141.184 1
 91  7 25  3 43 30.0060000  0  5 03 23 11 17 21
  26032204.986    27139975.600 2  21148020.105 1
  22491566.120   -10770746.921 4  -8392754.590 3
  26395682.656    -1358354.017 2  -1058454.212 1
  23686605.996    12701263.483 4   9897091.749 2
  23849452.963    -9396554.303 3  -7321967.115 2
 91  7 25  3 43 45.0060000  0  5 03 23 11 17 21
  26046405.240    27214548.758 2  21206128.984 1
  22495887.928   -10748048.982 4  -8375067.881 3
  26387809.502    -1399710.674 2  -1090680.141 1
  23694929.436    12744995.649 4   9931168.745 2
  23845604.527    -9416790.955 3  -7337735.905 1
 91  7 25  3 44  0.0060000  0  5 03 23 11 17 21
  26060612.405    27289176.996 2  21264280.776 1
  22500220.817   -10725263.363 4  -8357312.849 3
  26379945.038    -1441041.519 2  -1122885.973 1
  23703267.272    12788794.201 4   9965297.489 2
  23841768.690    -9436954.174 3  -7353447.466 2
 91  7 25  3 44 15.0060000  0  5 03 23 11 17 21
  26074817.475    27363859.563 2  21322474.843 1
  22504575.013   -10702390.544 4  -8339489.871 3
  26372088.391    -1482346.577 2  -1155071.687 1
  23711612.297    12832658.728 4   9999477.632 2
  23837943.934    -9457044.248 3  -7369102.041 1
 91  7 25  3 44 30.0060000  0  5 03 23 11 17 21
  26089031.533    27438594.293 2  21380709.665 1
  22508942.383   -10679432.673 4  -8321600.616 3
  26364232.024    -1523627.471 2  -1187238.556 1
  23719972.610    12876587.086 4  10033707.510 2
  23834135.965    -9477063.075 3  -7384701.110 1
 91  7 25  3 44 45.0060000  0  5 03 23 11 17 21
  26103259.393    27513380.665 2  21438984.713 1
  22513328.339   -10656389.889 4  -8303645.194 3
  26356382.253    -1564883.946 2  -1219386.397 1
  23728341.908    12920579.289 3  10067987.151 2
  23830341.502    -9497010.635 3  -7400244.641 1
 91  7 25  3 45  0.0060000  0  5 03 23 11 17 21
  26117499.835    27588218.524 2  21497299.788 1
  22517727.800   -10633262.040 4  -8285623.494 3
  26348531.295    -1606115.437 2  -1251514.783 1
  23736724.400    12964635.642 4  10102316.769 2
  23826556.323    -9516886.639 3  -7415732.410 2
 91  7 25  3 45 15.0060000  0  5 03 23 11 17 21
  26131747.467    27663107.345 2  21555654.683 1
  22522144.642   -10610049.671 4  -8267535.936 3
  26340689.028    -1647322.003 2  -1283623.748 1
  23745124.289    13008755.653 4  10136695.989 2
  23822788.821    -9536691.599 3  -7431164.807 1
 91  7 25  3 45 30.0060000  0  5 03 23 11 17 21
  26146019.983    27738046.991 2  21614049.178 1
  22526579.476   -10586752.719 4  -8249382.459 3
  26332861.436    -1688502.970 2  -1315712.805 1
  23753529.570    13052939.666 4  10171125.078 2
  23819032.732    -9556425.071 3  -7446541.519 2
 91  7 25  3 45 45.0060000  0  5 03 23 11 17 21
  26160282.011    27813042.075 2  21672486.791 1
  22531027.501   -10563366.631 4  -8231159.530 3
  26325029.063    -1729653.137 2  -1347777.801 1
  23761954.640    13097192.387 4  10205607.704 2
  23815291.614    -9576082.183 3  -7461858.727 1
 91  7 25  3 46  0.0060000  0  5 03 23 11 17 21
  26174575.222    27888084.847 2  21730961.579 1
  22535497.706   -10539898.833 4  -8212872.933 3
  26317205.676    -1770779.533 2  -1379824.246 1
  23770382.711    13141506.386 4  10240138.094 2
  23811567.598    -9595670.258 3  -7477122.131 1
 91  7 25  3 46 15.0060000  0  5 03 23 11 17 21
  26188862.134    27963173.786 2  21789472.218 1
  22539976.008   -10516350.417 4  -8194523.521 3
  26309380.196    -1811882.925 2  -1411852.845 1
  23778829.960    13185880.561 4  10274715.364 2
  23807850.161    -9615190.313 3  -7492332.532 1
 91  7 25  3 46 30.0060000  0  5 03 23 11 17 21
  26203152.327    28038309.924 2  21848019.889 1
  22544471.393   -10492720.386 4  -8176110.504 3
  26301564.313    -1852961.739 2  -1443862.256 1
  23787284.713    13230316.219 4  10309340.567 2
  23804150.436    -9634641.025 4  -7507488.895 2
 91  7 25  3 46 45.0070000  0  5 03 23 11 17 21
  26217464.720    28113500.649 2  21906610.060 1
  22548987.460   -10469004.601 4  -8157630.670 3
  26293747.212    -1894015.611 2  -1475852.196 1
  23795753.237    13274818.910 3  10344017.977 2
  23800460.276    -9654020.953 4  -7522590.103 1
 91  7 25  3 47  0.0070000  0  5 03 23 11 17 21
  26231783.409    28188741.141 2  21965238.948 1
  22553517.624   -10445200.781 4  -8139082.251 3
  26285937.333    -1935033.133 2  -1507813.887 1
  23804234.671    13319388.445 4  10378747.482 2
  23796790.216    -9673321.802 4  -7537629.715 2
 91  7 25  3 47 15.0070000  0  5 03 23 11 17 21
  26246107.804    28264033.361 2  22023908.115 1
  22558060.980   -10421310.239 4  -8120466.231 3
  26278140.017    -1976019.607 2  -1539751.349 1
  23812730.187    13364024.737 4  10413529.000 2
  23793131.551    -9692547.732 4  -7552610.924 2
 91  7 25  3 47 30.0070000  0  5 03 23 11 17 21
  26260450.469    28339380.776 2  22082620.342 1
  22562627.126   -10397329.320 4  -8101779.800 3
  26270350.222    -2016970.690 2  -1571661.244 1
  23821237.099    13408731.667 4  10448365.553 2
  23789486.689    -9711694.774 3  -7567530.673 2
 91  7 25  3 47 45.0070000  0  5 03 23 11 17 21
  26274791.634    28414776.662 2  22141370.431 1
  22567203.743   -10373264.895 4  -8083028.293 3
  26262556.815    -2057892.606 2  -1603548.378 1
  23829755.108    13453502.764 3  10483252.119 1
  23785859.190    -9730769.361 3  -7582393.962 2
 91  7 25  3 48  0.0070000  0  5 03 23 11 17 21
  26289151.994    28490217.785 2  22200155.896 1
  22571799.868   -10349119.694 4  -8064213.860 3
  26254784.994    -2098787.685 2  -1635414.627 1
  23838279.400    13498334.974 3  10518186.306 2
  23782239.806    -9749774.163 4  -7597202.846 2
 91  7 25  3 48 15.0070000  0  5 03 23 11 17 21
  26303501.570    28565675.008 2  22258953.743 1
  22576402.590   -10324922.809 4  -8045359.144 3
  26246997.887    -2139684.653 2  -1667282.326 1
  23846824.388    13543199.387 3  10553145.589 2
  23778631.188    -9768738.249 4  -7611980.037 2
 91  7 25  3 48 30.0070000  0  5 03 23 11 17 21
  26317869.713    28641179.534 2  22317788.194 1
  22581025.083   -10300642.704 4  -8026439.574 3
  26239219.173    -2180551.434 2  -1699126.512 1
  23855375.972    13588127.802 4  10588154.740 1
  23775035.483    -9787629.837 4  -7626700.729 2
 91  7 25  3 48 45.0070000  0  5 03 23 11 17 21
  26332256.458    28716729.013 2  22376657.899 1
  22585659.878   -10276281.768 4  -8007457.032 3
  26231451.244    -2221389.759 2  -1730948.557 1
  23863933.838    13633118.029 4  10623212.047 1
  23771454.158    -9806450.850 4  -7641366.420 2
 91  7 25  3 49  0.0070000  0  5 03 23 11 17 21
  26346649.502    28792321.481 2  22435561.034 1
  22590309.646   -10251841.710 4  -7988412.829 3
  26223688.724    -2262200.929 2  -1762749.441 1
  23872509.398    13678168.689 3  10658316.454 2
  23767884.838    -9825202.935 4  -7655978.408 2
 91  7 25  3 49 15.0070000  0  5 03 23 11 17 21
  26361041.325    28867968.463 2  22494506.708 1
  22594978.626   -10227310.763 4  -7969297.803 3
  26215925.890    -2302972.636 2  -1794519.527 1
  23881092.759    13723291.515 3  10693477.088 2
  23764333.492    -9843874.100 4  -7670527.337 2
 91  7 25  3 49 30.0070000  0  5 03 23 11 17 21
  26375439.168    28943660.545 2  22553487.361 1
  22599660.781   -10202698.045 4  -7950119.059 3
  26208171.153    -2343713.724 2  -1826265.764 1
  23889691.110    13768477.246 3  10728686.739 2
  23760790.539    -9862473.555 4  -7685020.400 2
 91  7 25  3 49 45.0070000  0  5 03 23 11 17 21
  26389854.985    29019395.572 2  22612501.530 1
  22604361.818   -10178005.699 4  -7930878.272 3
  26200425.123    -2384425.639 2  -1857989.345 1
  23898302.652    13813723.910 3  10763943.873 2
  23757267.986    -9881002.940 4  -7699458.861 2
 91  7 25  3 50  0.0070000  0  5 03 23 11 17 21
  26404264.816    29095177.312 2  22671552.067 1
  22609076.657   -10153230.044 4  -7911572.562 3
  26192684.189    -2425104.068 2  -1889686.781 1
  23906925.887    13859035.511 3  10799251.616 2
  23753754.123    -9899458.364 4  -7713839.664 2
 91  7 25  3 50 15.0070000  0  5 03 23 11 17 21
  26418703.719    29171002.584 2  22730636.702 1
  22613805.596   -10128373.719 4  -7892203.997 3
  26184952.539    -2465751.391 2  -1921359.927 1
  23915562.907    13904409.206 3  10834607.730 2
  23750255.843    -9917842.432 4  -7728164.888 2
 91  7 25  3 50 30.0070000  0  5 03 23 11 17 21
  26433145.310    29246869.914 2  22789753.908 1
  22618551.602   -10103437.841 4  -7872773.452 3
  26177218.497    -2506368.214 2  -1953009.381 1
  23924207.117    13949844.257 3  10870011.671 2
  23746774.943    -9936155.981 4  -7742435.151 2
 91  7 25  3 50 45.0070000  0  5 03 23 11 17 21
  26447595.905    29322798.319 2  22848918.857 1
  22623315.912   -10078403.654 4  -7853266.289 3
  26169502.430    -2546935.058 2  -1984619.897 1
  23932865.723    13995359.575 3  10905478.161 2
  23743305.159    -9954379.931 4  -7756635.606 2
 91  7 25  3 51  0.0070000  0  5 03 23 11 17 21
  26462047.111    29398791.564 2  22908134.235 1
  22628097.290   -10053266.991 4  -7833679.279 3
  26161793.569    -2587447.466 2  -2016187.951 1
  23941544.414    14040959.474 3  10941010.526 2
  23739854.239    -9972510.105 4  -7770762.990 1
 91  7 25  3 51 15.0070000  0  5 03 23 11 17 21
  26476521.683    29474826.287 2  22967381.898 1
  22632896.379   -10028051.066 4  -7814030.500 3
  26154089.804    -2627928.127 2  -2047731.298 1
  23950236.594    14086620.586 3  10976590.605 2
  23736417.715    -9990569.497 4  -7784835.221 2
 91  7 25  3 51 30.0070000  0  5 03 23 11 17 21
  26490999.256    29550899.314 2  23026659.447 1
  22637708.939   -10002758.944 4  -7794322.354 3
  26146385.743    -2668379.499 2  -2079251.823 1
  23958934.778    14132340.124 3  11012216.228 1
  23732992.883   -10008560.909 4  -7798854.481 2
 91  7 25  3 51 45.0070000  0  5 03 23 11 17 21
  26505476.236    29627015.513 2  23085970.684 1
  22642539.195    -9977385.494 4  -7774550.839 3
  26138701.155    -2708795.875 2  -2110745.058 1
  23967643.745    14178123.382 3  11047891.474 1
  23729587.246   -10026478.955 4  -7812816.562 1
 91  7 25  3 52  0.0070000  0  5 03 23 11 17 21
  26519974.802    29703172.141 2  23145313.385 1
  22647380.845    -9951933.337 4  -7754717.988 3
  26131017.475    -2749179.432 2  -2142212.721 1
  23976368.906    14223967.845 3  11083614.422 2
  23726186.705   -10044326.179 4  -7826723.456 2
 91  7 25  3 52 15.0070000  0  5 03 23 11 17 21
  26534470.069    29779372.298 2  23204689.996 1
  22652240.172    -9926399.285 4  -7734821.331 3
  26123338.298    -2789526.455 2  -2173651.917 1
  23985109.651    14269876.906 3  11119387.719 2
  23722806.842   -10062099.058 3  -7840572.436 1
 91  7 25  3 52 30.0070000  0  5 03 23 11 17 21
  26548977.622    29855614.323 2  23264099.281 1
  22657115.100    -9900784.748 4  -7714861.954 3
  26115661.197    -2829837.849 2  -2205063.322 1
  23993858.195    14315848.913 3  11155210.041 2
  23719440.172   -10079798.866 4  -7854364.462 2
 91  7 25  3 52 45.0070000  0  5 03 23 11 17 21
  26563498.978    29931897.010 2  23323540.280 1
  22662005.628    -9875090.620 4  -7694840.556 3
  26108003.011    -2870114.039 2  -2236447.349 1
  24002614.243    14361883.347 3  11191081.016 2
  23716082.505   -10097426.240 4  -7868100.052 2
 91  7 25  3 53  0.0070000  0  5 03 23 11 17 21
  26578022.113    30008220.362 2  23383012.929 1
  22666909.628    -9849316.964 4  -7674757.180 3
  26100345.402    -2910354.430 2  -2267803.460 1
  24011386.171    14407980.278 3  11227000.691 2
  23712742.813   -10114981.034 4  -7881779.088 2
 91  7 25  3 53 15.0070000  0  5 03 23 11 17 21
  26592553.957    30084586.685 2  23442519.071 1
  22671830.118    -9823461.253 4  -7654609.875 3
  26092697.408    -2950555.991 2  -2299129.317 1
  24020169.790    14454142.375 3  11262971.166 2
  23709417.814   -10132460.511 4  -7895399.430 2
 91  7 25  3 53 30.0070000  0  5 03 23 11 17 21
  26607092.100    30160991.581 2  23502055.270 1
  22676763.207    -9797527.433 4  -7634401.713 3
  26085052.991    -2990722.243 2  -2330427.643 1
  24028970.790    14500365.746 3  11298989.366 2
  23706103.005   -10149868.525 4  -7908964.106 2
 91  7 25  3 53 45.0070000  0  5 03 23 11 17 21
  26621636.524    30237438.863 2  23561624.467
  22681714.270    -9771511.778 4  -7614129.777 3
  26077420.283    -3030849.056 2  -2361695.303 1
  24037774.495    14546654.408 3  11335058.458 2
  23702805.298   -10167201.248 4  -7922470.102 1
 91  7 25  3 54  0.0070000  0  5 03 23 11 17 21
  26636189.954    30313927.980 2  23621226.210 1
  22686680.637    -9745414.701 4  -7593794.390 3
  26069788.169    -3070936.141 2  -2392931.958 1
  24046595.894    14593008.004 3  11371178.148 2
  23699521.970   -10184458.684 4  -7935917.406 2
 91  7 25  3 54 15.0070000  0  5 03 23 11 17 21
  26650754.464    30390457.140 2  23680859.571 1
  22691662.884    -9719237.728 4  -7573396.754 3
  26062165.041    -3110984.738 2  -2424138.606 1
  24055428.671    14639424.820 3  11407347.064 2
  23696250.019   -10201642.399 4  -7949307.312 2
 91  7 25  3 54 30.0070000  0  5 03 23 11 17 21
  26665331.276    30467025.228 2  23740523.026 1
  22696660.434    -9692981.808 4  -7552937.599 3
  26054553.605    -3150995.150 2  -2455315.537 1
  24064272.249    14685904.401 3  11443564.922 2
  23692994.576   -10218753.077 4  -7962640.276 2
 91  7 25  3 54 45.0070000  0  5 03 23 11 17 21
  26679909.276    30543629.877 2  23800214.797 1
  22701669.065    -9666649.180 4  -7532418.674 3
  26046944.874    -3190969.044 2  -2486463.957 1
  24073129.613    14732444.516 3  11479829.937 2
  23689751.122   -10235792.651 3  -7975917.841 1
 91  7 25  3 55  0.0070000  0  5 03 23 11 17 21
  26694483.401    30620271.719 2  23859935.603 1
  22706694.780    -9640238.959 4  -7511839.282 3
  26039344.833    -3230904.824 2  -2517582.699 1
  24081996.889    14779046.414 3  11516143.101 1
  23686522.360   -10252759.760 4  -7989138.950 2
 91  7 25  3 55 15.0070000  0  5 03 23 11 17 21
  26709084.783    30696950.407 2  23919685.119 1
  22711734.892    -9613751.448 4  -7491199.666 3
  26031755.890    -3270802.462 2  -2548671.700 1
  24090879.730    14825709.775 3  11552504.137 2
  23683309.792   -10269654.664 4  -8002303.778 2
 91  7 25  3 55 30.0070000  0  5 03 23 11 17 21
  26723668.489    30773665.966 2  23979463.426 1
  22716789.993    -9587186.170 4  -7470499.459 3
  26024172.637    -3310661.050 2  -2579730.279 1
  24099768.575    14872434.917 3  11588913.333 1
  23680106.508   -10286476.915 4  -8015412.007 1
 91  7 25  3 55 45.0070000  0  5 03 23 11 17 21
  26738282.470    30850420.191 2  24039271.741 1
  22721860.084    -9560541.272 4  -7449737.199 3
  26016597.183    -3350478.214 2  -2610756.575 1
  24108673.613    14919223.706 3  11625372.125 1
  23676921.215   -10303224.492 4  -8028462.055 2
 91  7 25  3 56  0.0070000  0  4 23 11 17 21
  22726944.572    -9533816.993 4  -7428913.092 3
  26009026.528    -3390253.614 2  -2641750.334 1
  24117588.842    14966076.281 3  11661880.625 2
  23673747.300   -10319897.325 3  -8041453.841 2
 91  7 25  3 56 15.0070000  0  4 23 11 17 21
  22732045.829    -9507014.006 4  -7408027.654 3
  26001464.267    -3429987.312 2  -2672711.586 1
  24126516.966    15012992.102 3  11698438.389 2
  23670587.188   -10336495.822 4  -8054387.730 2
 91  7 25  3 56 30.0070000  0  4 23 11 17 21
  22737162.686    -9480132.309 4  -7387080.878 3
  25993908.288    -3469678.939 2  -2703640.098 1
  24135454.078    15059970.958 3  11735045.282 2
  23667445.974   -10353020.006 4  -8067263.689 2
 91  7 25  3 56 45.0070000  0  4 23 11 17 21
  22742292.143    -9453173.617 4  -7366074.105 3
  25986363.407    -3509329.546 3  -2734536.597 1
  24144407.366    15107011.595 3  11771700.308 2
  23664313.136   -10369471.168 3  -8080082.761 1
 91  7 25  3 57  0.0070000  0  4 23 11 17 21
  22747436.886    -9426137.012 4  -7345006.624 3
  25978826.937    -3548937.613 3  -2765400.002 1
  24153371.176    15154115.090 3  11808404.342 1
  23661195.289   -10385848.215 3  -8092844.072 2
 91  7 25  3 57 15.0070000  0  4 23 11 17 21
  22752596.898    -9399025.028 4  -7323880.408 3
  25971299.140    -3588505.239 3  -2796231.882 1
  24162346.364    15201278.899 3  11845155.343 1
  23658093.949   -10402153.513 3  -8105549.466 2
 91  7 25  3 57 30.0070000  0  4 23 11 17 21
  22757769.823    -9371833.936 4  -7302692.550 3
  25963779.143    -3628028.146 3  -2827028.931 1
  24171335.041    15248507.028 3  11881956.503 1
  23655006.988   -10418383.045 4  -8118195.836 2
 91  7 25  3 57 45.0070000  0  4 23 11 17 21
  22762961.036    -9344564.387 4  -7281443.556 3
  25956266.946    -3667506.571 3  -2857791.338 1
  24180333.909    15295798.777 3  11918807.193 2
  23651932.312   -10434537.487 4  -8130783.686 2
 91  7 25  3 58  0.0070000  0  4 23 11 17 21
  22768165.720    -9317218.533 4  -7260135.092 3
  25948758.345    -3706942.166 3  -2888520.330 1
  24189343.561    15343152.144 3  11955705.917 2
  23648869.031   -10450618.867 4  -8143314.604 2
 91  7 25  3 58 15.0070000  0  4 23 11 17 21
  22773381.520    -9289793.953 4  -7238765.295 3
  25941261.731    -3746331.899 3  -2919213.611 1
  24198365.812    15390569.403 3  11992654.418 2
  23645826.742   -10466624.509 4  -8155786.535 2
 91  7 25  3 58 30.0070000  0  4 23 11 17 21
  22778615.888    -9262291.642 4  -7217334.933 3
  25933782.515    -3785676.203 2  -2949871.443 1
  24207403.367    15438050.072 3  12029652.319 2
  23642794.627   -10482555.017 4  -8168199.894 2
 91  7 25  3 58 45.0070000  0  4 23 11 17 21
  22783865.856    -9234714.823 4  -7195846.498 3
  25926303.596    -3824977.862 2  -2980496.043 1
  24216449.299    15485590.795 3  12066697.038 1
  23639775.129   -10498413.480 4  -8180557.119 2
 91  7 25  3 59  0.0070000  0  4 23 11 17 21
  22789125.718    -9207061.512 4  -7174298.473 3
  25918830.959    -3864234.215 2  -3011085.355 1
  24225506.939    15533193.838 3  12103790.308 2
  23636771.510   -10514197.641 4  -8192856.436 2
 91  7 25  3 59 15.0070000  0  4 23 11 17 21
  22794402.663    -9179331.870 4  -7152690.960 3
  25911360.731    -3903444.984 2  -3041639.143 1
  24234578.644    15580859.094 3  12140932.057 1
  23633783.474   -10529907.574 4  -8205097.920 2
 91  7 25  3 59 30.0070000  0  4 23 11 17 21
  22799692.505    -9151529.136 4  -7131026.495 3
  25903911.494    -3942612.855 3  -3072159.500 1
  24243664.763    15628583.484 3  12178119.890 2
  23630808.928   -10545546.234 4  -8217283.862 2
 91  7 25  3 59 45.0070000  0  4 23 11 17 21
  22804995.836    -9123652.711 4  -7109304.602 3
  25896468.540    -3981736.752 3  -3102645.604 1
  24252750.568    15676367.669 3  12215354.308 2
  23627844.886   -10561112.993 4  -8229413.789 2
 91  7 25  4  0  0.0070000  0  4 23 11 17 21
  22810313.545    -9095700.758 4  -7087523.863 3
  25889036.999    -4020814.202 3  -3133095.518 1
  24261857.959    15724213.540 3  12252636.794 2
  23624899.429   -10576605.810 4  -8241486.084 2
 91  7 25  4  0 15.0070000  0  4 23 11 17 21
  22815650.153    -9067673.017 4  -7065684.071 3
  25881598.843    -4059844.602 3  -3163508.757 1
  24270975.854    15772121.640 3  12289967.755 2
  23621962.959   -10592024.263 4  -8253500.438 1
 91  7 25  4  0 30.0070000  0  4 23 11 17 21
  22820998.750    -9039570.616 4  -7043786.090 3
  25874186.776    -4098828.324 3  -3193885.662 1
  24280105.424    15820090.943 3  12327346.424 1
  23619045.980   -10607369.142 4  -8265457.460 2
 91  7 25  4  0 45.0070000  0  4 23 11 17 21
  22826360.539    -9011390.324 4  -7021827.426 3
  25866774.709    -4137761.690 3  -3224223.365 1
  24289241.015    15868124.654 3  12364775.295 1
  23616139.490   -10622637.095 4  -8277354.556 2
 91  7 25  4  1  0.0070000  0  4 23 11 17 21
  22831739.114    -8983130.809 4  -6999807.030 3
  25859376.724    -4176642.857 2  -3254520.267 1
  24298392.781    15916224.229 3  12402255.462 1
  23613246.784   -10637826.482 4  -8289190.405 2
 91  7 25  4  1 15.0070000  0  4 23 11 17 21
  22837130.883    -8954796.786 4  -6977728.576 3
  25851990.134    -4215476.164 2  -3284779.994 1
  24307558.630    15964385.022 3  12439783.341 2
  23610371.477   -10652942.077 4  -8300968.778 2
 91  7 25  4  1 30.0070000  0  4 23 11 17 21
  22842534.936    -8926386.860 4  -6955590.963 3
  25844611.048    -4254259.555 2  -3315000.765 1
  24316737.672    16012608.464 3  12477360.043 1
  23607508.769   -10667982.209 4  -8312688.336 2
 91  7 25  4  1 45.0070000  0  4 23 11 17 21
  22847956.980    -8897901.869 4  -6933394.865 3
  25837235.853    -4292993.275 2  -3345182.861 1
  24325927.515    16060894.105 3  12514985.200 2
  23604658.032   -10682947.363 4  -8324349.486 2
 91  7 25  4  2  0.0070000  0  4 23 11 17 21
  22853391.624    -8869343.532 4  -6911141.619 3
  25829872.349    -4331678.421 2  -3375327.074 1
  24335125.752    16109240.184 3  12552657.460 2
  23601825.303   -10697839.309 4  -8335953.569 2
 91  7 25  4  2 15.0070000  0  4 23 11 17 21
  22858838.552    -8840711.640 4  -6888831.052 3
  25822522.632    -4370314.388 3  -3405432.974 1
  24344332.364    16157647.112 3  12590377.139 1
  23599007.843   -10712657.678 4  -8347500.322 2
 91  7 25  4  2 30.0070000  0  4 23 11 17 21
  22864302.879    -8812005.466 4  -6866462.606 3
  25815180.121    -4408899.781 3  -3435499.438 1
  24353560.284    16206115.570 3  12628144.752 1
  23596200.295   -10727401.400 4  -8358988.910 2
 91  7 25  4  2 45.0070000  0  4 23 11 17 21
  22869779.176    -8783224.917 4  -6844036.198 3
  25807847.505    -4447434.003 3  -3465526.074 1
  24362792.391    16254646.079 3  12665960.711 1
  23593410.424   -10742070.221 4  -8370419.146 2
 91  7 25  4  3  0.0070000  0  4 23 11 17 21
  22875269.573    -8754371.030 4  -6821552.651 3
  25800525.062    -4485917.673 3  -3495513.297 1
  24372043.083    16303237.428 3  12703824.084 1
  23590633.449   -10756664.953 4  -8381791.644 2
 91  7 25  4  3 15.0070000  0  4 23 11 17 21
  22880773.476    -8725444.967 4  -6799012.855 3
  25793213.438    -4524351.242 3  -3525461.471 1
  24381301.279    16351888.790 3  12741734.223 1
  23587869.962   -10771186.528 4  -8393107.126 2
 91  7 25  4  3 30.0070000  0  4 23 11 17 21
  22886291.758    -8696445.453 4  -6776415.824 3
  25785911.080    -4562733.011 3  -3555369.319 1
  24390572.353    16400601.435 3  12779692.115 2
  23585121.762   -10785633.551 4  -8404364.532 2
 91  7 25  4  3 45.0070000  0  4 23 11 17 21
  22891824.420    -8667372.854 4  -6753761.847 3
  25778613.836    -4601062.810 3  -3585236.662 1
  24399850.040    16449375.076 3  12817697.536 2
  23582388.256   -10800006.201 4  -8415563.980 2
 91  7 25  4  4  0.0070000  0  4 23 11 17 21
  22897372.681    -8638227.127 4  -6731050.891 3
  25771325.874    -4639339.978 3  -3615062.978 1
  24409143.293    16498209.640 3  12855750.421 1
  23579668.534   -10814304.235 4  -8426705.287 2
 91  7 25  4  4 15.0070000  0  4 23 11 17 21
  22902930.523    -8609009.846 4  -6708284.179 3
  25764055.014    -4677565.531 2  -3644849.092 1
  24418442.566    16547104.115 3  12893850.007 1
  23576960.505   -10828528.874 4  -8437789.404 2
 91  7 25  4  4 30.0070000  0  4 23 11 17 21
  22908506.967    -8579720.695 4  -6685461.462 3
  25756782.950    -4715738.834 2  -3674594.463 1
  24427760.407    16596058.539 3  12931996.296 1
  23574270.467   -10842679.835 4  -8448816.096 2
 91  7 25  4  4 45.0070000  0  4 23 11 17 21
  22914094.196    -8550359.725 4  -6662582.782 3
  25749536.067    -4753859.197 2  -3704298.564 1
  24437087.548    16645073.085 3  12970189.455 1
  23571586.431   -10856756.900 4  -8459785.224 2
 91  7 25  4  5  0.0070000  0  4 23 11 17 21
  22919692.225    -8520926.151 4  -6639647.526 3
  25742296.687    -4791925.359 3  -3733960.516 1
  24446426.399    16694148.660 3  13008430.143 1
  23568923.074   -10870759.204 4  -8470696.096 2
 91  7 25  4  5 15.0070000  0  4 23 11 17 21
  22925306.449    -8491419.933 4  -6616655.662 3
  25735062.088    -4829936.683 3  -3763579.683 1
  24455783.205    16743285.555 3  13046718.617 1
  23566273.206   -10884686.413 4  -8481548.437 2
 91  7 25  4  5 30.0070000  0  4 23 11 17 21
  22930934.738    -8461841.588 4  -6593607.600 3
  25727838.885    -4867893.284 3  -3793156.250 1
  24465143.939    16792483.101 3  13085054.345 2
  23563636.234   -10898539.035 4  -8492342.676 2
 91  7 25  4  5 45.0070000  0  4 23 11 17 21
  22936579.831    -8432192.134 4  -6570504.124 3
  25720624.982    -4905795.565 3  -3822690.456 1
  24474513.344    16841740.456 3  13123436.686 1
  23561012.751   -10912317.806 4  -8503079.362 2
 91  7 25  4  6  0.0070000  0  4 23 11 17 21
  22942235.115    -8402467.936 4  -6547342.406 3
  25713420.677    -4943639.373 3  -3852179.070 1
  24483902.853    16891061.370 3  13161868.529 1
  23558406.962   -10926018.938 4  -8513755.546 2
 91  7 25  4  6 15.0070000  0  4 23 11 17 21
  22947902.998    -8372671.599 4  -6524124.484 2
  25706233.439    -4981426.729 3  -3881623.724 1
  24493296.846    16940443.329 3  13200347.961 1
  23555813.441   -10939644.838 4  -8524373.125 2
 91  7 25  4  6 30.0070000  0  4 23 11 17 21
  22953589.169    -8342802.417 4  -6500849.800 3
  25699051.313    -5019156.391 3  -3911023.414 1
  24502702.827    16989887.484 3  13238875.880 1
  23553235.241   -10953194.676 4  -8534931.406 2
 91  7 25  4  6 45.0070000  0  4 23 11 17 21
  22959287.014    -8312862.586 4  -6477520.053 3
  25691880.582    -5056830.035 3  -3940379.444 1
  24512127.411    17039391.620 3  13277450.504 1
  23550668.105   -10966670.302 4  -8545431.890 2
 91  7 25  4  7  0.0070000  0  4 23 11 17 21
  22964997.161    -8282852.900 4  -6454135.875 2
  25684727.528    -5094447.854 2  -3969691.979 1
  24521558.870    17088954.886 3  13316071.222 1
  23548119.884   -10980072.409 4  -8555875.070 2
 91  7 25  4  7 15.0070000  0  4 23 11 17 21
  22970719.908    -8252772.368 4  -6430696.496 2
  25677579.274    -5132008.345 2  -3998959.850 1
  24531005.946    17138578.392 3  13354738.890 1
  23545583.932   -10993399.745 4  -8566259.993 2
 91  7 25  4  7 30.0070000  0  4 23 11 17 21
  22976457.923    -8222621.913 4  -6407202.634 3
  25670441.227    -5169511.781 2  -4028183.254 1
  24540452.098    17188261.485 3  13393452.998 1
  23543062.672   -11006653.033 4  -8576587.216 2
 91  7 25  4  7 45.0070000  0  4 23 11 17 21
  22982209.742    -8192402.174 4  -6383654.783 2
  25663311.853    -5206958.346 3  -4057362.403 1
  24549917.149    17238003.522 3  13432213.008 1
  23540554.622   -11019832.774 4  -8586857.115 2
 91  7 25  4  8  0.0070000  0  4 23 11 17 21
  22987971.455    -8162113.292 4  -6360053.059 2
  25656200.174    -5244347.665 3  -4086496.898 1
  24559399.283    17287804.385 3  13471018.859 1
  23538059.136   -11032939.072 4  -8597069.801 2
 91  7 25  4  8 15.0070000  0  4 23 11 17 21
  22993749.955    -8131751.765 4  -6336394.725 2
  25649096.295    -5281675.772 3  -4115583.688 1
  24568884.419    17337667.501 3  13509873.230 1
  23535580.751   -11045968.187 4  -8607222.352 2
 91  7 25  4  8 30.0070000  0  4 23 11 17 21
  22999541.647    -8101319.321 4  -6312681.123 3
  25642008.907    -5318943.751 3  -4144623.681 1
  24578390.233    17387591.485 3  13548775.010 1
  23533113.762   -11058921.479 4  -8617315.805 2
 91  7 25  4  8 45.0070000  0  4 23 11 17 21
  23005347.125    -8070819.059 4  -6288914.688 2
  25634923.909    -5356154.175 3  -4173618.756 1
  24587902.346    17437573.199 3  13587721.774 1
  23530665.356   -11071802.039 4  -8627352.589 2
 91  7 25  4  9  0.0070000  0  4 23 11 17 21
  23011163.405    -8040249.525 4  -6265094.267 2
  25627853.604    -5393305.025 3  -4202567.444 1
  24597419.852    17487614.407 3  13626714.914 2
  23528228.050   -11084608.259 4  -8637331.431 2
 91  7 25  4  9 15.0070000  0  4 23 11 17 21
  23016992.860    -8009609.387 4  -6241218.831 3
  25620793.491    -5430394.441 3  -4231468.234 1
  24606952.069    17537716.368 3  13665755.392 1
  23525807.216   -11097338.630 4  -8647251.201 2
 91  7 25  4  9 30.0070000  0  4 23 11 17 21
  23022837.618    -7978898.895 4  -6217288.571 3
  25613749.571    -5467422.197 3  -4260321.013 1
  24616500.147    17587878.805 3  13704842.985 1
  23523399.592   -11109993.242 4  -8657111.918 2
 91  7 25  4  9 45.0070000  0  4 23 11 17 21
  23028695.866    -7948118.188 4  -6193303.611 3
  25606719.436    -5504387.853 3  -4289125.348 1
  24626050.041    17638101.829 3  13743977.810 1
  23521000.658   -11122572.177 4  -8666913.649 2
 91  7 25  4 10  0.0070000  0  4 23 11 17 21
  23034567.899    -7917268.652 4  -6169265.007 2
  25599689.895    -5541292.112 3  -4317881.864 1
  24635622.410    17688384.564 3  13783159.156 2
  23518622.996   -11135076.400 4  -8676657.190 2
 91  7 25  4 10 15.0070000  0  4 23 11 17 21
  23040448.622    -7886350.321 4  -6145172.793 2
  25592682.254    -5578134.467 3  -4346590.128 1
  24645207.675    17738726.855 3  13822386.888 1
  23516258.527   -11147505.691 4  -8686342.341 2
 91  7 25  4 10 30.0070000  0  4 23 11 17 21
  23046345.539    -7855364.487 4  -6121027.992 3
  25585682.693    -5614915.707 3  -4375250.808 1
  24654789.642    17789127.319 3  13861659.962 1
  23513906.953   -11159861.340 4  -8695970.098 2
 91  7 25  4 10 45.0070000  0  4 23 11 17 21
  23052253.258    -7824310.618 4  -6096830.170 2
  25578698.435    -5651634.650 3  -4403862.926 1
  24664403.386    17839586.845 3  13900979.069 1
  23511571.869   -11172142.549 4  -8705539.855 2
 91  7 25  4 11  0.0070000  0  4 23 11 17 21
  23058178.357    -7793187.117 4  -6072578.085 2
  25571720.459    -5688289.419 3  -4432425.026 1
  24674015.943    17890106.794 3  13940345.247 2
  23509249.088   -11184347.728 4  -8715050.360 2
 91  7 25  4 11 15.0070000  0  4 23 11 17 21
  23064114.852    -7761995.166 4  -6048272.661 2
  25564755.990    -5724880.562 3  -4460937.609 1
  24683640.174    17940686.262 3  13979757.803 1
  23506941.279   -11196477.794 4  -8724502.342 2
 91  7 25  4 11 30.0070000  0  4 23 11 17 21
  23070060.630    -7730735.704 4  -6023914.636 3
  25557806.790    -5761408.375 3  -4489400.834 1
  24693275.207    17991324.531 3  14019216.160 2
  23504644.569   -11208533.444 4  -8733896.343 2
 91  7 25  4 11 45.0070000  0  4 23 11 17 21
  23076023.194    -7699407.785 4  -5999503.272 2
  25550864.797    -5797871.291 3  -4517813.435 1
  24702922.228    18042022.523 3  14058721.063 1
  23502364.052   -11220513.450 4  -8743231.389 2
 91  7 25  4 12  0.0070000  0  4 23 11 17 21
  23081998.672    -7668011.814 4  -5975038.880 2
  25543941.702    -5834269.269 3  -4546175.463 1
  24712579.144    18092779.896 3  14098272.257 1
  23500101.213   -11232418.166 4  -8752507.780 2
 91  7 25  4 12 15.0070000  0  4 23 11 17 21
  23087985.825    -7636549.280 4  -5950522.616 3
  25537027.891    -5870603.188 3  -4574487.571 1
  24722250.439    18143595.373 3  14137868.735 1
  23497849.175   -11244248.910 4  -8761726.528 2
 91  7 25  4 12 30.0070000  0  4 23 11 17 21
  23093984.075    -7605019.708 4  -5925954.118 2
  25530124.567    -5906872.127 3  -4602749.079 1
  24731936.444    18194469.425 3  14177510.831 1
  23495614.832   -11256005.040 4  -8770887.132 2
 91  7 25  4 12 45.0070000  0  4 23 11 17 21
  23099995.797    -7573423.025 4  -5901333.322 2
  25523238.327    -5943075.437 3  -4630959.390 1
  24741620.931    18245402.119 3  14217198.629 1
  23493390.365   -11267686.305 4  -8779989.394 2
 91  7 25  4 13  0.0070000  0  4 23 11 17 21
  23106021.637    -7541758.765 4  -5876659.868 2
  25516355.996    -5979212.139 3  -4659117.857 1
  24751328.207    18296394.108 3  14256932.644 2
  23491179.091   -11279292.007 4  -8789032.780 2
 91  7 25  4 13 15.0070000  0  4 23 11 17 21
  23112061.559    -7510028.381 4  -5851934.895 3
  25509494.047    -6015283.119 3  -4687225.075 1
  24761040.894    18347444.021 3  14296711.772 1
  23488985.808   -11290823.533 4  -8798018.375 2
 91  7 25  4 13 30.0070000  0  4 23 11 17 21
  23118111.671    -7478229.551 4  -5827156.588 2
  25502642.586    -6051285.523 3  -4715278.859 1
  24770761.957    18398554.370 3  14336537.998 2
  23486807.829   -11302278.493 4  -8806944.295 2
 91  7 25  4 13 45.0070000  0  4 23 11 17 21
  23124175.866    -7446363.509 4  -5802325.897 3
  25495808.522    -6087219.962 3  -4743279.693 1
  24780499.213    18449723.933 3  14376410.357 1
  23484642.728   -11313657.824 4  -8815811.288 2
 91  7 25  4 14  0.0070000  0  4 23 11 17 21
  23130252.364    -7414430.898 4  -5777443.342 2
  25488979.851    -6123086.611 3  -4771227.703 1
  24790253.256    18500951.937 3  14416328.278 1
  23482489.005   -11324962.087 4  -8824619.804 2
 91  7 25  4 14 15.0070000  0  4 23 11 17 21
  23136342.036    -7382434.335 4  -5752510.957 2
  25482169.467    -6158887.562 3  -4799124.536 1
  24800015.414    18552236.125 3  14456289.968 1
  23480352.086   -11336193.701 4  -8833371.686 2
 91  7 25  4 14 30.0070000  0  4 23 11 17 21
  23142441.917    -7350370.160 4  -5727525.884 2
  25475369.571    -6194618.393 3  -4826966.721 1
  24809781.743    18603580.313 3  14496298.412 1
  23478230.454   -11347348.599 4  -8842063.795 2
 91  7 25  4 14 45.0070000  0  4 23 11 17 21
  23148557.991    -7318239.327 4  -5702488.862 2
  25468583.164    -6230279.616 3  -4854754.657 1
  24819567.563    18654983.570 3  14536352.875 1
  23476122.310   -11358427.691 4  -8850696.843 2
 91  7 25  4 15  0.0080000  0  4 23 11 17 21
  23154684.242    -7286039.247 4  -5677397.890 2
  25461809.655    -6265872.616 3  -4882489.443 1
  24829357.592    18706449.864 3  14576456.454 1
  23474026.769   -11369431.066 4  -8859270.891 2
 91  7 25  4 15 15.0080000  0  4 23 11 17 21
  23160822.496    -7253775.581 4  -5652257.367 2
  25455052.634    -6301393.441 3  -4910167.988 1
  24839161.107    18757971.129 3  14616602.858 1
  23471946.215   -11380358.556 4  -8867785.808 2
 91  7 25  4 15 30.0080000  0  4 23 11 17 21
  23166970.940    -7221470.812 4  -5627084.813 2
  25448299.801    -6336868.393 3  -4937810.771 1
  24848972.108    18809526.322 3  14656775.726 1
  23469877.334   -11391235.290 4  -8876261.156 2
 91  7 25  4 15 45.0080000  0  4 23 11 17 21
  23173126.575    -7189110.084 4  -5601868.664 2
  25441562.272    -6372282.286 3  -4965405.987 1
  24858795.412    18861130.188 3  14696986.523 1
  23467821.070   -11402046.307 4  -8884685.315 2
 91  7 25  4 16  0.0080000  0  4 23 11 17 21
  23179301.701    -7156682.386 4  -5576600.323 2
  25434837.936    -6407623.577 3  -4992944.634 1
  24868624.107    18912793.891 3  14737243.960 1
  23465776.481   -11412780.316 4  -8893049.460 2
 91  7 25  4 16 15.0080000  0  4 23 11 17 21
  23185483.126    -7124189.025 4  -5551280.807 2
  25428124.977    -6442892.902 3  -5020427.194 1
  24878469.293    18964516.144 3  14777547.004 1
  23463746.584   -11423438.583 4  -8901354.591 2
 91  7 25  4 16 30.0080000  0  4 23 11 17 21
  23191678.041    -7091629.976 4  -5525910.124 2
  25421425.210    -6478089.802 3  -5047853.336 1
  24888323.466    19016296.905 3  14817895.626 1
  23461734.382   -11434020.948 4  -8909600.581 2
 91  7 25  4 16 45.0080000  0  4 23 11 17 21
  23197887.631    -7059004.965 4  -5500488.044 2
  25414744.045    -6513213.443 3  -5075222.341 1
  24898191.442    19068136.746 3  14858290.290 1
  23459735.058   -11444527.002 4  -8917787.095 2
 91  7 25  4 17  0.0080000  0  4 23 11 17 21
  23204110.134    -7026314.174 4  -5475014.699 2
  25408073.350    -6548263.518 3  -5102534.053 1
  24908058.510    19120035.692 3  14898731.007 1
  23457750.445   -11454956.857 4  -8925914.241 2
 91  7 25  4 17 15.0080000  0  4 23 11 17 21
  23210342.514    -6993559.376 4  -5449491.472 2
  25401418.256    -6583240.995 3  -5129789.210 1
  24917949.259    19171992.097 3  14939216.486 1
  23455781.694   -11465311.943 4  -8933983.129 2
 91  7 25  4 17 30.0080000  0  4 23 11 17 21
  23216586.586    -6960743.294 4  -5423920.472 2
  25394772.166    -6618148.040 3  -5156989.459 1
  24927845.714    19224003.350 3  14979744.712 1
  23453825.560   -11475594.606 4  -8941995.582 2
 91  7 25  4 17 45.0080000  0  4 23 11 17 21
  23222842.367    -6927862.422 4  -5398299.031 2
  25388148.255    -6652980.770 3  -5184131.825 1
  24937755.657    19276072.719 3  15020318.203 1
  23451882.303   -11485801.439 4  -8949948.932 2
 91  7 25  4 18  0.0080000  0  4 23 11 17 21
  23229110.119    -6894916.767 4  -5372627.099 2
  25381529.737    -6687738.533 3  -5211215.755 1
  24947676.089    19328200.460 3  15060937.219 1
  23449953.443   -11495932.141 4  -8957842.983 2
 91  7 25  4 18 15.0080000  0  4 23 11 17 21
  23235392.878    -6861907.634 4  -5346905.692 2
  25374933.694    -6722421.944 3  -5238241.760 1
  24957604.303    19380385.519 3  15101600.908 1
  23448038.666   -11505987.722 4  -8965678.504 2
 91  7 25  4 18 30.0080000  0  4 23 11 17 21
  23241688.218    -6828834.195 4  -5321134.180 2
  25368346.952    -6757029.911 3  -5265208.980 1
  24967546.931    19432628.262 3  15142309.552 1
  23446141.269   -11515967.525 4  -8973454.959 2
 91  7 25  4 18 45.0080000  0  4 23 11 17 21
  23247995.251    -6795695.321 4  -5295311.670 2
  25361774.607    -6791560.782 3  -5292116.109 1
  24977496.434    19484930.415 3  15183064.471 1
  23444254.988   -11525870.155 4  -8981171.269 2
 91  7 25  4 19  0.0080000  0  4 23 11 17 21
  23254312.770    -6762492.778 4  -5269439.556 2
  25355220.549    -6826015.595 3  -5318963.986 1
  24987463.946    19537290.512 3  15223864.522 1
  23442387.570   -11535697.142 4  -8988828.657 2
 91  7 25  4 19 15.0080000  0  4 23 11 17 21
  23260641.388    -6729225.692 4  -5243517.153 3
  25348676.369    -6860392.928 3  -5345751.480 1
  24997434.442    19589709.140 3  15264710.178 1
  23440532.751   -11545447.473 4  -8996426.301 2
 91  7 25  4 19 30.0080000  0  4 23 11 17 21
  23266984.106    -6695893.692 4  -5217544.155 2
  25342145.101    -6894691.953 3  -5372477.939 1
  25007423.523    19642186.525 3  15305601.603 1
  23438693.237   -11555120.650 4  -9003963.829 2
 91  7 25  4 19 45.0080000  0  4 23 11 17 21
  23273339.109    -6662497.085 4  -5191520.817 3
  25335637.810    -6928912.447 3  -5399143.232 1
  25017422.498    19694722.598 3  15346538.770 2
  23436868.101   -11564716.956 4  -9011441.466 2
 91  7 25  4 20  0.0080000  0  4 23 11 17 21
  23279709.084    -6629035.971 4  -5165447.220 3
  25329143.101    -6963053.888 3  -5425746.920 1
  25027428.976    19747317.601 3  15387521.896 1
  23435052.545   -11574236.211 4  -9018859.049 2
 91  7 25  4 20 15.0080000  0  4 23 11 17 21
  23286085.376    -6595511.705 4  -5139324.411 2
  25322656.192    -6997117.026 3  -5452289.577 1
  25037452.224    19799970.133 3  15428549.835 1
  23433254.388   -11583679.493 4  -9026217.454 2
 91  7 25  4 20 30.0080000  0  4 23 11 17 21
  23292479.956    -6561913.838 4  -5113144.244 3
  25316194.760    -7031090.809 3  -5478762.609 1
  25047484.180    19852690.568 3  15469630.675 1
  23431473.331   -11593036.248 4  -9033508.416 2
 91  7 25  4 20 45.0080000  0  4 23 11 17 21
  23298888.915    -6528237.560 4  -5086902.991 2
  25309745.631    -7064970.228 3  -5505162.106 1
  25057528.438    19905483.956 3  15510768.375 1
  23429712.639   -11602301.574 4  -9040728.148 2
 91  7 25  4 21  0.0080000  0  4 23 11 17 21
  23305310.177    -6494500.256 4  -5060614.176 2
  25303312.975    -7098771.917 3  -5531501.010 1
  25067586.778    19958333.047 3  15551949.502 1
  23427964.860   -11611492.760 4  -9047890.101 2
 91  7 25  4 21 15.0080000  0  4 23 11 17 21
  23311741.925    -6460700.201 4  -5034276.468 2
  25296894.732    -7132493.250 3  -5557777.350 1
  25077648.713    20011239.821 3  15593175.538 1
  23426229.960   -11620607.560 4  -9054992.530 2
 91  7 25  4 21 30.0080000  0  4 23 11 17 21
  23318186.553    -6426828.637 4  -5007883.038 3
  25290496.261    -7166125.060 3  -5583983.927 1
  25087731.030    20064213.056 3  15634453.371 1
  23424510.956   -11629637.386 4  -9062028.756 2
 91  7 25  4 21 45.0080000  0  4 23 11 17 21
  23324641.685    -6392895.201 4  -4981441.401 3
  25284111.575    -7199676.653 3  -5610128.001 1
  25097819.647    20117242.798 3  15675775.278 1
  23422805.424   -11638591.720 4  -9069006.144 2
 91  7 25  4 22  0.0080000  0  4 23 11 17 21
  23331110.899    -6358903.523 4  -4954954.375 3
  25277742.176    -7233151.250 3  -5636212.033 1
  25107921.456    20170325.677 3  15717138.507 1
  23421116.697   -11647474.027 4  -9075927.419 2
 91  7 25  4 22 15.0080000  0  4 23 11 17 21
  23337593.620    -6324847.322 4  -4928417.078 3
  25271387.487    -7266541.895 3  -5662230.672 1
  25118036.143    20223468.016 3  15758548.098 1
  23419441.459   -11656277.884 4  -9082787.550 2
 91  7 25  4 22 30.0080000  0  4 23 11 17 21
  23344089.220    -6290729.284 4  -4901831.585 2
  25265048.975    -7299850.649 3  -5688185.517 1
  25128160.131    20276667.113 3  15800001.940 1
  23417780.913   -11665005.803 4  -9089588.519 2
 91  7 25  4 22 45.0080000  0  4 23 11 17 21
  23350587.227    -6256551.559 4  -4875199.599 2
  25258724.248    -7333079.028 3  -5714077.698 1
  25138298.812    20329921.174 3  15841498.595 1
  23416135.654   -11673659.694 4  -9096331.801 2
 91  7 25  4 23  0.0080000  0  4 23 11 17 21
  23357106.210    -6222314.507 4  -4848521.375 3
  25252418.420    -7366226.898 3  -5739907.167 1
  25148441.402    20383229.868 3  15883037.809 2
  23414501.476   -11682239.702 4  -9103017.510 2
 91  7 25  4 23 15.0080000  0  4 23 11 17 21
  23363629.101    -6188016.669 4  -4821795.782 3
  25246126.971    -7399292.239 3  -5765672.329 1
  25158595.963    20436594.710 3  15924620.792 1
  23412880.194   -11690744.350 4  -9109644.502 2
 91  7 25  4 23 30.0080000  0  4 23 11 17 21
  23370167.872    -6153658.433 4  -4795023.137 3
  25239848.121    -7432274.933 3  -5791373.106 1
  25168761.937    20490015.441 3  15966247.295 1
  23411278.107   -11699173.920 4  -9116212.989 2
 91  7 25  4 23 45.0080000  0  4 23 11 17 21
  23376719.242    -6119239.847 4  -4768203.459 3
  25233586.948    -7465174.403 3  -5817008.998 1
  25178940.788    20543491.831 3  16007917.273 1
  23409691.010   -11707528.305 4  -9122722.895 2
 91  7 25  4 24  0.0080000  0  4 23 11 17 21
  23383277.488    -6084761.280 4  -4741337.048 2
  25227344.377    -7497990.546 3  -5842579.975 1
  25189125.329    20597023.913 3  16049630.514 1
  23408112.899   -11715807.648 4  -9129174.314 2
 91  7 25  4 24 15.0080000  0  4 23 11 17 21
  23389853.742    -6050223.348 4  -4714424.373 2
  25221115.888    -7530723.150 3  -5868085.862 1
  25199321.875    20650611.106 3  16091386.782 1
  23406552.187   -11724012.164 4  -9135567.431 2
 91  7 25  4 24 30.0080000  0  4 23 11 17 21
  23396435.388    -6015627.303 4  -4687466.411 2
  25214903.279    -7563373.212 3  -5893527.421 1
  25209524.110    20704251.937 3  16133184.818 1
  23405005.853   -11732143.249 4  -9141903.326 2
 91  7 25  4 24 45.0080000  0  4 23 11 17 21
  23403028.412    -5980975.134 4  -4660464.717 2
  25208705.677    -7595942.200 3  -5918905.829 1
  25219743.742    20757944.573 3  16175023.213 1
  23403471.211   -11740202.711 4  -9148183.420 2
 91  7 25  4 25  0.0080000  0  4 23 11 17 21
  23409635.553    -5946265.984 4  -4633418.623 2
  25202521.250    -7628428.567 3  -5944219.824 1
  25229973.252    20811690.090 3  16216902.815 1
  23401948.261   -11748189.539 4  -9154406.899 2
 91  7 25  4 25 15.0080000  0  4 23 11 17 21
  23416247.772    -5911501.546 4  -4606329.455 2
  25196355.425    -7660833.601 3  -5969470.440 1
  25240208.171    20865486.746 3  16258822.292 1
  23400442.412   -11756105.326 4  -9160575.031 2
 91  7 25  4 25 30.0080000  0  4 23 11 17 21
  23422876.185    -5876679.098 4  -4579195.074 2
  25190206.090    -7693153.824 3  -5994655.018 1
  25250455.079    20919337.571 3  16300783.954 1
  23398951.849   -11763946.913 4  -9166685.348 2
 91  7 25  4 25 45.0080000  0  4 23 11 17 21
  23429513.288    -5841794.730 4  -4552012.452 2
  25184070.227    -7725384.985 3  -6019770.159 1
  25260716.068    20973246.228 3  16342790.683 1
  23397474.461   -11771710.460 4  -9172734.853 2
 91  7 25  4 26  0.0080000  0  4 23 11 17 21
  23436165.677    -5806851.197 4  -4524783.726 2
  25177955.357    -7757529.192 3  -6044817.540 1
  25270982.468    21027210.185 3  16384840.494 1
  23396014.471   -11779398.544 4  -9178725.578 2
 91  7 25  4 26 15.0080000  0  4 23 11 17 21
  23442825.570    -5771848.850 4  -4497509.171 2
  25171852.492    -7789586.235 3  -6069797.030 1
  25281265.637    21081229.206 3  16426933.214 1
  23394563.782   -11787011.297 4  -9184657.552 2
 91  7 25  4 26 30.0080000  0  4 23 11 17 21
  23449495.951    -5736797.060 4  -4470196.087 2
  25165769.399    -7821564.946 3  -6094715.464 1
  25291548.230    21135294.149 2  16469061.715 1
  23393127.176   -11794557.970 4  -9190538.067 2
 91  7 25  4 26 45.0080000  0  4 23 11 17 21
  23456176.819    -5701690.597 4  -4442840.411 2
  25159697.107    -7853459.433 3  -6119568.281 1
  25301846.389    21189410.223 2  16511230.059 1
  23391706.763   -11802033.099 4  -9196362.833 2
 91  7 25  4 27  0.0080000  0  4 23 11 17 21
  23462866.692    -5666525.428 4  -4415438.986 2
  25153651.182    -7885265.325 3  -6144352.059 1
  25312158.054    21243581.408 2  16553441.340 1
  23390296.541   -11809432.700 4  -9202128.735 2
 91  7 25  4 27 15.0080000  0  4 23 11 17 21
  23469570.053    -5631304.324 4  -4387993.981 2
  25147610.667    -7916984.887 3  -6169068.569 1
  25322476.909    21297804.805 2  16595693.300 1
  23388900.402   -11816759.528 4  -9207837.937 2
 91  7 25  4 27 30.0080000  0  4 23 11 17 21
  23476283.309    -5596027.241 4  -4360505.350 2
  25141593.536    -7948617.303 3  -6193717.165 1
  25332801.173    21352080.732 2  16637986.210 1
  23387520.456   -11824013.285 4  -9213490.194 2
 91  7 25  4 27 45.0080000  0  4 23 11 17 21
  23483007.349    -5560691.357 4  -4332970.894 2
  25135587.188    -7980159.267 3  -6218295.295 1
  25343147.006    21406412.191 3  16680322.417 1
  23386157.908   -11831190.934 4  -9219083.157 2
 91  7 25  4 28  0.0080000  0  4 23 11 17 21
  23489743.081    -5525298.317 4  -4305391.913 2
  25129605.131    -8011611.801 3  -6242803.729 1
  25353491.041    21460797.716 3  16722700.748 1
  23384805.830   -11838293.838 4  -9224617.867 2
 91  7 25  4 28 15.0080000  0  4 23 11 17 21
  23496488.114    -5489846.772 4  -4277767.335 2
  25123635.377    -8042973.043 3  -6267241.024 1
  25363853.364    21515238.503 3  16765122.137 1
  23383467.870   -11845320.616 4  -9230093.252 2
 91  7 25  4 28 30.0080000  0  4 23 11 17 21
  23503247.543    -5454338.374 4  -4250098.449 2
  25117687.191    -8074244.330 3  -6291608.224 1
  25374224.098    21569732.962 3  16807585.328 1
  23382142.473   -11852272.782 4  -9235510.511 2
 91  7 25  4 28 45.0080000  0  4 23 11 17 21
  23510013.865    -5418775.558 4  -4222387.176 2
  25111753.087    -8105427.304 3  -6315906.621 1
  25384601.411    21624278.501 3  16850088.311 1
  23380836.586   -11859152.620 4  -9240871.405 2
 91  7 25  4 29  0.0080000  0  4 23 11 17 21
  23516792.157    -5383156.591 4  -4194632.131 2
  25105835.492    -8136519.706 3  -6340134.449 1
  25394991.009    21678877.087 3  16892632.625 1
  23379539.983   -11865958.188 4  -9246174.427 2
 91  7 25  4 29 15.0080000  0  4 23 11 17 21
  23523580.362    -5347479.223 4  -4166831.583 2
  25099935.573    -8167518.748 3  -6364289.523 1
  25405392.909    21733531.084 2  16935220.113 1
  23378259.870   -11872687.015 4  -9251417.653 2
 91  7 25  4 29 30.0080000  0  4 23 11 17 21
  23530377.850    -5311742.630 4  -4138984.886 2
  25094056.944    -8198423.039 3  -6388370.752 1
  25415801.109    21788241.456 2  16977851.534 1
  23376994.135   -11879338.237 4  -9256600.408 2
 91  7 25  4 29 45.0080000  0  4 23 11 17 21
  23537192.736    -5275948.702 4  -4111093.513 2
  25088194.508    -8229233.978 3  -6412379.249 1
  25426224.892    21843006.306 2  17020525.435 1
  23375742.815   -11885913.651 4  -9261724.089 2
 91  7 25  4 30  0.0080000  0  4 23 11 17 21
  23544013.921    -5240095.475 4  -4083155.926 2
  25082346.452    -8259949.078 3  -6436313.082 1
  25436658.569    21897827.672 2  17063243.335 1
  23374506.467   -11892411.131 4  -9266787.046 2
 91  7 25  4 30 15.0080000  0  4 23 11 17 21
  23550850.079    -5204186.539 4  -4055174.939 2
  25076518.794    -8290571.308 3  -6460174.512 1
  25447091.653    21952701.919 2  17106002.498 1
  23373285.109   -11898834.141 4  -9271791.976 2
 91  7 25  4 30 30.0080000  0  4 23 11 17 21
  23557690.756    -5168221.607 4  -4027150.320 2
  25070711.816    -8321099.586 3  -6483962.757 1
  25457551.698    22007629.698 2  17148803.332 1
  23372075.146   -11905182.042 4  -9276738.371 2
 91  7 25  4 30 45.0080000  0  4 23 11 17 21
  23564546.999    -5132198.174 4  -3999080.117 2
  25064920.123    -8351531.170 3  -6507675.658 2
  25468021.060    22062613.399 2  17191647.750 1
  23370884.675   -11911452.456 4  -9281624.385 2
 91  7 25  4 31  0.0080000  0  4 23 11 17 21
  23571412.246    -5096118.350 4  -3970965.967 2
  25059149.406    -8381867.673 3  -6531314.487 1
  25478490.406    22117650.969 3  17234534.178 1
  23369704.394   -11917647.350 4  -9286451.566 2
 91  7 25  4 31 15.0080000  0  4 23 11 17 21
  23578287.684    -5059983.166 4  -3942808.685 2
  25053397.291    -8412109.455 3  -6554879.495 1
  25488970.849    22172741.482 3  17277461.824 1
  23368539.104   -11923767.537 4  -9291220.517 2
 91  7 25  4 31 30.0080000  0  4 23 11 17 21
  23585176.926    -5023789.941 4  -3914606.178 2
  25047649.974    -8442253.429 3  -6578368.298 1
  25499471.082    22227887.651 3  17320432.835 1
  23367389.693   -11929810.276 4  -9295929.125 2
 91  7 25  4 31 45.0080000  0  4 23 11 17 21
  23592075.154    -4987539.912 4  -3886359.404 2
  25041939.530    -8472300.271 3  -6601781.394 1
  25509973.408    22283088.338 2  17363446.329 1
  23366252.287   -11935776.708 4  -9300578.274 2
 91  7 25  4 32  0.0080000  0  4 23 11 17 21
  23598984.166    -4951235.317 4  -3858070.113 2
  25036238.666    -8502251.668 3  -6625120.134 1
  25520488.630    22338341.465 2  17406500.728 1
  23365132.263   -11941668.861 4  -9305169.558 2
 91  7 25  4 32 15.0080000  0  4 23 11 17 21
  23605902.165    -4914875.457 4  -3829737.756 2
  25030559.109    -8532106.337 3  -6648383.493 1
  25531011.356    22393647.470 2  17449596.271 1
  23364026.617   -11947485.744 4  -9309702.167 2
 91  7 25  4 32 30.0080000  0  4 23 11 17 21
  23612830.373    -4878459.053 4  -3801361.348 2
  25024896.321    -8561862.466 3  -6671570.086 1
  25541543.051    22449007.879 2  17492734.224 1
  23362935.071   -11953226.005 4  -9314175.089 2
 91  7 25  4 32 45.0080000  0  4 23 11 17 21
  23619774.164    -4841987.325 4  -3772941.810 2
  25019251.525    -8591520.583 3  -6694680.281 1
  25552083.453    22504421.659 2  17535913.763 1
  23361855.531   -11958890.620 4  -9318589.062 2
 91  7 25  4 33  0.0080000  0  4 23 11 17 21
  23626722.456    -4805460.280 4  -3744479.178 2
  25013628.018    -8621080.424 3  -6717713.930 1
  25562644.552    22559888.545 2  17579134.668 1
  23360791.259   -11964479.599 4  -9322944.100 2
 91  7 25  4 33 15.0080000  0  4 23 11 17 21
  23633684.238    -4768880.487 4  -3715975.449 2
  25008019.204    -8650543.826 3  -6740672.422 1
  25573204.447    22615406.060 2  17622395.062 1
  23359741.681   -11969995.246 4  -9327241.996 2
 91  7 25  4 33 30.0080000  0  4 23 11 17 21
  23640654.710    -4732245.193 4  -3687428.464 2
  25002432.883    -8679907.540 3  -6763553.207 1
  25583783.519    22670977.091 2  17665697.124 1
  23358707.407   -11975434.766 4  -9331480.551 2
 91  7 25  4 33 45.0080000  0  4 23 11 17 21
  23647636.874    -4695555.366 4  -3658838.990 2
  24996864.536    -8709172.025 3  -6786356.694 2
  25594369.484    22726601.039 2  17709040.458 1
  23357686.307   -11980799.055 4  -9335660.507 2
 91  7 25  4 34  0.0080000  0  4 23 11 17 21
  23654629.246    -4658812.823 4  -3630208.432 2
  24991314.180    -8738338.565 3  -6809083.876 1
  25604963.860    22782275.738 2  17752423.316 1
  23356679.307   -11986089.743 4  -9339783.108 2
 91  7 25  4 34 15.0080000  0  4 23 11 17 21
  23661629.087    -4622018.338 4  -3601537.403 2
  24985782.409    -8767407.235 3  -6831734.799 1
  25615567.817    22838000.711 2  17795845.375 1
  23355683.389   -11991307.478 4  -9343848.858 2
 91  7 25  4 34 30.0080000  0  4 23 11 17 21
  23668643.045    -4585170.144 4  -3572824.523 2
  24980268.314    -8796375.706 3  -6854307.622 2
  25626184.669    22893777.599 3  17839307.877 1
  23354709.370   -11996450.300 4  -9347856.246 2
 91  7 25  4 34 45.0080000  0  5 23 11 12 17 21
  23675665.082    -4548266.316 4  -3544068.288 2
  24974777.917    -8825241.738 3  -6876800.620 1
  27087823.387           0.711 2         0.147 1
  25636807.506    22949608.403 2  17882812.381 1
  23353743.448   -12001516.231 4  -9351803.712 2
 91  7 25  4 35  0.0080000  0  5 23 11 12 17 21
  23682698.200    -4511309.414 4  -3515270.699 2
  24969305.512    -8854007.270 3  -6899215.306 1
  27083705.747      -21600.371 2    -16831.658 1
  25647435.753    23005490.601 2  17926356.900 1
  23352793.999   -12006507.777 4  -9355693.217 2
 91  7 25  4 35 15.0080000  0  5 23 11 12 17 21
  23689738.229    -4474299.587 4  -3486431.866 2
  24963846.281    -8882672.043 3  -6921551.488 1
  27079618.068      -43111.534 2    -33593.786 1
  25658085.883    23061424.292 2  17969941.556 1
  23351859.836   -12011424.935 4  -9359524.759 2
 91  7 25  4 35 30.0080000  0  5 23 11 12 17 21
  23696794.155    -4437236.962 4  -3457551.907 2
  24958411.044    -8911235.533 3  -6943808.754 1
  27075541.785      -64532.272 2    -50285.257 1
  25668738.107    23117409.266 2  18013566.179 1
  23350940.978   -12016267.552 4  -9363298.207 2
 91  7 25  4 35 45.0080000  0  5 23 11 12 17 21
  23703854.862    -4400120.310 4  -3428629.837 2
  24952994.706    -8939695.897 3  -6965985.669 1
  27071483.510      -85860.722 2    -66904.846 1
  25679403.226    23173446.902 2  18057231.862 1
  23350031.106   -12021034.257 4  -9367012.519 2
 91  7 25  4 36  0.0080000  0  5 23 11 12 17 21
  23710928.761    -4362950.346 4  -3399666.217 2
  24947597.231    -8968053.420 3  -6988082.437 2
  27067446.489     -107097.184 2    -83452.639
  25690072.830    23229536.664 2  18100938.152 1
  23349136.224   -12025725.741 4  -9370668.203 2
 91  7 25  4 36 15.0080000  0  5 23 11 12 17 21
  23718011.369    -4325725.075 4  -3370659.519 2
  24942224.362    -8996305.516 3  -7010097.069 1
  27063422.085     -128238.964 2    -99926.643 1
  25700754.737    23285680.370 2  18144686.447 1
  23348259.630   -12030339.782 4  -9374263.546 2
 91  7 25  4 36 30.0080000  0  5 23 11 12 17 21
  23725106.557    -4288445.910 4  -3341610.827 2
  24936869.169    -9024453.211 3  -7032030.344 2
  27059412.950     -149287.137 2   -116327.757 1
  25711451.039    23341876.456 2  18188475.622 1
  23347396.839   -12034877.852 4  -9377799.692 2
 91  7 25  4 36 45.0080000  0  5 23 11 12 17 21
  23732209.232    -4251113.819 4  -3312520.887 2
  24931528.966    -9052496.689 3  -7053882.389 1
  27055425.418     -170241.975 2   -132656.201 1
  25722153.624    23398124.099 2  18232304.913 1
  23346546.018   -12039340.617 4  -9381277.166 2
 91  7 25  4 37  0.0080000  0  5 23 11 12 17 21
  23739326.303    -4213729.680 4  -3283390.389 2
  24926214.834    -9080436.476 3  -7075653.664 1
  27051456.174     -191103.875 2   -148912.137 1
  25732875.108    23454422.320 2  18276173.637 1
  23345709.001   -12043728.937 4  -9384696.626 2
 91  7 25  4 37 15.0080000  0  5 23 11 12 17 21
  23746451.472    -4176291.691 4  -3254217.927 2
  24920919.304    -9108270.121 3  -7097342.199 1
  27047503.996     -211870.387 2   -165093.767 1
  25743590.885    23510773.290 2  18320083.465 1
  23344890.272   -12048040.841 4  -9388056.535 2
 91  7 25  4 37 30.0080000  0  5 23 11 12 17 21
  23753583.236    -4138800.479 4  -3225004.005 2
  24915642.061    -9135997.662 3  -7118948.086 2
  27043565.028     -232541.502 2   -181201.117 1
  25754329.156    23567176.553 2  18364034.027 1
  23344085.032   -12052276.714 4  -9391357.208 2
 91  7 25  4 37 45.0080000  0  5 23 11 12 17 21
  23760728.193    -4101257.750 4  -3195749.927 2
  24910386.701    -9163620.467 3  -7140472.346 1
  27039659.931     -253118.465 2   -197235.032 1
  25765071.004    23623630.203 2  18408023.856 1
  23343291.483   -12056438.267 4  -9394599.969 2
 91  7 25  4 38  0.0080000  0  5 23 11 12 17 21
  23767880.636    -4063664.322 4  -3166456.341 2
  24905149.629    -9191138.657 3  -7161915.090 1
  27035758.429     -273601.540 2   -213195.792 1
  25775817.965    23680133.544 2  18452052.400 1
  23342514.721   -12060526.092 4  -9397785.276 2
 91  7 25  4 38 15.0080000  0  5 23 11 12 17 21
  23775045.974    -4026018.833 4  -3137122.196 2
  24899931.735    -9218550.342 3  -7183274.856 1
  27031876.715     -293988.750 2   -229081.896 1
  25786583.824    23736688.045 2  18496120.818 1
  23341752.635   -12064538.673 4  -9400911.955 2
 91  7 25  4 38 30.0080000  0  5 23 11 12 17 21
  23782217.909    -3988319.178 4  -3107745.851 2
  24894736.037    -9245853.022 3  -7204549.678 1
  27028017.198     -314277.544 2   -244891.273 1
  25797349.370    23793295.637 2  18540230.607 1
  23341003.463   -12068473.846 4  -9403978.311 2
 91  7 25  4 38 45.0080000  0  5 23 11 12 17 21
  23789404.240    -3950565.960 4  -3078327.746 2
  24889562.222    -9273046.859 3  -7225739.678 2
  27024177.453     -334467.871 2   -260623.931 1
  25808134.093    23849955.844 2  18584381.392 1
  23340271.060   -12072332.096 4  -9406984.732 2
 91  7 25  4 39  0.0080000  0  5 23 11 12 17 21
  23796598.058    -3912760.606 4  -3048869.032 2
  24884406.677    -9300132.699 3  -7246845.525 1
  27020348.194     -354560.697 2   -276280.593 1
  25818923.039    23906667.058 2  18628571.919 1
  23339549.458   -12076114.697 4  -9409932.205 2
 91  7 25  4 39 15.0080000  0  5 23 11 12 17 21
  23803801.769    -3874902.840 4  -3019369.484 2
  24879271.846    -9327109.602 3  -7267866.481 2
  27016541.133     -374555.132 2   -291860.660 1
  25829727.551    23963429.939 2  18672802.713 1
  23338843.457   -12079821.261 4  -9412820.436 2
 91  7 25  4 39 30.0080000  0  5 23 11 12 17 21
  23811013.874    -3836993.846 4  -2989830.001 2
  24874159.473    -9353978.313 3  -7288803.125 2
  27012744.558     -394451.807 2   -307364.492 1
  25840538.362    24020243.153 2  18717072.721 1
  23338151.242   -12083452.868 4  -9415650.246 2
 91  7 25  4 39 45.0080000  0  5 23 11 12 17 21
  23818238.579    -3799035.035 4  -2960251.707 2
  24869065.702    -9380739.537 3  -7309656.026 2
  27008981.873     -414251.473 2   -322792.639 1
  25851356.974    24077105.730 2  18761381.184 1
  23337474.296   -12087010.767 4  -9418422.625 2
 91  7 25  4 40  0.0080000  0  5 23 11 12 17 21
  23825471.677    -3761024.478 4  -2930633.088 2
  24863992.924    -9407390.791 3  -7330423.222 2
  27005245.554     -433951.640 2   -338143.459 1
  25862193.873    24134019.273 2  18805729.360 1
  23336812.060   -12090492.787 4  -9421135.877 2
 91  7 25  4 40 15.0080000  0  5 23 11 12 17 21
  23832711.650    -3722962.599 4  -2900974.477 2
  24858946.513    -9433932.204 3  -7351104.823 1
  27001511.347     -453552.292 2   -353416.579 1
  25873031.365    24190983.502 2  18850117.043 1
  23336164.814   -12093899.289 4  -9423790.288 2
 91  7 25  4 40 30.0080000  0  5 23 11 12 17 21
  23839968.427    -3684849.523 4  -2871275.970 2
  24853917.482    -9460363.215 3  -7371700.418 1
  26997802.914     -473053.004 2   -368611.886 1
  25883882.068    24247998.350 2  18894544.178 1
  23335529.556   -12097230.294 4  -9426385.865 2
 91  7 25  4 40 45.0080000  0  5 23 11 12 17 21
  23847229.707    -3646686.355 4  -2841538.455 2
  24848907.054    -9486684.401 3  -7392210.418 2
  26994108.564     -492454.323 2   -383729.590 1
  25894736.941    24305062.585 2  18939009.812 1
  23334911.086   -12100486.783 4  -9428923.377 2
 91  7 25  4 41  0.0080000  0  5 23 11 12 17 21
  23854504.476    -3608473.673 4  -2811762.338 2
  24843918.804    -9512895.855 3  -7412634.925 1
  26990442.098     -511756.274 2   -398770.180 1
  25905608.322    24362175.674 2  18983513.489 1
  23334304.603   -12103669.261 4  -9431403.222 2
 91  7 25  4 41 15.0080000  0  5 23 11 12 17 21
  23861782.229    -3570211.575 4  -2781947.701 2
  24838952.751    -9538997.108 3  -7432973.550 2
  26986783.730     -530958.357 2   -413732.703 1
  25916487.782    24419337.700 2  19028055.295 1
  23333714.001   -12106777.655 4  -9433825.336 2
 91  7 25  4 41 30.0080000  0  5 23 11 12 17 21
  23869072.581    -3531897.300 4  -2752092.429 2
  24834006.470    -9564985.059 3  -7453223.889 2
  26983143.667     -550057.529 2   -428615.082 1
  25927372.059    24476551.282 2  19072637.285 1
  23333133.310   -12109809.280 4  -9436187.638 2
 91  7 25  4 41 45.0080000  0  5 23 11 12 17 21
  23876372.827    -3493529.837 4  -2722195.706 2
  24829079.383    -9590858.055 3  -7473384.634 2
  26979520.373     -569052.118 2   -443416.208 1
  25938274.606    24533817.559 2  19117260.315 1
  23332576.299   -12112762.848 4  -9438489.108 2
 91  7 25  4 42  0.0080000  0  5 23 11 12 17 21
  23883686.859    -3455109.819 4  -2692258.032 2
  24824181.072    -9616616.195 3  -7493455.876 2
  26975936.343     -587942.150 2   -458135.586 1
  25949183.453    24591136.128 2  19161924.125 1
  23332028.275   -12115638.857 4  -9440730.146 2
 91  7 25  4 42 15.0080000  0  5 23 11 12 17 21
  23891006.894    -3416639.985 4  -2662281.542 2
  24819298.659    -9642261.707 3  -7513439.365 2
  26972365.522     -606729.799 2   -472775.358 1
  25960098.005    24648504.140 2  19206626.443 1
  23331492.536   -12118439.995 4  -9442912.830 2
 91  7 25  4 42 30.0080000  0  5 23 11 12 17 21
  23898336.823    -3378120.753 4  -2632266.562 2
  24814443.816    -9667794.410 3  -7533334.952 2
  26968800.984     -625414.927 2   -487335.090 1
  25971023.936    24705921.398 2  19251367.134 1
  23330976.306   -12121166.465 4  -9445037.352 2
 91  7 25  4 42 45.0080000  0  5 23 11 12 17 21
  23905675.146    -3339555.054 4  -2602215.373 2
  24809606.075    -9693216.818 3  -7553144.603 2
  26965268.240     -643999.977 2   -501816.793 1
  25981949.569    24763384.799 2  19296143.774 1
  23330469.045   -12123821.105 4  -9447105.886 2
 91  7 25  4 43  0.0080000  0  5 23 11 12 17 21
  23913024.253    -3300940.876 4  -2572126.399 2
  24804786.010    -9718526.284 3  -7572866.229 2
  26961758.268     -662482.250 2   -516218.660 1
  25992903.089    24820896.412 2  19340958.005 1
  23329979.497   -12126401.664 4  -9449116.701 2
 91  7 25  4 43 15.0090000  0  5 23 11 12 17 21
  23920381.460    -3262274.747 4  -2541996.949 2
  24799995.911    -9743723.125 4  -7592500.100 2
  26958254.896     -680861.727 2   -530540.257 1
  26003855.407    24878461.017 2  19385813.520 1
  23329505.517   -12128907.279 4  -9451069.120 2
 91  7 25  4 43 30.0090000  0  5 23 11 12 17 21
  23927745.260    -3223561.112 4  -2511830.478 2
  24795223.521    -9768802.918 4  -7612042.780 1
  26954781.796     -699134.866 2   -544778.962 1
  26014821.508    24936071.586 2  19430704.870 1
  23329039.038   -12131337.054 4  -9452962.442 3
 91  7 25  4 43 45.0090000  0  5 23 11 12 17 21
  23935126.457    -3184798.132 4  -2481625.561 2
  24790473.013    -9793767.399 3  -7631495.580 2
  26951319.184     -717302.896 2   -558935.862 1
  26025787.015    24993731.248 2  19475634.402 1
  23328591.161   -12133691.572 4  -9454797.122 2
 91  7 25  4 44  0.0090000  0  5 23 11 12 17 21
  23942511.843    -3145986.426 4  -2451382.665 2
  24785742.591    -9818616.614 4  -7650858.583 2
  26947887.774     -735365.757 2   -573010.760 1
  26036771.718    25051439.488 2  19520601.824 1
  23328157.052   -12135971.385 4  -9456573.591 2
 91  7 25  4 44 15.0090000  0  5 23 11 12 17 21
  23949903.232    -3107125.702 4  -2421101.580 2
  24781038.536    -9843349.856 3  -7670131.214 1
  26944469.224     -753322.791 2   -587003.160 1
  26047757.014    25109196.765 2  19565607.479 1
  23327738.247   -12138175.996 4  -9458291.458 2
 91  7 25  4 44 30.0090000  0  5 23 11 12 17 21
  23957309.000    -3068217.076 4  -2390783.168 2
  24776347.690    -9867967.725 3  -7689313.924 2
  26941078.280     -771174.553 2   -600913.578 1
  26058758.800    25167001.823 2  19610650.323 1
  23327336.229   -12140306.461 4  -9459951.546 2
 91  7 25  4 44 45.0090000  0  5 23 11 12 17 21
  23964721.660    -3029259.713 4  -2360426.762 2
  24771688.325    -9892468.806 3  -7708405.648 2
  26937693.322     -788919.603 2   -614740.872 1
  26069770.167    25224855.410 2  19655731.027 1
  23326942.901   -12142361.931 4  -9461553.198 2
 91  7 25  4 45  0.0090000  0  5 23 11 12 17 21
  23972146.623    -2990252.358 4  -2330031.427 2
  24767050.232    -9916851.425 4  -7727405.037 2
  26934332.654     -806556.247 2   -628483.605 1
  26080791.445    25282758.754 2  19700850.493 1
  23326564.248   -12144341.071 4  -9463095.373 2
 91  7 25  4 45 15.0090000  0  5 23 11 12 17 21
  23979576.088    -2951195.183 4  -2299597.257 2
  24762429.833    -9941115.160 4  -7746311.816 2
  26930995.055     -824084.108 2   -642141.512 1
  26091815.114    25340711.978 2  19746008.873 1
  23326204.512   -12146243.924 4  -9464578.100 2
 91  7 25  4 45 30.0090000  0  5 23 11 12 17 21
  23987016.931    -2912090.028 4  -2269125.710 2
  24757836.709    -9965261.476 4  -7765127.088 2
  26927689.251     -841504.715 2   -655715.969 1
  26102854.366    25398713.393 2  19791204.753 1
  23325856.153   -12148072.244 4  -9466002.750 2
 91  7 25  4 45 45.0090000  0  5 23 11 12 17 21
  23994471.280    -2872937.159 4  -2238616.983 2
  24753267.265    -9989289.997 4  -7783850.572 2
  26924380.132     -858817.646 2   -669206.562 1
  26113903.826    25456762.517 2  19836437.783 1
  23325522.470   -12149826.010 4  -9467369.306 2
 91  7 25  4 46  0.0090000  0  5 23 11 12 17 21
  24001928.910    -2833736.641 4  -2208071.124 2
  24748713.124   -10013200.312 4  -7802481.953 2
  26921118.703     -876022.381 2   -682612.718 1
  26124961.960    25514859.400 2  19881708.043 1
  23325201.700   -12151505.142 4  -9468677.711 2
 91  7 25  4 46 15.0090000  0  5 23 11 12 17 21
  24009397.341    -2794488.382 4  -2177488.059 2
  24744188.056   -10036991.888 4  -7821020.812 1
  26917865.651     -893118.338 2   -695934.255 1
  26136018.906    25573004.249 2  19927015.706 1
  23324897.107   -12153109.488 4  -9469927.830 2
 91  7 25  4 46 30.0090000  0  5 23 11 12 17 21
  24016875.964    -2755193.465 4  -2146868.650 2
  24739683.369   -10060665.295 4  -7839467.579 2
  26914628.182     -910106.248 2   -709171.531 1
  26147101.644    25631195.804 2  19972359.758 1
  23324604.816   -12154640.081 4  -9471120.484 2
 91  7 25  4 46 45.0090000  0  5 23 11 12 17 21
  24024360.589    -2715851.581 4  -2116212.636 2
  24735200.269   -10084219.706 3  -7857821.630 1
  26911417.412     -926985.294 2   -722324.053 1
  26158180.177    25689434.305 2  20017740.319 1
  23324326.014   -12156096.533 4  -9472255.372 3
 91  7 25  4 47  0.0090000  0  5 23 11 12 17 21
  24031857.185    -2676463.799 4  -2085520.853 2
  24730741.459   -10107655.722 4  -7876083.431 1
  26908236.307     -943755.824 2   -735392.069 1
  26169269.197    25747718.753 2  20063156.751 1
  23324063.981   -12157479.708 4  -9473333.157 2
 91  7 25  4 47 15.0090000  0  5 23 11 12 17 21
  24039359.191    -2637026.880 4  -2054790.788 2
  24726300.344   -10130969.661 3  -7894250.099 2
  26905054.923     -960414.175 2   -748372.388 1
  26180369.908    25806052.266 2  20108611.409 1
  23323817.863   -12158786.275 4  -9474351.245 2
 91  7 25  4 47 30.0090000  0  5 23 11 12 17 21
  24046874.389    -2597542.563 4  -2024023.801 2
  24721886.189   -10154162.699 3  -7912322.560 2
  26901911.598     -976961.452 2   -761266.324 1
  26191479.014    25864433.455 2  20154103.194 1
  23323581.326   -12160017.900 4  -9475310.936 2
 91  7 25  4 47 45.0090000  0  5 23 11 12 17 21
  24054399.184    -2558010.785 4  -1993219.815 2
  24717500.234   -10177233.933 4  -7930300.105 2
  26898774.258     -993396.961 2   -774073.410 1
  26202602.515    25922862.654 2  20199632.433 1
  23323361.575   -12161174.259 4  -9476211.979 2
 91  7 25  4 48  0.0090000  0  5 23 11 12 17 21
  24061928.482    -2518431.868 4  -1962379.087 2
  24713132.549   -10200183.395 4  -7948182.769 2
  26895671.417    -1009720.645 2   -786793.393 1
  26213728.408    25981339.236 2  20245198.569 1
  23323155.610   -12162255.618 4  -9477054.595 2
 91  7 25  4 48 15.0090000  0  5 23 11 12 17 21
  24069471.845    -2478804.899 4  -1931500.929 2
  24708787.654   -10223009.765 4  -7965969.507 2
  26892588.644    -1025931.243 2   -799425.099 1
  26224866.306    26039863.878 2  20290802.166 1
  23322964.042   -12163261.120 4  -9477838.078 2
 91  7 25  4 48 30.0090000  0  5 23 11 12 17 21
  24077018.820    -2439130.614 4  -1900585.900 2
  24704466.457   -10245713.056 4  -7983660.361 2
  26889528.661    -1042028.777 2   -811968.570 1
  26236007.781    26098436.387 2  20336443.114 1
  23322788.370   -12164191.166 4  -9478562.775 2
 91  7 25  4 48 45.0090000  0  5 23 11 12 17 21
  24084580.191    -2399410.425 4  -1869635.092 2
  24700170.719   -10268294.313 4  -8001256.117 2
  26886481.574    -1058014.169 2   -824424.683 1
  26247157.371    26157055.074 2  20382119.953 1
  23322627.985   -12165047.128 4  -9479229.738 2
 91  7 25  4 49  0.0090000  0  5 23 11 12 17 21
  24092146.047    -2359642.428 4  -1838647.039 2
  24695897.789   -10290751.206 4  -8018754.955 1
  26883452.478    -1073885.160 2   -836791.582 1
  26258328.529    26215721.976 2  20427834.460 1
  23322474.493   -12165827.107 4  -9479837.495 3
 91  7 25  4 49 15.0090000  0  5 23 11 12 17 21
  24099720.610    -2319828.234 4  -1807622.984 2
  24691650.022   -10313084.922 4  -8036157.815 1
  26880475.541    -1089642.876 2   -849070.354 1
  26269498.204    26274435.246 2  20473584.980 1
  23322342.273   -12166532.549 4  -9480387.187 2
 91  7 25  4 49 30.0090000  0  5 23 11 12 17 21
  24107308.349    -2279971.036 4  -1776565.423 2
  24687419.950   -10335297.921 3  -8053466.636 1
  26877490.507    -1105289.815 2   -861262.640 1
  26280678.960    26333191.806 2  20519369.298 1
  23322223.856   -12167166.442 4  -9480881.111 2
 91  7 25  4 49 45.0090000  0  5 23 11 12 17 21
  24114900.607    -2240066.806 4  -1745471.201 2
  24683216.873   -10357385.835 4  -8070677.949 1
  26874535.748    -1120821.479 2   -873365.248 1
  26291873.519    26391995.862 2  20565190.654 1
  23322116.833   -12167724.648 4  -9481316.058 2
 91  7 25  4 50  0.0090000  0  5 23 11 12 17 21
  24122505.430    -2200116.044 4  -1714340.736 2
  24679038.349   -10379348.837 4  -8087791.929 2
  26871599.575    -1136238.081 2   -885378.093 1
  26303064.169    26450846.667 2  20611048.343 1
  23322026.598   -12168207.821 4  -9481692.546 2
 91  7 25  4 50 15.0090000  0  5 23 11 12 17 21
  24130112.678    -2160119.312 4  -1683174.445 2
  24674880.538   -10401186.867 4  -8104808.567 2
  26868689.489    -1151539.637 2   -897301.308 1
  26314286.003    26509743.705 2  20656942.150 1
  23321946.851   -12168616.271 4  -9482010.803 2
 91  7 25  4 50 30.0090000  0  5 23 11 12 17 21
  24137733.990    -2120079.007 4  -1651974.224 2
  24670750.891   -10422901.829 4  -8121729.275 2
  26865794.097    -1166728.002 2   -909136.352 1
  26325487.751    26568684.881 2  20702870.283 1
  23321880.907   -12168952.238 4  -9482272.580 2
 91  7 25  4 50 45.0090000  0  5 23 11 12 17 21
  24145359.823    -2079995.526 4  -1620740.341 2
  24666643.145   -10444493.387 4  -8138553.856 2
  26862932.279    -1181802.957 3   -920883.058 1
  26336720.963    26627669.530 2  20748832.299 1
  23321830.528   -12169215.968 4  -9482478.072 2
 91  7 25  4 51  0.0090000  0  5 23 11 12 17 21
  24152999.127    -2039868.445 4  -1589472.482 2
  24662555.763   -10465960.733 4  -8155281.624 2
  26860079.447    -1196763.642 2   -932540.764 1
  26347943.093    26686698.116 2  20794828.538 1
  23321796.360   -12169407.012 4  -9482626.920 2
 91  7 25  4 51 15.0090000  0  5 23 11 12 17 21
  24160639.931    -1999695.337 4  -1558168.767 2
  24658497.470   -10487301.178 4  -8171910.505 1
  26857256.002    -1211607.257 2   -944107.139 1
  26359190.718    26745773.051 2  20840860.928 1
  23321774.164   -12169523.029 4  -9482717.308 2
 91  7 25  4 51 30.0090000  0  5 23 11 12 17 21
  24168295.133    -1959476.588 4  -1526829.475 2
  24654455.668   -10508514.405 4  -8188440.300 2
  26854456.254    -1226333.599 2   -955582.203 1
  26370439.530    26804894.347 2  20886929.445 1
  23321763.379   -12169564.073 4  -9482749.283 2
 91  7 25  4 51 45.0090000  0  5 23 11 12 17 21
  24175958.431    -1919212.920 4  -1495455.197 2
  24650443.846   -10529600.771 4  -8204871.176 2
  26851674.777    -1240942.764 2   -966965.920 1
  26381709.317    26864061.059 2  20933033.329 1
  23321773.867   -12169530.654 4  -9482723.224 2
 91  7 25  4 52  0.0090000  0  5 23 11 12 17 21
  24183628.028    -1878905.844 4  -1464047.083 2
  24646459.909   -10550561.219 4  -8221203.967 2
  26848913.384    -1255435.887 2   -978259.204 1
  26392966.836    26923271.540 2  20979171.334 1
  23321791.265   -12169424.299 4  -9482640.337 2
 91  7 25  4 52 15.0090000  0  5 23 11 12 17 21
  24191308.410    -1838553.697 4  -1432603.849 2
  24642494.556   -10571393.563 4  -8237436.921 2
  26846178.673    -1269810.862 2   -989460.451 1
  26404244.720    26982527.524 2  21025344.800 1
  23321828.730   -12169243.310 4  -9482499.303 2
 91  7 25  4 52 30.0090000  0  5 23 11 12 17 21
  24198991.479    -1798158.230 4  -1401126.868 2
  24638552.884   -10592099.082 4  -8253571.079 2
  26843467.660    -1284069.069 2  -1000570.788 1
  26415529.810    27041827.233 2  21071552.312 1
  23321875.794   -12168989.303 4  -9482301.359 2
 91  7 25  4 52 45.0090000  0  5 23 11 12 17 21
  24206691.649    -1757718.729 4  -1369615.570 2
  24634637.002   -10612676.480 4  -8269605.386 2
  26840777.918    -1298209.007 2  -1011588.872 1
  26426826.889    27101171.465 2  21117794.573 1
  23321933.659   -12168661.275 4  -9482045.731 2
 91  7 25  4 53  0.0090000  0  5 23 11 12 17 21
  24214393.320    -1717233.012 4  -1338068.244 2
  24630742.393   -10633123.229 4  -8285537.884 2
  26838110.059    -1312228.107 2  -1022512.757 1
  26438121.578    27160562.613 2  21164073.367 1
  23322013.999   -12168257.049 4  -9481730.747 2
 91  7 25  4 53 15.0090000  0  5 23 11 12 17 21
  24222107.276    -1676702.395 4  -1306485.947 2
  24626881.061   -10653440.246 4  -8301369.325 2
  26835470.696    -1326127.285 2  -1033343.262 1
  26449436.631    27219998.950 2  21210387.328 1
  23322105.735   -12167777.982 4  -9481357.436 3
 91  7 25  4 53 30.0090000  0  5 23 11 12 17 21
  24229824.234    -1636127.671 4  -1274869.285 2
  24623040.129   -10673627.935 4  -8317099.974 2
  26832851.105    -1339907.019 2  -1044080.683 1
  26460755.592    27279479.791 2  21256736.005 1
  23322211.867   -12167224.803 4  -9480926.374 2
 91  7 25  4 53 45.0090000  0  5 23 11 12 17 21
  24237557.088    -1595508.692 4  -1243218.119 2
  24619221.375   -10693685.362 4  -8332729.115 2
  26830248.300    -1353566.369 2  -1054724.281 1
  26472081.761    27339005.407 2  21303119.601 1
  23322327.283   -12166596.962 4  -9480437.126 3
 91  7 25  4 54  0.0090000  0  5 23 11 12 17 21
  24245295.335    -1554846.063 4  -1211532.969 2
  24615428.099   -10713612.899 4  -8348257.044 2
  26827670.397    -1367105.682 2  -1065274.374 1
  26483418.417    27398575.213 2  21349537.574 1
  23322463.691   -12165895.198 4  -9479890.287 3
 91  7 25  4 54 15.0090000  0  5 23 11 12 17 21
  24253039.864    -1514138.739 4  -1179812.973 2
  24611660.894   -10733408.917 4  -8363682.486 2
  26825114.655    -1380523.286 2  -1075729.651 1
  26494767.061    27458190.207 2  21395990.754 1
  23322610.884   -12165118.336 4  -9479284.933 2
 91  7 25  4 54 30.0090000  0  5 23 11 12 17 21
  24260795.194    -1473386.891 4  -1148058.282 2
  24607923.686   -10753073.171 4  -8379005.249 2
  26822587.410    -1393818.844 2  -1086089.772 1
  26506109.109    27517850.315 2  21442479.183 1
  23322773.380   -12164266.430 4  -9478621.087 2
 91  7 25  4 54 45.0090000  0  5 23 11 12 17 21
  24268558.325    -1432591.801 4  -1116269.915 2
  24604203.561   -10772606.406 4  -8394225.935 2
  26820076.341    -1406993.177 2  -1096355.382 1
  26517478.432    27577554.287 2  21489001.633 1
  23322948.755   -12163340.648 4  -9477899.692 2
 91  7 25  4 55  0.0090000  0  5 23 11 12 17 21
  24276330.146    -1391754.564 4  -1084448.688 2
  24600508.320   -10792009.210 4  -8409344.973 2
  26817597.363    -1420046.885 2  -1106527.125 1
  26528848.366    27637300.825 2  21535557.373 1
  23323139.120   -12162341.824 4  -9477121.380 2
 91  7 25  4 55 15.0090000  0  5 23 11 12 17 21
  24284107.359    -1350873.052 4  -1052592.976 2
  24596843.967   -10811278.914 4  -8424360.312 2
  26815133.375    -1432977.354 2  -1116602.713 1
  26540216.799    27697091.939 2  21582147.926 1
  23323344.491   -12161267.824 4  -9476284.487 2
 91  7 25  4 55 30.0090000  0  5 23 11 12 17 21
  24291894.763    -1309948.395 4  -1020703.637 2
  24593202.089   -10830416.261 4  -8439272.500 2
  26812695.161    -1445785.274 2  -1126582.887 1
  26551610.709    27756926.690 2  21628772.343 1
  23323564.538   -12160119.667 4  -9475389.811 3
 91  7 25  4 55 45.0090000  0  5 23 11 12 17 21
  24299695.377    -1268981.627 4   -988781.497 2
  24589587.782   -10849421.830 4  -8454082.009 1
  26810279.126    -1458471.205 2  -1136467.795 1
  26562998.023    27816804.194 2  21675430.135 1
  23323792.979   -12158898.327 4  -9474438.101 2
 91  7 25  4 56  0.0090000  0  5 23 11 12 17 21
  24307498.660    -1227971.646 4   -956825.671 2
  24585995.376   -10868294.117 4  -8468787.674 2
  26807896.979    -1471033.613 2  -1146256.821 1
  26574406.923    27876725.632 2  21722122.103 1
  23324038.800   -12157602.621 4  -9473428.456 3
 91  7 25  4 56 15.0090000  0  5 23 11 12 17 21
  24315307.668    -1186920.317 4   -924837.619 2
  24582428.446   -10887034.589 4  -8483390.615 2
  26805527.414    -1483473.999 2  -1155950.770 1
  26585817.027    27936688.780 2  21768846.571 1
  23324299.629   -12156234.482 4  -9472362.353 2
 91  7 25  4 56 30.0090000  0  5 23 11 12 17 21
  24323128.646    -1145825.917 4   -892816.014 2
  24578886.698   -10905640.868 4  -8497888.997 2
  26803173.449    -1495789.989 2  -1165547.510
  26597233.117    27996695.449 2  21815604.972 1
  23324576.634   -12154791.862 4  -9471238.223 3
 91  7 25  4 56 45.0090000  0  5 23 11 12 17 21
  24330954.126    -1104688.789 4   -860761.123 2
  24575372.521   -10924112.971 4  -8512282.835 2
  26800861.156    -1507981.724 2  -1175047.489 1
  26608663.899    28056745.166 2  21862396.884 1
  23324865.033   -12153275.223 4  -9470056.414 2
 91  7 25  4 57  0.0090000  0  5 23 11 12 17 21
  24338794.300    -1063508.765 4   -828672.795 2
  24571882.041   -10942450.143 4  -8526571.516 2
  26798568.930    -1520048.338 2  -1184450.002 1
  26620094.385    28116838.444 2  21909222.781 1
  23325169.016   -12151684.072 4  -9468816.546 2
 91  7 25  4 57 15.0090000  0  5 23 11 12 17 21
  24346637.178    -1022285.823 4   -796551.025 2
  24568420.930   -10960651.974 4  -8540754.750 2
  26796286.913    -1531989.336 2  -1193754.665 1
  26631544.660    28176975.172 2  21956082.549 1
  23325482.911   -12150018.347 4  -9467518.564 2
 91  7 25  4 57 30.0090000  0  5 23 11 12 17 21
  24354491.137     -981020.581 4   -764396.300 2
  24564978.124   -10978718.678 4  -8554832.673 2
  26794038.767    -1543804.959 2  -1202961.625 1
  26642998.843    28237154.543 2  22002975.558 1
  23325815.966   -12148278.698 4  -9466162.987 2
 91  7 25  4 57 45.0090000  0  5 23 11 12 17 21
  24362347.801     -939713.118 4   -732208.676 2
  24561567.078   -10996649.771 4  -8568804.935 2
  26791811.613    -1555494.931 2  -1212070.619 1
  26654458.401    28297376.470 2  22049901.671 1
  23326161.637   -12146465.011 4  -9464749.727 2
 91  7 25  4 58  0.0090000  0  5 23 11 12 17 21
  24370219.751     -898363.095 4   -699987.880 2
  24558180.322   -11014444.532 4  -8582670.971 2
  26789620.127    -1567058.432 2  -1221081.041 1
  26665924.259    28357641.493 2  22096861.412 1
  23326521.094   -12144576.964 4  -9463278.505 2
 91  7 25  4 58 15.0090000  0  5 23 11 12 17 21
  24378095.593     -856970.832 4   -667734.168 2
  24554820.858   -11032102.804 4  -8596430.644 2
  26787436.442    -1578495.209 2  -1229992.817 1
  26677400.325    28417949.325 2  22143854.514 1
  23326893.726   -12142614.642 4  -9461749.406 2
 91  7 25  4 58 30.0090000  0  5 23 11 12 17 21
  24385981.329     -815536.075 4   -635447.360 2
  24551491.060   -11049623.650 4  -8610083.231 2
  26785283.329    -1589804.400 2  -1238805.211 1
  26688882.969    28478300.167 2  22190881.071 1
  23327282.255   -12140577.651 4  -9460162.138 2
 91  7 25  4 58 45.0090000  0  5 23 11 12 17 21
  24393871.270     -774060.294 4   -603128.577 2
  24548178.956   -11067008.103 4  -8623629.549 2
  26783155.415    -1600987.114 2  -1247518.988
  26700374.618    28538692.672 2  22237940.092 1
  23327682.476   -12138467.367 4  -9458517.753 3
 91  7 25  4 59  0.0090000  0  5 23 11 12 17 21
  24401773.200     -732542.423 4   -570776.994 2
  24544898.019   -11084254.862 4  -8637068.558 2
  26781054.164    -1612042.015 2  -1256133.174 1
  26711876.755    28599127.538 2  22285032.161 1
  23328099.798   -12136282.701 4  -9456815.405 2
 91  7 25  4 59 15.0090000  0  5 23 11 12 17 21
  24409684.431     -690981.139 4   -538391.597 2
  24541643.466   -11101362.190 4  -8650398.937 2
  26778979.002    -1622967.251 2  -1264646.379 1
  26723384.283    28659606.166 2  22332158.311 1
  23328526.403   -12134022.223 4  -9455053.987 3
 91  7 25  4 59 30.0090000  0  5 23 11 12 17 21
  24417600.443     -649379.209 4   -505974.496 2
  24538415.909   -11118332.404 4  -8663622.460 2
  26776924.518    -1633765.284 2  -1273060.370 1
  26734903.504    28720125.609 2  22379316.257 1
  23328972.780   -12131688.738 4  -9453235.678 3
 91  7 25  4 59 45.0090000  0  5 23 11 12 17 21
  24425524.255     -607741.195 4   -473529.299 2
  24535208.436   -11135169.420 4  -8676742.196 2
  26774889.526    -1644440.053 2  -1281378.136
  26746416.442    28780681.796 2  22426502.835 1
  23329429.679   -12129286.470 4  -9451363.768 2
 91  7 25  5  0  0.0090000  0  5 23 11 12 17 21
  24433447.178     -566093.797 4   -441076.781 2
  24532026.738   -11151899.556 4  -8689778.660 2
  26772876.120    -1655017.885 2  -1289620.758 1
  26757940.461    28841247.950 2  22473697.197 1
  23329895.251   -12126842.214 4  -9449459.141 2
 91  7 25  5  0 15.0090000  0  5 23 11 12 17 21
  24441382.385     -524403.336 4   -408590.698 2
  24528867.219   -11168488.724 4  -8702705.270 2
  26770887.894    -1665464.574 2  -1297760.952 1
  26769485.473    28901857.342 2  22520925.217 1
  23330376.720   -12124322.113 4  -9447495.411 2
 91  7 25  5  0 30.0090000  0  5 23 11 12 17 21
  24449321.780     -482672.368 4   -376073.076 2
  24525740.681   -11184939.119 4  -8715523.741 2
  26768923.366    -1675782.318 2  -1305800.658 1
  26781016.088    28962507.511 2  22568184.988 1
  23330868.676   -12121728.708 4  -9445474.569 3
 91  7 25  5  0 45.0090000  0  5 23 11 12 17 21
  24457271.087     -440900.423 4   -343523.495 2
  24522632.431   -11201249.903 4  -8728233.434 2
  26766984.595    -1685970.212 2  -1313739.351 1
  26792573.995    29023198.878 2  22615477.043 1
  23331374.732   -12119061.489 4  -9443396.209 2
 91  7 25  5  1  0.0090000  0  5 23 11 12 17 21
  24465230.864     -399086.824 4   -310941.468 2
  24519555.661   -11217419.671 4  -8740833.231 2
  26765075.820    -1696026.972 2  -1321575.723 1
  26804126.493    29083932.360 2  22662801.699 1
  23331899.670   -12116319.436 4  -9441259.529 2
 91  7 25  5  1 15.0090000  0  5 23 11 12 17 21
  24473193.067     -357230.731 4   -278326.329 2
  24516506.183   -11233447.296 4  -8753322.285 2
  26763179.330    -1705951.507 2  -1329309.095 1
  26815694.888    29144708.629 2  22710159.796 1
  23332433.001   -12113501.754 4  -9439063.925 3
 91  7 25  5  1 30.0090000  0  5 23 11 12 17 21
  24481165.444     -315335.914 4   -245681.014 2
  24513484.573   -11249335.998 4  -8765703.080 2
  26761322.418    -1715747.092 2  -1336941.975 1
  26827265.970    29205523.923 2  22757548.326 1
  23332982.508   -12110612.036 4  -9436812.189 2
 91  7 25  5  1 45.0090000  0  5 23 11 12 17 21
  24489147.714     -273400.354 4   -213003.951 2
  24510489.348   -11265083.359 4  -8777973.737 2
  26759480.198    -1725411.225 2  -1344472.411 1
  26838845.446    29266380.175 2  22804968.725 1
  23333545.522   -12107648.209 4  -9434502.701 2
 91  7 25  5  2  0.0090000  0  5 23 11 12 17 21
  24497133.283     -231424.063 4   -180295.156 2
  24507517.803   -11280689.100 4  -8790134.046 2
  26757670.349    -1734943.644 2  -1351900.293 1
  26850438.725    29327277.374 2  22852421.081 1
  23334126.213   -12104610.449 4  -9432135.597 2
 91  7 25  5  2 15.0090000  0  5 23 11 12 17 21
  24505127.856     -189406.428 4   -147554.157 2
  24504576.830   -11296152.039 4  -8802183.067 2
  26755884.790    -1744343.107 3  -1359224.474 1
  26862035.302    29388216.352 2  22899905.956 1
  23334717.706   -12101497.687 4  -9429710.054 2
 91  7 25  5  2 30.0090000  0  5 23 11 12 17 21
  24513126.617     -147354.930 4   -114786.749 2
  24501658.962   -11311479.285 4  -8814126.361 2
  26754116.612    -1753616.695 2  -1366450.536 1
  26873629.471    29449189.530 2  22947417.472 1
  23335323.595   -12098317.448 4  -9427231.941 2
 91  7 25  5  2 45.0090000  0  5 23 11 12 17 21
  24521143.962     -105258.502 4    -81984.344 2
  24498770.462   -11326659.298 4  -8825954.928 2
  26752377.506    -1762753.025 3  -1373569.512 1
  26885247.931    29510207.621 2  22994963.979 1
  23335942.362   -12095058.600 4  -9424692.563 2
 91  7 25  5  3  0.0090000  0  5 23 11 12 17 21
  24529160.418      -63121.488 4    -49150.300 2
  24495911.331   -11341695.979 4  -8837671.815 2
  26750666.599    -1771756.067 3  -1380584.669 1
  26896863.389    29571266.332 2  23042542.122 1
  23336579.417   -12091725.505 4  -9422095.332 2
 91  7 25  5  3 15.0090000  0  5 23 11 12 17 21
  24537186.453      -20942.841 4    -16283.801 2
  24493074.990   -11356587.823 4  -8849275.832 2
  26748970.665    -1780624.303 2  -1387494.999 1
  26908490.243    29632366.953 2  23090152.972 1
  23337225.180   -12088317.001 4  -9419439.348 2
 91  7 25  5  3 30.0090000  0  5 23 11 12 17 21
  24545227.200       21308.023 4     16638.946 2
  24490275.836   -11371303.851 4  -8860742.867 2
  26747315.826    -1789326.632 2  -1394275.988 1
  26920142.276    29693540.049 2  23137820.260 1
  23337894.012   -12084802.365 4  -9416700.664 2
 91  7 25  5  3 45.0090000  0  5 23 11 12 17 21
  24553276.322       63602.419 4     49595.620 2
  24487501.251   -11385872.351 4  -8872094.922 2
  26745694.840    -1797891.433 2  -1400949.814 1
  26931782.008    29754756.837 2  23185521.660 1
  23338580.241   -12081210.228 4  -9413901.582 2
 91  7 25  5  4  0.0090000  0  5 23 11 12 17 21
  24561329.650      105935.941 4     82582.793 2
  24484755.163   -11400297.345 4  -8883335.176 2
  26744084.656    -1806322.806 2  -1407519.684 1
  26943431.354    29816012.694 2  23233253.407 1
  23339275.458   -12077544.882 4  -9411045.459 2
 91  7 25  5  4 15.0090000  0  5 23 11 12 17 21
  24569397.060      148309.380 4    115601.062 2
  24482040.537   -11414577.363 4  -8894462.457 2
  26742504.749    -1814619.237 2  -1413984.412 1
  26955106.772    29877308.735 2  23281016.562 1
  23339988.369   -12073805.338 4  -9408131.519 2
 91  7 25  5  4 30.0090000  0  5 23 11 12 17 21
  24577467.175      190723.340 4    148650.904 2
  24479351.703   -11428711.763 4  -8905476.257 2
  26740953.616    -1822779.994 3  -1420343.372 1
  26966780.688    29938645.199 2  23328811.126 1
  23340713.862   -12069991.136 4  -9405159.403 2
 91  7 25  5  4 45.0090000  0  5 23 11 12 17 21
  24585544.479      233175.513 4    181730.538 2
  24476688.939   -11442702.254 4  -8916377.932 2
  26739425.274    -1830806.764 3  -1426597.962
  26978455.809    30000019.998 2  23376635.602 1
  23341454.345   -12066104.396 4  -9402130.760 2
 91  7 25  5  5  0.0090000  0  5 23 11 12 17 21
  24593629.287      275666.351 4    214840.293 2
  24474054.672   -11456547.971 4  -8927166.773 2
  26737924.817    -1838698.787 3  -1432747.641 1
  26990144.104    30061433.303 2  23424490.068 1
  23342206.222   -12062144.514 4  -9399045.125 2
 91  7 25  5  5 15.0090000  0  5 23 11 12 17 21
  24601724.583      318197.278 4    247981.281 2
  24471444.974   -11470247.154 4  -8937841.450 2
  26736452.245    -1846454.311 3  -1438790.795 1
  27001840.514    30122886.572 2  23472375.703
  23342973.089   -12058110.160 4  -9395901.466 2
 91  7 25  5  5 30.0090000  0  5 23 11 12 17 21
  24609824.381      360767.426 4    281152.843 2
  24468869.462   -11483800.003 4  -8948402.103 2
  26735002.446    -1854073.559 3  -1444728.002 1
  27013539.314    30184379.231 2  23520291.969 1
  23343754.056   -12054001.968 4  -9392700.250 2
 91  7 25  5  5 45.0090000  0  5 23 11 12 17 21
  24617933.165      403374.435 4    314353.105 2
  24466314.924   -11497208.541 4  -8958850.303 2
  26733568.841    -1861558.576 2  -1450560.348 1
  27025255.809    30245908.762 2  23568237.133 1
  23344552.404   -12049822.137 4  -9389443.226 2
 91  7 25  5  6  0.0090000  0  5 23 11 12 17 21
  24626045.545      446021.387 4    347584.510 2
  24463792.775   -11510469.404 4  -8969183.431 2
  26732183.486    -1868905.968 2  -1456285.573 1
  27036959.095    30307478.082 2  23616213.073 1
  23345359.442   -12045567.607 4  -9386128.000 2
 91  7 25  5  6 15.0090000  0  5 23 11 12 17 21
  24634168.726      488706.882 4    380845.932 2
  24461298.196   -11523583.485 4  -8979402.167 2
  26730803.854    -1876116.667 2  -1461904.340 1
  27048686.688    30369085.759 2  23664218.964 1
  23346183.266   -12041239.689 4  -9382755.582 2
 91  7 25  5  6 30.0090000  0  5 23 11 12 17 21
  24642298.189      531431.782 4    414138.057 2
  24458829.113   -11536549.498 4  -8989505.544 2
  26729456.889    -1883189.378 2  -1467415.616 1
  27060425.362    30430732.653 2  23712255.577 1
  23347022.988   -12036837.467 4  -9379325.263 2
 91  7 25  5  6 45.0090000  0  5 23 11 12 17 21
  24650438.454      574194.303 4    447459.499 2
  24456388.194   -11549368.910 4  -8999494.683 2
  26728138.700    -1890125.552 2  -1472820.667 1
  27072153.531    30492417.036 2  23760321.318 1
  23347877.700   -12032362.642 4  -9375838.383 2
 91  7 25  5  7  0.0090000  0  5 23 11 12 17 21
  24658581.423      616994.175 4    480810.054 2
  24453980.866   -11562041.591 4  -9009369.499 2
  26726839.688    -1896925.123 2  -1478119.016 1
  27083903.897    30554138.521 2  23808415.907 1
  23348739.008   -12027815.479 4  -9372295.130 2
 91  7 25  5  7 15.0090000  0  5 23 11 12 17 21
  24666732.769      659831.208 4    514189.551 2
  24451596.015   -11574567.254 4  -9019129.738 2
  26725572.471    -1903587.771 2  -1483310.719 1
  27095665.065    30615896.828 2  23856539.255 1
  23349615.602   -12023195.911 4  -9368695.456 2
 91  7 25  5  7 30.0090000  0  5 23 11 12 17 21
  24674892.526      702705.553 4    547598.130 2
  24449240.235   -11586945.391 4  -9028775.020 2
  26724330.434    -1910113.089 2  -1488395.392 1
  27107413.022    30677691.965 2  23904691.271 1
  23350511.374   -12018503.778 4  -9365039.227 2
 91  7 25  5  7 45.0090000  0  5 23 11 12 17 21
  24683058.582      745618.191 4    581036.541 2
  24446911.451   -11599174.637 4  -9038304.283 2
  26723123.472    -1916499.558 2  -1493371.786 1
  27119181.973    30739525.048 2  23952872.845 1
  23351416.150   -12013737.960 4  -9361325.601 2
 91  7 25  5  8  0.0090000  0  5 23 11 12 17 21
  24691229.716      788570.541 4    614505.925 2
  24444614.444   -11611253.044 4  -9047716.028 2
  26721931.186    -1922745.351 2  -1498238.597 1
  27130956.926    30801397.626 2  24001085.205 1
  23352339.215   -12008896.996 4  -9357553.409 3
 91  7 25  5  8 15.0090000  0  5 23 11 12 17 21
  24699411.356      831562.041 4    648005.799 2
  24442344.712   -11623180.810 4  -9057010.372 2
  26720770.694    -1928850.786 2  -1502996.083 1
  27142743.274    30863308.962 2  24049327.730 1
  23353273.360   -12003981.428 4  -9353723.084 2
 91  7 25  5  8 30.0090000  0  5 23 11 12 17 21
  24707602.278      874591.850 4    681535.521 2
  24440104.069   -11634958.469 4  -9066187.749 2
  26719629.380    -1934816.286 2  -1507644.412 1
  27154529.012    30925258.357 2  24097599.927 1
  23354224.309   -11998992.057 4  -9349835.251 2
 91  7 25  5  8 45.0090000  0  5 23 11 12 17 21
  24715799.204      917661.785 4    715096.527 2
  24437889.497   -11646583.752 4  -9075246.391 2
  26718524.956    -1940639.648 2  -1512182.012 1
  27166323.439    30987247.381 2  24145903.036 1
  23355190.231   -11993926.961 4  -9345888.406 3
 91  7 25  5  9  0.0090000  0  5 23 11 12 17 21
  24723998.224      960769.639 4    748687.067 2
  24435704.607   -11658058.604 4  -9084187.814 2
  26717436.411    -1946322.844 2  -1516610.583 1
  27178118.774    31049273.655 2  24194235.117 1
  23356166.361   -11988788.402 4  -9341884.323 2
 91  7 25  5  9 15.0090000  0  5 23 11 12 17 21
  24732211.954     1003918.649 4    782309.673 2
  24433551.809   -11669379.128 4  -9093008.998 2
  26716384.425    -1951861.949 2  -1520926.735 1
  27189923.411    31111340.660 2  24242598.995 1
  23357156.277   -11983572.818 4  -9337820.216 2
 91  7 25  5  9 30.0090000  0  5 23 11 12 17 21
  24740426.260     1047103.524 4    815960.230 2
  24431427.175   -11680550.174 4  -9101713.686 2
  26715356.450    -1957261.938 2  -1525134.481 1
  27201747.224    31173443.172 2  24290990.526 1
  23358163.277   -11978285.343 4  -9333700.103 3
 91  7 25  5  9 45.0090000  0  5 23 11 12 17 21
  24748654.666     1090326.142 4    849640.184 2
  24429330.130   -11691569.725 4  -9110300.335 2
  26714366.238    -1962520.687 2  -1529232.198 1
  27213589.623    31235582.849 2  24339410.969 1
  23359185.267   -11972924.221 4  -9329522.588 2
 91  7 25  5 10  0.0090000  0  5 23 11 12 17 21
  24756885.463     1133584.945 4    883348.322 2
  24427260.657   -11702438.954 4  -9118769.856 2
  26713385.309    -1967639.456 2  -1533220.771 1
  27225402.338    31297758.021 2  24387859.134 1
  23360216.557   -11967491.018 4  -9325288.915 2
 91  7 25  5 10 15.0090000  0  5 23 11 12 17 21
  24765121.965     1176881.356 4    917085.757 2
  24425222.070   -11713156.044 4  -9127120.810 2
  26712440.955    -1972616.427 2  -1537098.942 1
  27237251.647    31359970.059 2  24436335.959 1
  23361265.228   -11961984.210 4  -9320997.887 3
 91  7 25  5 10 30.0090000  0  5 23 11 12 17 21
  24773371.957     1220214.757 4    950852.041 1
  24423211.665   -11723721.127 4  -9135353.335 2
  26711522.393    -1977451.791 2  -1540866.707 1
  27249095.249    31422218.265 2  24484841.002 1
  23362330.092   -11956404.068 4  -9316649.721 3
 91  7 25  5 10 45.0090000  0  5 23 11 12 17 21
  24781624.933     1263586.354 4    984648.082 2
  24421228.238   -11734132.648 4  -9143466.184 2
  26710622.712    -1982143.936 2  -1544522.886 1
  27260939.148    31484504.062 2  24533375.379 1
  23363403.944   -11950749.320 4  -9312243.403 2
 91  7 25  5 11  0.0090000  0  5 23 11 12 17 21
  24789881.818     1306993.751 4   1018472.008 2
  24419279.590   -11744392.653 4  -9151460.983 2
  26709762.608    -1986694.926 2  -1548069.095 1
  27272801.928    31546824.790 2  24581936.935 1
  23364493.099   -11945022.547 4  -9307780.972 3
 91  7 25  5 11 15.0090000  0  5 23 11 12 17 21
  24798152.488     1350436.500 4   1052323.505 2
  24417353.418   -11754501.132 4  -9159337.699 2
  26708919.903    -1991104.691 2  -1551505.247 1
  27284669.821    31609180.090 2  24630525.401 1
  23365596.040   -11939223.992 4  -9303262.613 2
 91  7 25  5 11 30.0090000  0  5 23 11 12 17 21
  24806423.176     1393916.703 4   1086204.176 2
  24415455.131   -11764455.809 4  -9167094.574 2
  26708109.567    -1995370.957 2  -1554829.604 1
  27296549.685    31671571.971 2  24679142.394 1
  23366716.362   -11933351.700 4  -9298686.798 3
 91  7 25  5 11 45.0100000  0  5 23 11 12 17 21
  24814705.837     1437436.600 4   1120115.778 2
  24413595.220   -11774257.324 4  -9174732.113 2
  26707328.603    -1999494.095 2  -1558042.399 1
  27308432.571    31734004.016 2  24727790.699 1
  23367846.284   -11927405.597 4  -9294053.456 3
 91  7 25  5 12  0.0100000  0  5 23 11 12 17 21
  24822997.500     1480997.438 4   1154059.292 2
  24411764.692   -11783897.203 4  -9182243.689 2
  26706567.721    -2003466.294 2  -1561137.615 1
  27320310.935    31796474.791 2  24776469.143 1
  23368993.583   -11921379.329 4  -9289357.655 3
 91  7 25  5 12 15.0100000  0  5 23 11 12 17 21
  24831292.758     1524601.869 4   1188036.774 2
  24409956.343   -11793375.842 4  -9189629.622 2
  26705838.634    -2007287.628 2  -1564115.180 1
  27332206.399    31858988.036 2  24825180.738 1
  23370156.483   -11915272.748 4  -9284599.276 2
 91  7 25  5 12 30.0100000  0  5 23 11 12 17 21
  24839600.894     1568244.128 4   1222043.734 2
  24408181.272   -11802698.808 4  -9196894.257 2
  26705147.308    -2010963.703 2  -1566979.672 1
  27344121.966    31921537.885 2  24873920.817 1
  23371328.074   -11909091.732 4  -9279782.885 2
 91  7 25  5 12 45.0100000  0  5 23 11 12 17 21
  24847906.360     1611923.201 4   1256079.364 2
  24406437.978   -11811866.535 4  -9204037.917 2
  26704470.379    -2014494.959 2  -1569731.284 1
  27356019.228    31984123.552 2  24922688.826 1
  23372518.842   -11902836.914 4  -9274908.985 2
 91  7 25  5 13  0.0100000  0  5 23 11 12 17 21
  24856229.486     1655640.036 4   1290144.424 2
  24404722.866   -11820877.711 4  -9211059.606 2
  26703826.117    -2017880.109 2  -1572369.039 1
  27367930.869    32046745.785 2  24971485.285 1
  23373726.100   -11896507.317 4  -9269976.827 3
 91  7 25  5 13 15.0100000  0  5 23 11 12 17 21
  24864554.723     1699393.253 4   1324237.835 2
  24403038.623   -11829733.538 4  -9217960.235 2
  26703206.163    -2021120.326 2  -1574893.853 1
  27379869.819    32109403.155 2  25020309.172 1
  23374940.269   -11890104.525 4  -9264987.634 3
 91  7 25  5 13 30.0100000  0  5 23 11 12 17 21
  24872888.353     1743183.006 4   1358359.714 2
  24401381.673   -11838433.367 4  -9224739.323 2
  26702621.860    -2024215.187 2  -1577305.376 1
  27391791.965    32172095.717 2  25069160.433 1
  23376174.505   -11883628.200 4  -9259941.132 2
 91  7 25  5 13 45.0100000  0  5 23 11 12 17 21
  24881229.488     1787009.382 4   1392510.125 2
  24399755.906   -11846976.710 4  -9231396.453 2
  26702061.848    -2027164.128 2  -1579603.215
  27403724.005    32234823.785 2  25118039.504 1
  23377424.342   -11877078.016 4  -9254837.078 3
 91  7 25  5 14  0.0100000  0  5 23 11 12 17 21
  24889575.700     1830871.258 4   1426688.194 2
  24398157.710   -11855364.461 4  -9237932.350 2
  26701521.013    -2029968.004 2  -1581788.064 1
  27415668.330    32297585.924 2  25166945.109 1
  23378685.871   -11870455.160 4  -9249676.400 3
 91  7 25  5 14 15.0100000  0  5 23 11 12 17 21
  24897926.432     1874769.140 4   1460894.335 2
  24396596.387   -11863595.766 4  -9244346.336 2
  26701021.274    -2032626.051 2  -1583859.257 1
  27427623.457    32360382.566 2  25215877.497 1
  23379956.386   -11863759.120 4  -9244458.704 2
 91  7 25  5 14 30.0100000  0  5 23 11 12 17 21
  24906288.227     1918703.762 4   1495129.077 2
  24395057.853   -11871669.436 4  -9250637.499 2
  26700540.398    -2035137.086 2  -1585815.877 1
  27439582.772    32423214.492 2  25264837.363 1
  23381247.598   -11856988.952 4  -9239183.233 3
 91  7 25  5 14 45.0100000  0  5 23 11 12 17 21
  24914653.338     1962674.459 3   1529391.957 1
  24393550.800   -11879585.771 4  -9256806.060 2
  26700083.220    -2037501.227 2  -1587657.981 1
  27451546.588    32486081.236 2  25313824.391 1
  23382550.204   -11850145.089 4  -9233850.346 2
 91  7 25  5 15  0.0100000  0  5 23 11 12 17 21
  24923030.437     2006680.261 3   1563682.208 2
  24392076.711   -11887345.420 4  -9262852.526 2
  26699670.104    -2039719.314 2  -1589386.314 1
  27463506.514    32548981.442 2  25362837.480 1
  23383861.797   -11843228.646 4  -9228460.905 3
 91  7 25  5 15 15.0100000  0  5 23 11 12 17 21
  24931412.649     2050721.998 4   1598000.427 2
  24390627.819   -11894947.219 4  -9268775.991 2
  26699283.075    -2041790.169 2  -1590999.988 1
  27475483.820    32611915.990 2  25411877.368 1
  23385194.366   -11836238.701 4  -9223014.186 3
 91  7 25  5 15 30.0100000  0  5 23 11 12 17 21
  24939798.142     2094799.696 4   1632346.678 2
  24389209.500   -11902390.643 4  -9274576.040 2
  26698906.238    -2043713.423 2  -1592498.594 1
  27487463.831    32674884.889 2  25460944.034 1
  23386540.144   -11829175.010 4  -9217510.001 3
 91  7 25  5 15 45.0100000  0  5 23 11 12 17 21
  24948195.326     2138912.766 4   1666720.505 2
  24387827.757   -11909676.025 4  -9280252.942 2
  26698570.757    -2045489.297 2  -1593882.337 1
  27499455.516    32737887.512 2  25510036.953 1
  23387894.298   -11822038.351 4  -9211948.960 3
 91  7 25  5 16  0.0100000  0  5 23 11 12 17 21
  24956594.902     2183060.859 4   1701121.606 2
  24386466.396   -11916803.295 4  -9285806.667 2
  26698259.271    -2047117.900 2  -1595151.392 1
  27511464.005    32800923.497 2  25559155.826 1
  23389269.445   -11814828.956 4  -9206331.243 3
 91  7 25  5 16 15.0100000  0  5 23 11 12 17 21
  24965001.684     2227245.785 4   1735551.423 2
  24385143.722   -11923770.512 4  -9291235.645 2
  26697974.169    -2048597.230 2  -1596304.067 1
  27523442.515    32863994.356 2  25608301.970 1
  23390654.783   -11807544.963 4  -9200655.392 3
 91  7 25  5 16 30.0100000  0  5 23 11 12 17 21
  24973417.470     2271466.173 3   1770008.878 2
  24383850.120   -11930578.658 4  -9296540.683 2
  26697723.253    -2049928.178 2  -1597341.141 1
  27535467.792    32927098.746 2  25657474.177 1
  23392055.425   -11800187.616 4  -9194922.382 3
 91  7 25  5 16 45.0100000  0  5 23 11 12 17 21
  24981837.427     2315723.109 3   1804494.803 2
  24382584.089   -11937226.233 4  -9301720.595 2
  26697503.205    -2051109.302 2  -1598261.487 1
  27547484.378    32990237.965 2  25706673.502 1
  23393471.039   -11792755.741 4  -9189131.297 3
 91  7 25  5 17  0.0100000  0  5 23 11 12 17 21
  24990268.796     2360013.957 3   1839007.139 2
  24381348.945   -11943715.644 4  -9306777.272 2
  26697301.149    -2052142.949 2  -1599066.893 1
  27559499.464    33053409.147 2  25755897.746 1
  23394896.250   -11785251.988 4  -9183284.206 3
 91  7 25  5 17 15.0100000  0  5 23 11 12 17 21
  24998700.759     2404340.135 4   1873547.019 2
  24380145.281   -11950045.105 4  -9311709.304 2
  26697134.465    -2053027.491 2  -1599756.116 1
  27571531.633    33116613.541 2  25805147.847 1
  23396336.452   -11777674.910 4  -9177379.978 3
 91  7 25  5 17 30.0100000  0  5 23 11 12 17 21
  25007144.710     2448702.209 4   1908114.880 2
  24378970.096   -11956213.875 4  -9316516.113 2
  26696999.854    -2053762.089 2  -1600328.523 1
  27583568.898    33179851.519 2  25854424.210 1
  23397794.941   -11770023.882 4  -9171418.120 3
 91  7 25  5 17 45.0100000  0  5 23 11 12 17 21
  25015590.476     2493098.877 3   1942709.678 1
  24377826.374   -11962222.693 4  -9321198.307 2
  26696893.425    -2054347.565 2  -1600784.695 1
  27595601.661    33243121.941 2  25903725.731 1
  23399262.120   -11762300.034 4  -9165399.526 3
 91  7 25  5 18  0.0100000  0  5 23 11 12 17 21
  25024047.305     2537529.299 3   1977330.791 2
  24376712.649   -11968071.946 4  -9325756.164 2
  26696806.488    -2054784.381 2  -1601125.039 1
  27607650.914    33306424.069 2  25953052.020 1
  23400746.994   -11754504.036 4  -9159324.703 3
 91  7 25  5 18 15.0100000  0  5 23 11 12 17 21
  25032505.652     2581994.023 3   2011978.628 1
  24375629.496   -11973760.964 4  -9330189.155 2
  26696753.125    -2055071.625 2  -1601348.779 1
  27619704.373    33369758.162 2  26002403.212 1
  23402243.263   -11746635.336 4  -9153193.234 3
